Wetterdaten: Sonntag, 12.05.2019
Datum Zeit Temp. A. Pool Temp. Temp. 5cm Feuchte A. Luftdruck Regen Wind Richtung Richtung Sonnenschein ET UV Solar Taupunkt Windchill Windben Empfang
12.05.2019 00:00 8,2 C 15,0 C 8,3 C 95 % 1016,0 hPa 0,0 l/m 2,7 km/h (1 Bft) SW 220 0 min 0,000 mm 0,0 UV-I 0 W/m 7,4 C 8,2 C 4,8 km/h (1 Bft) 100,00 %
12.05.2019 00:02 8,2 C 15,0 C 8,3 C 95 % 1016,0 hPa 0,0 l/m 4,7 km/h (1 Bft) SW 219 0 min 0,000 mm 0,0 UV-I 0 W/m 7,4 C 8,2 C 6,4 km/h (2 Bft) 95,00 %
12.05.2019 00:04 8,2 C 15,0 C 8,3 C 95 % 1016,0 hPa 0,2 l/m 4,1 km/h (1 Bft) S-SW 212 0 min 0,000 mm 0,0 UV-I 0 W/m 7,4 C 8,2 C 6,4 km/h (2 Bft) 100,00 %
12.05.2019 00:06 8,2 C 15,0 C 8,3 C 95 % 1016,0 hPa 0,0 l/m 4,5 km/h (1 Bft) S-SW 212 0 min 0,000 mm 0,0 UV-I 0 W/m 7,4 C 8,2 C 8,0 km/h (2 Bft) 98,00 %
12.05.2019 00:08 8,2 C 15,0 C 8,3 C 95 % 1016,1 hPa 0,0 l/m 3,3 km/h (1 Bft) S-SW 213 0 min 0,000 mm 0,0 UV-I 0 W/m 7,4 C 8,2 C 4,8 km/h (1 Bft) 100,00 %
12.05.2019 00:10 8,3 C 15,0 C 8,3 C 95 % 1016,1 hPa 0,0 l/m 4,0 km/h (1 Bft) S-SW 212 0 min 0,000 mm 0,0 UV-I 0 W/m 7,5 C 8,3 C 6,4 km/h (2 Bft) 100,00 %
12.05.2019 00:12 8,2 C 15,0 C 8,3 C 95 % 1015,9 hPa 0,0 l/m 4,9 km/h (1 Bft) S-SW 205 0 min 0,000 mm 0,0 UV-I 0 W/m 7,4 C 8,2 C 6,4 km/h (2 Bft) 100,00 %
12.05.2019 00:14 8,2 C 15,0 C 8,3 C 95 % 1015,8 hPa 0,0 l/m 5,6 km/h (1 Bft) S-SW 199 0 min 0,000 mm 0,0 UV-I 0 W/m 7,4 C 8,2 C 8,0 km/h (2 Bft) 100,00 %
12.05.2019 00:16 8,2 C 15,0 C 8,3 C 96 % 1015,9 hPa 0,2 l/m 5,4 km/h (1 Bft) S-SW 199 0 min 0,000 mm 0,0 UV-I 0 W/m 7,6 C 8,2 C 8,0 km/h (2 Bft) 100,00 %
12.05.2019 00:18 8,2 C 15,0 C 8,3 C 96 % 1015,8 hPa 0,0 l/m 5,1 km/h (1 Bft) S-SW 200 0 min 0,000 mm 0,0 UV-I 0 W/m 7,6 C 8,2 C 8,0 km/h (2 Bft) 100,00 %
12.05.2019 00:20 8,3 C 15,0 C 8,3 C 96 % 1015,9 hPa 0,0 l/m 3,2 km/h (1 Bft) S-SW 201 0 min 0,000 mm 0,0 UV-I 0 W/m 7,7 C 8,3 C 4,8 km/h (1 Bft) 100,00 %
12.05.2019 00:22 8,3 C 15,0 C 8,3 C 96 % 1015,8 hPa 0,0 l/m 4,0 km/h (1 Bft) W-SW 251 0 min 0,000 mm 0,0 UV-I 0 W/m 7,7 C 8,3 C 6,4 km/h (2 Bft) 98,00 %
12.05.2019 00:24 8,3 C 15,0 C 8,3 C 96 % 1015,8 hPa 0,0 l/m 4,5 km/h (1 Bft) SW 230 0 min 0,000 mm 0,0 UV-I 0 W/m 7,7 C 8,3 C 8,0 km/h (2 Bft) 100,00 %
12.05.2019 00:26 8,3 C 15,0 C 8,3 C 96 % 1015,7 hPa 0,0 l/m 4,7 km/h (1 Bft) SW 219 0 min 0,000 mm 0,0 UV-I 0 W/m 7,7 C 8,3 C 6,4 km/h (2 Bft) 100,00 %
12.05.2019 00:28 8,2 C 15,0 C 8,3 C 96 % 1015,7 hPa 0,0 l/m 4,0 km/h (1 Bft) SW 236 0 min 0,000 mm 0,0 UV-I 0 W/m 7,6 C 8,2 C 6,4 km/h (2 Bft) 97,87 %
12.05.2019 00:30 8,2 C 15,0 C 8,3 C 96 % 1015,7 hPa 0,0 l/m 5,6 km/h (1 Bft) W-SW 253 0 min 0,000 mm 0,0 UV-I 0 W/m 7,6 C 8,2 C 8,0 km/h (2 Bft) 97,87 %
12.05.2019 00:32 8,2 C 15,0 C 8,3 C 96 % 1015,7 hPa 0,0 l/m 6,4 km/h (2 Bft) W-SW 240 0 min 0,000 mm 0,0 UV-I 0 W/m 7,6 C 8,2 C 9,7 km/h (2 Bft) 95,74 %
12.05.2019 00:34 8,2 C 15,0 C 8,3 C 96 % 1015,6 hPa 0,0 l/m 4,7 km/h (1 Bft) W-SW 237 0 min 0,000 mm 0,0 UV-I 0 W/m 7,6 C 8,2 C 6,4 km/h (2 Bft) 95,74 %
12.05.2019 00:36 8,3 C 15,0 C 8,3 C 96 % 1015,6 hPa 0,0 l/m 3,2 km/h (1 Bft) W-SW 238 0 min 0,000 mm 0,0 UV-I 0 W/m 7,7 C 8,3 C 4,8 km/h (1 Bft) 97,87 %
12.05.2019 00:38 8,3 C 15,0 C 8,3 C 96 % 1015,6 hPa 0,0 l/m 4,1 km/h (1 Bft) W-SW 252 0 min 0,000 mm 0,0 UV-I 0 W/m 7,7 C 8,3 C 6,4 km/h (2 Bft) 97,37 %
12.05.2019 00:40 8,3 C 15,0 C 8,3 C 96 % 1015,6 hPa 0,0 l/m 3,6 km/h (1 Bft) W-SW 255 0 min 0,000 mm 0,0 UV-I 0 W/m 7,7 C 8,3 C 6,4 km/h (2 Bft) 97,87 %
12.05.2019 00:42 8,2 C 15,0 C 8,3 C 96 % 1015,6 hPa 0,0 l/m 3,8 km/h (1 Bft) W-SW 255 0 min 0,000 mm 0,0 UV-I 0 W/m 7,6 C 8,2 C 4,8 km/h (1 Bft) 98,00 %
12.05.2019 00:44 8,2 C 15,0 C 8,3 C 96 % 1015,6 hPa 0,0 l/m 4,0 km/h (1 Bft) W-SW 256 0 min 0,000 mm 0,0 UV-I 0 W/m 7,6 C 8,2 C 4,8 km/h (1 Bft) 97,87 %
12.05.2019 00:46 8,2 C 15,0 C 8,3 C 96 % 1015,6 hPa 0,0 l/m 4,4 km/h (1 Bft) W 259 0 min 0,000 mm 0,0 UV-I 0 W/m 7,6 C 8,2 C 6,4 km/h (2 Bft) 97,92 %
12.05.2019 00:48 8,2 C 15,0 C 8,3 C 96 % 1015,6 hPa 0,0 l/m 3,2 km/h (1 Bft) W 259 0 min 0,000 mm 0,0 UV-I 0 W/m 7,6 C 8,2 C 4,8 km/h (1 Bft) 95,83 %
12.05.2019 00:50 8,2 C 15,0 C 8,3 C 96 % 1015,6 hPa 0,0 l/m 4,0 km/h (1 Bft) W-SW 238 0 min 0,000 mm 0,0 UV-I 0 W/m 7,6 C 8,2 C 6,4 km/h (2 Bft) 97,87 %
12.05.2019 00:52 8,2 C 15,0 C 8,3 C 96 % 1015,6 hPa 0,0 l/m 2,5 km/h (1 Bft) SW 235 0 min 0,000 mm 0,0 UV-I 0 W/m 7,6 C 8,2 C 4,8 km/h (1 Bft) 97,87 %
12.05.2019 00:54 8,2 C 15,0 C 8,3 C 96 % 1015,6 hPa 0,0 l/m 4,0 km/h (1 Bft) SW 235 0 min 0,000 mm 0,0 UV-I 0 W/m 7,6 C 8,2 C 6,4 km/h (2 Bft) 97,37 %
12.05.2019 00:56 8,2 C 15,0 C 8,3 C 96 % 1015,6 hPa 0,0 l/m 4,2 km/h (1 Bft) SW 225 0 min 0,000 mm 0,0 UV-I 0 W/m 7,6 C 8,2 C 6,4 km/h (2 Bft) 97,87 %
12.05.2019 00:58 8,2 C 15,0 C 8,3 C 96 % 1015,6 hPa 0,0 l/m 3,1 km/h (1 Bft) SW 225 0 min 0,000 mm 0,0 UV-I 0 W/m 7,6 C 8,2 C 4,8 km/h (1 Bft) 100,00 %
12.05.2019 01:00 8,2 C 15,0 C 8,3 C 96 % 1015,6 hPa 0,0 l/m 4,0 km/h (1 Bft) S-SW 207 0 min 0,000 mm 0,0 UV-I 0 W/m 7,6 C 8,2 C 6,4 km/h (2 Bft) 97,87 %
12.05.2019 01:02 8,2 C 15,0 C 8,3 C 96 % 1015,6 hPa 0,0 l/m 3,8 km/h (1 Bft) S-SW 208 0 min 0,000 mm 0,0 UV-I 0 W/m 7,6 C 8,2 C 6,4 km/h (2 Bft) 95,74 %
12.05.2019 01:04 8,1 C 15,0 C 8,3 C 96 % 1015,7 hPa 0,0 l/m 3,3 km/h (1 Bft) S-SW 208 0 min 0,000 mm 0,0 UV-I 0 W/m 7,5 C 8,1 C 6,4 km/h (2 Bft) 95,74 %
12.05.2019 01:06 8,1 C 15,0 C 8,3 C 96 % 1015,7 hPa 0,0 l/m 4,6 km/h (1 Bft) S-SW 202 0 min 0,000 mm 0,0 UV-I 0 W/m 7,5 C 8,1 C 6,4 km/h (2 Bft) 97,87 %
12.05.2019 01:08 8,2 C 15,0 C 8,3 C 96 % 1015,7 hPa 0,0 l/m 4,4 km/h (1 Bft) SW 230 0 min 0,000 mm 0,0 UV-I 0 W/m 7,6 C 8,2 C 6,4 km/h (2 Bft) 97,87 %
12.05.2019 01:10 8,1 C 15,0 C 8,3 C 96 % 1015,7 hPa 0,0 l/m 5,4 km/h (1 Bft) SW 221 0 min 0,000 mm 0,0 UV-I 0 W/m 7,5 C 8,1 C 8,0 km/h (2 Bft) 97,87 %
12.05.2019 01:12 8,1 C 15,0 C 8,3 C 96 % 1015,7 hPa 0,0 l/m 5,6 km/h (1 Bft) S-SW 211 0 min 0,000 mm 0,0 UV-I 0 W/m 7,5 C 8,1 C 8,0 km/h (2 Bft) 98,00 %
12.05.2019 01:14 8,1 C 15,0 C 8,3 C 96 % 1015,7 hPa 0,0 l/m 7,5 km/h (2 Bft) SW 223 0 min 0,000 mm 0,0 UV-I 0 W/m 7,5 C 7,2 C 9,7 km/h (2 Bft) 97,87 %
12.05.2019 01:16 8,1 C 15,0 C 8,3 C 95 % 1015,8 hPa 0,0 l/m 6,9 km/h (2 Bft) SW 217 0 min 0,000 mm 0,0 UV-I 0 W/m 7,3 C 7,7 C 9,7 km/h (2 Bft) 95,74 %
12.05.2019 01:18 8,1 C 15,0 C 8,3 C 95 % 1015,8 hPa 0,0 l/m 5,2 km/h (1 Bft) S-SW 211 0 min 0,000 mm 0,0 UV-I 0 W/m 7,3 C 8,1 C 6,4 km/h (2 Bft) 95,74 %
12.05.2019 01:20 8,1 C 15,0 C 8,3 C 96 % 1015,8 hPa 0,0 l/m 4,2 km/h (1 Bft) SW 219 0 min 0,000 mm 0,0 UV-I 0 W/m 7,5 C 8,1 C 6,4 km/h (2 Bft) 95,74 %
12.05.2019 01:22 8,1 C 15,0 C 8,3 C 95 % 1015,9 hPa 0,0 l/m 4,6 km/h (1 Bft) S-SW 196 0 min 0,000 mm 0,0 UV-I 0 W/m 7,3 C 8,1 C 6,4 km/h (2 Bft) 97,87 %
12.05.2019 01:24 8,1 C 15,0 C 8,3 C 96 % 1015,9 hPa 0,0 l/m 4,3 km/h (1 Bft) S-SW 198 0 min 0,000 mm 0,0 UV-I 0 W/m 7,5 C 8,1 C 6,4 km/h (2 Bft) 93,62 %
12.05.2019 01:26 8,1 C 15,0 C 8,3 C 96 % 1015,9 hPa 0,0 l/m 3,1 km/h (1 Bft) S-SW 198 0 min 0,000 mm 0,0 UV-I 0 W/m 7,5 C 8,1 C 4,8 km/h (1 Bft) 97,92 %
12.05.2019 01:28 8,1 C 15,0 C 8,3 C 96 % 1015,9 hPa 0,0 l/m 4,3 km/h (1 Bft) S 185 0 min 0,000 mm 0,0 UV-I 0 W/m 7,5 C 8,1 C 6,4 km/h (2 Bft) 93,62 %
12.05.2019 01:30 8,1 C 15,0 C 8,3 C 96 % 1015,9 hPa 0,0 l/m 4,9 km/h (1 Bft) S-SO 167 0 min 0,000 mm 0,0 UV-I 0 W/m 7,5 C 8,1 C 8,0 km/h (2 Bft) 97,37 %
12.05.2019 01:32 8,1 C 15,0 C 8,3 C 96 % 1016,0 hPa 0,0 l/m 3,4 km/h (1 Bft) S 178 0 min 0,000 mm 0,0 UV-I 0 W/m 7,5 C 8,1 C 4,8 km/h (1 Bft) 96,00 %
12.05.2019 01:34 8,2 C 15,0 C 8,3 C 96 % 1016,0 hPa 0,0 l/m 4,0 km/h (1 Bft) S 178 0 min 0,000 mm 0,0 UV-I 0 W/m 7,6 C 8,2 C 6,4 km/h (2 Bft) 97,87 %
12.05.2019 01:36 8,2 C 15,0 C 8,3 C 96 % 1016,0 hPa 0,0 l/m 5,3 km/h (1 Bft) S-SO 168 0 min 0,000 mm 0,0 UV-I 0 W/m 7,6 C 8,2 C 6,4 km/h (2 Bft) 97,87 %
12.05.2019 01:38 8,2 C 15,0 C 8,3 C 96 % 1016,0 hPa 0,0 l/m 5,4 km/h (1 Bft) S 171 0 min 0,000 mm 0,0 UV-I 0 W/m 7,6 C 8,2 C 8,0 km/h (2 Bft) 95,74 %
12.05.2019 01:40 8,2 C 15,0 C 8,3 C 96 % 1016,0 hPa 0,0 l/m 4,5 km/h (1 Bft) S 185 0 min 0,000 mm 0,0 UV-I 0 W/m 7,6 C 8,2 C 6,4 km/h (2 Bft) 97,87 %
12.05.2019 01:42 8,2 C 15,0 C 8,3 C 96 % 1015,9 hPa 0,0 l/m 4,8 km/h (1 Bft) S 173 0 min 0,000 mm 0,0 UV-I 0 W/m 7,6 C 8,2 C 9,7 km/h (2 Bft) 98,00 %
12.05.2019 01:44 8,2 C 15,0 C 8,3 C 96 % 1015,9 hPa 0,0 l/m 4,0 km/h (1 Bft) S-SW 209 0 min 0,000 mm 0,0 UV-I 0 W/m 7,6 C 8,2 C 6,4 km/h (2 Bft) 97,87 %
12.05.2019 01:46 8,2 C 15,0 C 8,3 C 96 % 1015,9 hPa 0,0 l/m 2,6 km/h (1 Bft) S-SW 210 0 min 0,000 mm 0,0 UV-I 0 W/m 7,6 C 8,2 C 4,8 km/h (1 Bft) 100,00 %
12.05.2019 01:48 8,2 C 15,0 C 8,3 C 96 % 1015,8 hPa 0,0 l/m 3,3 km/h (1 Bft) S-SW 211 0 min 0,000 mm 0,0 UV-I 0 W/m 7,6 C 8,2 C 4,8 km/h (1 Bft) 97,87 %
12.05.2019 01:50 8,2 C 15,0 C 8,3 C 96 % 1015,9 hPa 0,0 l/m 2,6 km/h (1 Bft) S-SW 211 0 min 0,000 mm 0,0 UV-I 0 W/m 7,6 C 8,2 C 3,2 km/h (1 Bft) 95,74 %
12.05.2019 01:52 8,2 C 15,0 C 8,3 C 96 % 1015,8 hPa 0,0 l/m 2,7 km/h (1 Bft) S-SW 211 0 min 0,000 mm 0,0 UV-I 0 W/m 7,6 C 8,2 C 3,2 km/h (1 Bft) 93,62 %
12.05.2019 01:54 8,2 C 15,0 C 8,3 C 96 % 1015,8 hPa 0,0 l/m 3,6 km/h (1 Bft) S-SW 211 0 min 0,000 mm 0,0 UV-I 0 W/m 7,6 C 8,2 C 6,4 km/h (2 Bft) 93,62 %
12.05.2019 01:56 8,2 C 15,0 C 8,3 C 96 % 1015,9 hPa 0,2 l/m 3,2 km/h (1 Bft) S-SW 211 0 min 0,000 mm 0,0 UV-I 0 W/m 7,6 C 8,2 C 4,8 km/h (1 Bft) 95,74 %
12.05.2019 01:58 8,2 C 15,0 C 8,3 C 96 % 1015,8 hPa 0,0 l/m 3,6 km/h (1 Bft) S-SW 204 0 min 0,000 mm 0,0 UV-I 0 W/m 7,6 C 8,2 C 6,4 km/h (2 Bft) 93,62 %
12.05.2019 02:00 8,2 C 15,0 C 8,3 C 96 % 1015,8 hPa 0,0 l/m 3,7 km/h (1 Bft) S-SW 199 0 min 0,000 mm 0,0 UV-I 0 W/m 7,6 C 8,2 C 6,4 km/h (2 Bft) 95,74 %
12.05.2019 02:02 8,3 C 15,0 C 8,3 C 96 % 1015,8 hPa 0,0 l/m 3,0 km/h (1 Bft) S-SW 200 0 min 0,000 mm 0,0 UV-I 0 W/m 7,7 C 8,3 C 4,8 km/h (1 Bft) 93,62 %
12.05.2019 02:04 8,3 C 15,0 C 8,3 C 96 % 1015,8 hPa 0,0 l/m 4,2 km/h (1 Bft) SW 224 0 min 0,000 mm 0,0 UV-I 0 W/m 7,7 C 8,3 C 6,4 km/h (2 Bft) 97,22 %
12.05.2019 02:06 8,3 C 15,0 C 8,3 C 96 % 1015,8 hPa 0,0 l/m 5,2 km/h (1 Bft) W-SW 238 0 min 0,000 mm 0,0 UV-I 0 W/m 7,7 C 8,3 C 6,4 km/h (2 Bft) 94,00 %
12.05.2019 02:08 8,2 C 15,0 C 8,3 C 96 % 1015,6 hPa 0,0 l/m 6,7 km/h (2 Bft) W-SW 240 0 min 0,000 mm 0,0 UV-I 0 W/m 7,6 C 8,0 C 8,0 km/h (2 Bft) 91,49 %
12.05.2019 02:10 8,2 C 15,0 C 8,3 C 96 % 1015,6 hPa 0,0 l/m 4,5 km/h (1 Bft) W-SW 248 0 min 0,000 mm 0,0 UV-I 0 W/m 7,6 C 8,2 C 8,0 km/h (2 Bft) 95,74 %
12.05.2019 02:12 8,2 C 15,0 C 8,3 C 96 % 1015,5 hPa 0,0 l/m 4,3 km/h (1 Bft) W-SW 252 0 min 0,000 mm 0,0 UV-I 0 W/m 7,6 C 8,2 C 6,4 km/h (2 Bft) 95,74 %
12.05.2019 02:14 8,3 C 15,0 C 8,3 C 96 % 1015,5 hPa 0,0 l/m 4,4 km/h (1 Bft) W 261 0 min 0,000 mm 0,0 UV-I 0 W/m 7,7 C 8,3 C 6,4 km/h (2 Bft) 95,74 %
12.05.2019 02:16 8,3 C 15,0 C 8,3 C 96 % 1015,5 hPa 0,0 l/m 4,5 km/h (1 Bft) W 261 0 min 0,000 mm 0,0 UV-I 0 W/m 7,7 C 8,3 C 6,4 km/h (2 Bft) 95,74 %
12.05.2019 02:18 8,3 C 15,0 C 8,3 C 96 % 1015,5 hPa 0,0 l/m 5,0 km/h (1 Bft) W-SW 249 0 min 0,000 mm 0,0 UV-I 0 W/m 7,7 C 8,3 C 6,4 km/h (2 Bft) 98,00 %
12.05.2019 02:20 8,2 C 15,0 C 8,3 C 96 % 1015,5 hPa 0,0 l/m 4,3 km/h (1 Bft) W-SW 251 0 min 0,000 mm 0,0 UV-I 0 W/m 7,6 C 8,2 C 9,7 km/h (2 Bft) 97,87 %
12.05.2019 02:22 8,2 C 15,0 C 8,3 C 96 % 1015,5 hPa 0,0 l/m 6,1 km/h (2 Bft) W-SW 240 0 min 0,000 mm 0,0 UV-I 0 W/m 7,6 C 8,2 C 8,0 km/h (2 Bft) 93,62 %
12.05.2019 02:24 8,2 C 15,0 C 8,3 C 96 % 1015,5 hPa 0,0 l/m 5,8 km/h (2 Bft) W-SW 241 0 min 0,000 mm 0,0 UV-I 0 W/m 7,6 C 8,2 C 9,7 km/h (2 Bft) 95,74 %
12.05.2019 02:26 8,2 C 15,0 C 8,3 C 96 % 1015,5 hPa 0,0 l/m 5,8 km/h (2 Bft) W-SW 238 0 min 0,000 mm 0,0 UV-I 0 W/m 7,6 C 8,2 C 11,3 km/h (2 Bft) 96,00 %
12.05.2019 02:28 8,2 C 15,0 C 8,3 C 96 % 1015,5 hPa 0,0 l/m 4,9 km/h (1 Bft) SW 229 0 min 0,000 mm 0,0 UV-I 0 W/m 7,6 C 8,2 C 8,0 km/h (2 Bft) 95,74 %
12.05.2019 02:30 8,2 C 15,0 C 8,3 C 96 % 1015,5 hPa 0,0 l/m 5,6 km/h (1 Bft) SW 235 0 min 0,000 mm 0,0 UV-I 0 W/m 7,6 C 8,2 C 8,0 km/h (2 Bft) 97,87 %
12.05.2019 02:32 8,2 C 15,0 C 8,3 C 96 % 1015,5 hPa 0,0 l/m 5,2 km/h (1 Bft) S-SW 207 0 min 0,000 mm 0,0 UV-I 0 W/m 7,6 C 8,2 C 8,0 km/h (2 Bft) 97,14 %
12.05.2019 02:34 8,3 C 15,0 C 8,3 C 96 % 1015,5 hPa 0,0 l/m 5,7 km/h (1 Bft) SW 229 0 min 0,000 mm 0,0 UV-I 0 W/m 7,7 C 8,3 C 8,0 km/h (2 Bft) 98,11 %
12.05.2019 02:36 8,3 C 15,0 C 8,3 C 95 % 1015,5 hPa 0,0 l/m 7,7 km/h (2 Bft) W-SW 251 0 min 0,000 mm 0,0 UV-I 0 W/m 7,5 C 7,3 C 11,3 km/h (2 Bft) 97,87 %
12.05.2019 02:38 8,3 C 15,0 C 8,3 C 95 % 1015,4 hPa 0,0 l/m 6,4 km/h (2 Bft) W-SW 243 0 min 0,000 mm 0,0 UV-I 0 W/m 7,5 C 8,3 C 9,7 km/h (2 Bft) 97,87 %
12.05.2019 02:40 8,3 C 14,4 C 8,3 C 95 % 1015,4 hPa 0,0 l/m 8,7 km/h (2 Bft) W-SW 257 0 min 0,000 mm 0,0 UV-I 0 W/m 7,5 C 6,6 C 12,9 km/h (3 Bft) 95,83 %
12.05.2019 02:42 8,3 C 14,4 C 8,3 C 95 % 1015,4 hPa 0,0 l/m 7,0 km/h (2 Bft) W 278 0 min 0,000 mm 0,0 UV-I 0 W/m 7,5 C 7,8 C 12,9 km/h (3 Bft) 95,92 %
12.05.2019 02:44 8,3 C 15,0 C 8,3 C 95 % 1015,4 hPa 0,0 l/m 7,2 km/h (2 Bft) W-SW 252 0 min 0,000 mm 0,0 UV-I 0 W/m 7,5 C 7,7 C 12,9 km/h (3 Bft) 97,92 %
12.05.2019 02:46 8,3 C 14,4 C 8,3 C 95 % 1015,4 hPa 0,0 l/m 7,4 km/h (2 Bft) W 268 0 min 0,000 mm 0,0 UV-I 0 W/m 7,5 C 7,5 C 11,3 km/h (2 Bft) 97,37 %
12.05.2019 02:48 8,3 C 15,0 C 8,3 C 95 % 1015,4 hPa 0,0 l/m 8,4 km/h (2 Bft) W-SW 240 0 min 0,000 mm 0,0 UV-I 0 W/m 7,5 C 6,8 C 12,9 km/h (3 Bft) 97,14 %
12.05.2019 02:50 8,3 C 14,4 C 8,3 C 95 % 1015,3 hPa 0,0 l/m 8,6 km/h (2 Bft) W 262 0 min 0,000 mm 0,0 UV-I 0 W/m 7,5 C 6,6 C 12,9 km/h (3 Bft) 98,39 %
12.05.2019 02:52 8,3 C 15,0 C 8,3 C 95 % 1015,3 hPa 0,0 l/m 7,4 km/h (2 Bft) W-SW 254 0 min 0,000 mm 0,0 UV-I 0 W/m 7,5 C 7,5 C 11,3 km/h (2 Bft) 100,00 %
12.05.2019 02:54 8,3 C 14,4 C 8,3 C 95 % 1015,3 hPa 0,0 l/m 6,9 km/h (2 Bft) W 264 0 min 0,000 mm 0,0 UV-I 0 W/m 7,5 C 7,9 C 12,9 km/h (3 Bft) 100,00 %
12.05.2019 02:56 8,3 C 14,4 C 8,3 C 95 % 1015,4 hPa 0,0 l/m 6,9 km/h (2 Bft) SW 234 0 min 0,000 mm 0,0 UV-I 0 W/m 7,5 C 7,9 C 11,3 km/h (2 Bft) 100,00 %
12.05.2019 02:58 8,3 C 14,4 C 8,3 C 95 % 1015,4 hPa 0,0 l/m 10,0 km/h (2 Bft) W-SW 246 0 min 0,000 mm 0,0 UV-I 0 W/m 7,5 C 5,7 C 14,5 km/h (3 Bft) 100,00 %
12.05.2019 03:00 8,3 C 14,4 C 8,3 C 95 % 1015,4 hPa 0,0 l/m 11,9 km/h (2 Bft) SW 227 0 min 0,000 mm 0,0 UV-I 0 W/m 7,5 C 4,6 C 16,1 km/h (3 Bft) 100,00 %
12.05.2019 03:02 8,4 C 14,4 C 8,3 C 95 % 1015,4 hPa 0,0 l/m 12,7 km/h (3 Bft) W-SW 248 0 min 0,000 mm 0,0 UV-I 0 W/m 7,6 C 4,3 C 17,7 km/h (3 Bft) 95,74 %
12.05.2019 03:04 8,4 C 14,4 C 8,3 C 95 % 1015,4 hPa 0,0 l/m 9,1 km/h (2 Bft) W-SW 246 0 min 0,000 mm 0,0 UV-I 0 W/m 7,6 C 6,4 C 16,1 km/h (3 Bft) 97,87 %
12.05.2019 03:06 8,4 C 14,4 C 8,3 C 94 % 1015,4 hPa 0,0 l/m 11,0 km/h (2 Bft) W-SW 248 0 min 0,000 mm 0,0 UV-I 0 W/m 7,5 C 5,2 C 16,1 km/h (3 Bft) 97,87 %
12.05.2019 03:08 8,3 C 14,4 C 8,3 C 94 % 1015,4 hPa 0,0 l/m 11,6 km/h (2 Bft) SW 233 0 min 0,000 mm 0,0 UV-I 0 W/m 7,4 C 4,8 C 16,1 km/h (3 Bft) 97,87 %
12.05.2019 03:10 8,4 C 14,4 C 8,3 C 94 % 1015,4 hPa 0,0 l/m 12,3 km/h (3 Bft) SW 231 0 min 0,000 mm 0,0 UV-I 0 W/m 7,5 C 4,5 C 17,7 km/h (3 Bft) 95,74 %
12.05.2019 03:12 8,4 C 14,4 C 8,3 C 94 % 1015,4 hPa 0,0 l/m 12,1 km/h (2 Bft) W 266 0 min 0,000 mm 0,0 UV-I 0 W/m 7,5 C 4,6 C 16,1 km/h (3 Bft) 97,87 %
12.05.2019 03:14 8,4 C 14,4 C 8,3 C 94 % 1015,4 hPa 0,0 l/m 11,0 km/h (2 Bft) SW 236 0 min 0,000 mm 0,0 UV-I 0 W/m 7,5 C 5,2 C 16,1 km/h (3 Bft) 97,87 %
12.05.2019 03:16 8,4 C 14,4 C 8,3 C 94 % 1015,5 hPa 0,0 l/m 10,5 km/h (2 Bft) W-SW 239 0 min 0,000 mm 0,0 UV-I 0 W/m 7,5 C 5,5 C 17,7 km/h (3 Bft) 96,00 %
12.05.2019 03:18 8,3 C 14,4 C 8,3 C 94 % 1015,5 hPa 0,0 l/m 12,2 km/h (2 Bft) W-SW 240 0 min 0,000 mm 0,0 UV-I 0 W/m 7,4 C 4,4 C 17,7 km/h (3 Bft) 94,00 %
12.05.2019 03:20 8,4 C 14,4 C 8,3 C 94 % 1015,5 hPa 0,0 l/m 13,2 km/h (3 Bft) SW 234 0 min 0,000 mm 0,0 UV-I 0 W/m 7,5 C 4,0 C 17,7 km/h (3 Bft) 95,83 %
12.05.2019 03:22 8,4 C 14,4 C 8,3 C 94 % 1015,5 hPa 0,0 l/m 11,2 km/h (2 Bft) SW 231 0 min 0,000 mm 0,0 UV-I 0 W/m 7,5 C 5,1 C 17,7 km/h (3 Bft) 95,74 %
12.05.2019 03:24 8,4 C 14,4 C 8,3 C 94 % 1015,5 hPa 0,0 l/m 11,4 km/h (2 Bft) SW 228 0 min 0,000 mm 0,0 UV-I 0 W/m 7,5 C 5,0 C 17,7 km/h (3 Bft) 95,74 %
12.05.2019 03:26 8,4 C 14,4 C 8,3 C 94 % 1015,6 hPa 0,0 l/m 10,0 km/h (2 Bft) W-SW 247 0 min 0,000 mm 0,0 UV-I 0 W/m 7,5 C 5,8 C 14,5 km/h (3 Bft) 91,49 %
12.05.2019 03:28 8,4 C 14,4 C 8,3 C 94 % 1015,6 hPa 0,0 l/m 12,8 km/h (3 Bft) W-SW 240 0 min 0,000 mm 0,0 UV-I 0 W/m 7,5 C 4,3 C 20,9 km/h (4 Bft) 94,29 %
12.05.2019 03:30 8,4 C 14,4 C 8,3 C 94 % 1015,6 hPa 0,0 l/m 11,0 km/h (2 Bft) SW 236 0 min 0,000 mm 0,0 UV-I 0 W/m 7,5 C 5,2 C 16,1 km/h (3 Bft) 93,62 %
12.05.2019 03:32 8,4 C 14,4 C 8,3 C 94 % 1015,6 hPa 0,0 l/m 10,5 km/h (2 Bft) W-SW 251 0 min 0,000 mm 0,0 UV-I 0 W/m 7,5 C 5,5 C 16,1 km/h (3 Bft) 94,00 %
12.05.2019 03:34 8,4 C 14,4 C 8,3 C 94 % 1015,7 hPa 0,0 l/m 10,5 km/h (2 Bft) W-SW 245 0 min 0,000 mm 0,0 UV-I 0 W/m 7,5 C 5,5 C 16,1 km/h (3 Bft) 94,34 %
12.05.2019 03:36 8,4 C 14,4 C 8,3 C 94 % 1015,7 hPa 0,0 l/m 11,5 km/h (2 Bft) W-SW 256 0 min 0,000 mm 0,0 UV-I 0 W/m 7,5 C 4,9 C 20,9 km/h (4 Bft) 95,74 %
12.05.2019 03:38 8,4 C 14,4 C 8,3 C 94 % 1015,7 hPa 0,0 l/m 16,1 km/h (3 Bft) W-SW 248 0 min 0,000 mm 0,0 UV-I 0 W/m 7,5 C 2,7 C 22,5 km/h (4 Bft) 95,74 %
12.05.2019 03:40 8,4 C 14,4 C 8,3 C 94 % 1015,8 hPa 0,0 l/m 12,8 km/h (3 Bft) W-SW 241 0 min 0,000 mm 0,0 UV-I 0 W/m 7,5 C 4,3 C 19,3 km/h (3 Bft) 97,87 %
12.05.2019 03:42 8,4 C 14,4 C 8,3 C 93 % 1015,7 hPa 0,0 l/m 11,1 km/h (2 Bft) W-SW 244 0 min 0,000 mm 0,0 UV-I 0 W/m 7,3 C 5,2 C 16,1 km/h (3 Bft) 97,87 %
12.05.2019 03:44 8,4 C 14,4 C 8,3 C 93 % 1015,7 hPa 0,0 l/m 10,6 km/h (2 Bft) W 261 0 min 0,000 mm 0,0 UV-I 0 W/m 7,3 C 5,5 C 17,7 km/h (3 Bft) 95,74 %
12.05.2019 03:47 8,4 C 14,4 C 8,3 C 93 % 1015,7 hPa 0,0 l/m 11,5 km/h (2 Bft) W-SW 245 0 min 0,000 mm 0,0 UV-I 0 W/m 7,3 C 4,9 C 16,1 km/h (3 Bft) 98,59 %
12.05.2019 03:48 8,4 C 14,4 C 8,3 C 93 % 1015,7 hPa 0,0 l/m 8,5 km/h (2 Bft) W 264 0 min 0,000 mm 0,0 UV-I 0 W/m 7,3 C 6,8 C 12,9 km/h (3 Bft) 100,00 %
12.05.2019 03:50 8,4 C 14,4 C 8,3 C 93 % 1015,7 hPa 0,0 l/m 10,4 km/h (2 Bft) W-SW 237 0 min 0,000 mm 0,0 UV-I 0 W/m 7,3 C 5,6 C 16,1 km/h (3 Bft) 97,87 %
12.05.2019 03:52 8,4 C 14,4 C 8,3 C 93 % 1015,8 hPa 0,0 l/m 11,7 km/h (2 Bft) W 265 0 min 0,000 mm 0,0 UV-I 0 W/m 7,3 C 4,8 C 16,1 km/h (3 Bft) 100,00 %
12.05.2019 03:55 8,5 C 14,4 C 8,3 C 93 % 1015,7 hPa 0,0 l/m 9,3 km/h (2 Bft) W 273 0 min 0,000 mm 0,0 UV-I 0 W/m 7,4 C 6,4 C 14,5 km/h (3 Bft) 100,00 %
12.05.2019 03:56 8,5 C 14,4 C 8,3 C 93 % 1015,6 hPa 0,0 l/m 8,4 km/h (2 Bft) W 269 0 min 0,000 mm 0,0 UV-I 0 W/m 7,4 C 7,0 C 12,9 km/h (3 Bft) 95,83 %
12.05.2019 03:58 8,5 C 14,4 C 8,3 C 93 % 1015,7 hPa 0,0 l/m 8,0 km/h (2 Bft) W 274 0 min 0,000 mm 0,0 UV-I 0 W/m 7,4 C 7,3 C 14,5 km/h (3 Bft) 97,87 %
12.05.2019 04:00 8,4 C 14,4 C 8,3 C 93 % 1015,7 hPa 0,0 l/m 8,8 km/h (2 Bft) W-SW 240 0 min 0,000 mm 0,0 UV-I 0 W/m 7,3 C 6,6 C 14,5 km/h (3 Bft) 97,87 %
12.05.2019 04:02 8,4 C 14,4 C 8,3 C 93 % 1015,8 hPa 0,0 l/m 9,1 km/h (2 Bft) W 267 0 min 0,000 mm 0,0 UV-I 0 W/m 7,3 C 6,4 C 14,5 km/h (3 Bft) 96,88 %
12.05.2019 04:04 8,4 C 14,4 C 8,3 C 93 % 1015,8 hPa 0,0 l/m 9,3 km/h (2 Bft) W 259 0 min 0,000 mm 0,0 UV-I 0 W/m 7,3 C 6,3 C 14,5 km/h (3 Bft) 97,92 %
12.05.2019 04:06 8,5 C 14,4 C 8,3 C 93 % 1015,8 hPa 0,0 l/m 7,6 km/h (2 Bft) W-SW 253 0 min 0,000 mm 0,0 UV-I 0 W/m 7,4 C 7,6 C 11,3 km/h (2 Bft) 97,87 %
12.05.2019 04:08 8,4 C 14,4 C 8,3 C 93 % 1015,9 hPa 0,0 l/m 9,5 km/h (2 Bft) SW 221 0 min 0,000 mm 0,0 UV-I 0 W/m 7,3 C 6,1 C 14,5 km/h (3 Bft) 98,00 %
12.05.2019 04:11 8,5 C 14,4 C 8,3 C 93 % 1015,9 hPa 0,0 l/m 10,4 km/h (2 Bft) W-SW 240 0 min 0,000 mm 0,0 UV-I 0 W/m 7,4 C 5,7 C 14,5 km/h (3 Bft) 100,00 %
12.05.2019 04:12 8,5 C 14,4 C 8,3 C 93 % 1015,9 hPa 0,0 l/m 9,8 km/h (2 Bft) SW 224 0 min 0,000 mm 0,0 UV-I 0 W/m 7,4 C 6,1 C 14,5 km/h (3 Bft) 100,00 %
12.05.2019 04:14 8,5 C 14,4 C 8,3 C 93 % 1015,9 hPa 0,0 l/m 11,5 km/h (2 Bft) SW 223 0 min 0,000 mm 0,0 UV-I 0 W/m 7,4 C 5,1 C 16,1 km/h (3 Bft) 97,87 %
12.05.2019 04:16 8,5 C 14,4 C 8,3 C 93 % 1015,9 hPa 0,0 l/m 11,0 km/h (2 Bft) W 259 0 min 0,000 mm 0,0 UV-I 0 W/m 7,4 C 5,3 C 14,5 km/h (3 Bft) 100,00 %
12.05.2019 04:18 8,5 C 14,4 C 8,3 C 93 % 1016,0 hPa 0,0 l/m 10,6 km/h (2 Bft) W-SW 249 0 min 0,000 mm 0,0 UV-I 0 W/m 7,4 C 5,6 C 19,3 km/h (3 Bft) 96,00 %
12.05.2019 04:20 8,5 C 14,4 C 8,3 C 93 % 1016,0 hPa 0,0 l/m 14,0 km/h (3 Bft) W-SW 243 0 min 0,000 mm 0,0 UV-I 0 W/m 7,4 C 3,8 C 19,3 km/h (3 Bft) 100,00 %
12.05.2019 04:22 8,5 C 14,4 C 8,3 C 92 % 1016,1 hPa 0,0 l/m 15,9 km/h (3 Bft) W-SW 242 0 min 0,000 mm 0,0 UV-I 0 W/m 7,3 C 2,9 C 22,5 km/h (4 Bft) 100,00 %
12.05.2019 04:24 8,6 C 14,4 C 8,3 C 92 % 1016,0 hPa 0,0 l/m 14,5 km/h (3 Bft) W-SW 255 0 min 0,000 mm 0,0 UV-I 0 W/m 7,4 C 3,7 C 24,1 km/h (4 Bft) 97,87 %
12.05.2019 04:26 8,6 C 14,4 C 8,3 C 92 % 1016,0 hPa 0,0 l/m 12,9 km/h (3 Bft) W 264 0 min 0,000 mm 0,0 UV-I 0 W/m 7,4 C 4,4 C 17,7 km/h (3 Bft) 100,00 %
12.05.2019 04:28 8,6 C 14,4 C 8,3 C 92 % 1016,0 hPa 0,0 l/m 15,4 km/h (3 Bft) W 265 0 min 0,000 mm 0,0 UV-I 0 W/m 7,4 C 3,3 C 22,5 km/h (4 Bft) 97,83 %
12.05.2019 04:30 8,6 C 14,4 C 8,3 C 92 % 1016,0 hPa 0,0 l/m 13,1 km/h (3 Bft) W-SW 250 0 min 0,000 mm 0,0 UV-I 0 W/m 7,4 C 4,3 C 16,1 km/h (3 Bft) 100,00 %
12.05.2019 04:32 8,6 C 14,4 C 8,3 C 92 % 1016,0 hPa 0,0 l/m 13,0 km/h (3 Bft) W-SW 251 0 min 0,000 mm 0,0 UV-I 0 W/m 7,4 C 4,4 C 19,3 km/h (3 Bft) 100,00 %
12.05.2019 04:34 8,6 C 14,4 C 8,3 C 92 % 1016,0 hPa 0,0 l/m 14,0 km/h (3 Bft) W-SW 240 0 min 0,000 mm 0,0 UV-I 0 W/m 7,4 C 3,9 C 20,9 km/h (4 Bft) 100,00 %
12.05.2019 04:36 8,6 C 14,4 C 8,3 C 92 % 1016,1 hPa 0,0 l/m 12,8 km/h (3 Bft) W-SW 239 0 min 0,000 mm 0,0 UV-I 0 W/m 7,4 C 4,5 C 19,3 km/h (3 Bft) 100,00 %
12.05.2019 04:38 8,6 C 14,4 C 8,3 C 92 % 1016,1 hPa 0,0 l/m 12,9 km/h (3 Bft) S-SW 200 0 min 0,000 mm 0,0 UV-I 0 W/m 7,4 C 4,4 C 19,3 km/h (3 Bft) 97,87 %
12.05.2019 04:40 8,5 C 14,4 C 8,3 C 92 % 1016,1 hPa 0,0 l/m 12,5 km/h (3 Bft) W 265 0 min 0,000 mm 0,0 UV-I 0 W/m 7,3 C 4,5 C 19,3 km/h (3 Bft) 95,74 %
12.05.2019 04:42 8,5 C 14,4 C 8,3 C 92 % 1016,1 hPa 0,0 l/m 9,3 km/h (2 Bft) W-SW 244 0 min 0,000 mm 0,0 UV-I 0 W/m 7,3 C 6,4 C 12,9 km/h (3 Bft) 93,62 %
12.05.2019 04:44 8,5 C 14,4 C 8,3 C 92 % 1016,1 hPa 0,0 l/m 10,2 km/h (2 Bft) W-SW 244 0 min 0,000 mm 0,0 UV-I 0 W/m 7,3 C 5,8 C 16,1 km/h (3 Bft) 95,74 %
12.05.2019 04:46 8,5 C 14,4 C 8,3 C 92 % 1016,1 hPa 0,0 l/m 9,0 km/h (2 Bft) W 265 0 min 0,000 mm 0,0 UV-I 0 W/m 7,3 C 6,6 C 14,5 km/h (3 Bft) 98,00 %
12.05.2019 04:48 8,5 C 14,4 C 8,3 C 92 % 1016,2 hPa 0,0 l/m 7,8 km/h (2 Bft) W 266 0 min 0,000 mm 0,0 UV-I 0 W/m 7,3 C 7,4 C 12,9 km/h (3 Bft) 97,87 %
12.05.2019 04:50 8,5 C 14,4 C 8,3 C 92 % 1016,2 hPa 0,0 l/m 13,2 km/h (3 Bft) SW 229 0 min 0,000 mm 0,0 UV-I 0 W/m 7,3 C 4,2 C 19,3 km/h (3 Bft) 97,14 %
12.05.2019 04:52 8,6 C 14,4 C 8,3 C 92 % 1016,2 hPa 0,0 l/m 11,2 km/h (2 Bft) W-SW 255 0 min 0,000 mm 0,0 UV-I 0 W/m 7,4 C 5,3 C 16,1 km/h (3 Bft) 98,00 %
12.05.2019 04:54 8,6 C 14,4 C 8,3 C 92 % 1016,2 hPa 0,0 l/m 10,7 km/h (2 Bft) W-SW 244 0 min 0,000 mm 0,0 UV-I 0 W/m 7,4 C 5,6 C 16,1 km/h (3 Bft) 97,87 %
12.05.2019 04:56 8,6 C 14,4 C 8,3 C 92 % 1016,2 hPa 0,0 l/m 9,0 km/h (2 Bft) SW 225 0 min 0,000 mm 0,0 UV-I 0 W/m 7,4 C 6,7 C 14,5 km/h (3 Bft) 97,87 %
12.05.2019 04:58 8,6 C 14,4 C 8,3 C 92 % 1016,2 hPa 0,0 l/m 7,9 km/h (2 Bft) W-SW 254 0 min 0,000 mm 0,0 UV-I 0 W/m 7,4 C 7,5 C 14,5 km/h (3 Bft) 93,62 %
12.05.2019 05:00 8,6 C 14,4 C 8,3 C 92 % 1016,2 hPa 0,0 l/m 6,7 km/h (2 Bft) W-SW 250 0 min 0,000 mm 0,0 UV-I 0 W/m 7,4 C 8,4 C 11,3 km/h (2 Bft) 97,87 %
12.05.2019 05:02 8,5 C 14,4 C 8,3 C 92 % 1016,2 hPa 0,0 l/m 7,2 km/h (2 Bft) SW 230 0 min 0,000 mm 0,0 UV-I 0 W/m 7,3 C 7,9 C 11,3 km/h (2 Bft) 95,74 %
12.05.2019 05:04 8,5 C 14,4 C 8,3 C 93 % 1016,2 hPa 0,0 l/m 10,0 km/h (2 Bft) SW 236 0 min 0,000 mm 0,0 UV-I 0 W/m 7,4 C 5,9 C 17,7 km/h (3 Bft) 100,00 %
12.05.2019 05:06 8,5 C 14,4 C 8,3 C 93 % 1016,2 hPa 0,0 l/m 9,9 km/h (2 Bft) W-SW 246 0 min 0,000 mm 0,0 UV-I 0 W/m 7,4 C 6,0 C 14,5 km/h (3 Bft) 97,87 %
12.05.2019 05:08 8,4 C 14,4 C 8,3 C 93 % 1016,2 hPa 0,0 l/m 7,5 km/h (2 Bft) W-SW 240 0 min 0,000 mm 0,0 UV-I 0 W/m 7,3 C 7,5 C 14,5 km/h (3 Bft) 93,62 %
12.05.2019 05:10 8,4 C 14,4 C 8,3 C 93 % 1016,2 hPa 0,0 l/m 9,5 km/h (2 Bft) W 259 0 min 0,000 mm 0,0 UV-I 0 W/m 7,3 C 6,1 C 16,1 km/h (3 Bft) 93,62 %
12.05.2019 05:12 8,4 C 14,4 C 8,3 C 93 % 1016,3 hPa 0,0 l/m 11,7 km/h (2 Bft) SW 225 0 min 0,000 mm 0,0 UV-I 0 W/m 7,3 C 4,8 C 17,7 km/h (3 Bft) 97,87 %
12.05.2019 05:14 8,4 C 14,4 C 8,3 C 93 % 1016,3 hPa 0,0 l/m 13,4 km/h (3 Bft) W-SW 246 0 min 0,000 mm 0,0 UV-I 0 W/m 7,3 C 3,9 C 19,3 km/h (3 Bft) 97,92 %
12.05.2019 05:16 8,4 C 14,4 C 8,3 C 93 % 1016,3 hPa 0,0 l/m 9,4 km/h (2 Bft) W-SW 249 0 min 0,000 mm 0,0 UV-I 0 W/m 7,3 C 6,2 C 14,5 km/h (3 Bft) 97,37 %
12.05.2019 05:18 8,4 C 14,4 C 8,3 C 92 % 1016,4 hPa 0,0 l/m 12,7 km/h (3 Bft) W-SW 242 0 min 0,000 mm 0,0 UV-I 0 W/m 7,2 C 4,3 C 17,7 km/h (3 Bft) 93,62 %
12.05.2019 05:20 8,4 C 14,4 C 8,3 C 93 % 1016,4 hPa 0,0 l/m 12,7 km/h (3 Bft) W 277 0 min 0,000 mm 0,0 UV-I 0 W/m 7,3 C 4,3 C 22,5 km/h (4 Bft) 95,74 %
12.05.2019 05:22 8,4 C 14,4 C 8,3 C 92 % 1016,4 hPa 0,0 l/m 13,3 km/h (3 Bft) W-SW 252 0 min 0,000 mm 0,0 UV-I 0 W/m 7,2 C 4,0 C 20,9 km/h (4 Bft) 95,74 %
12.05.2019 05:24 8,4 C 14,4 C 8,3 C 92 % 1016,5 hPa 0,0 l/m 13,8 km/h (3 Bft) W-SW 247 0 min 0,000 mm 0,0 UV-I 0 W/m 7,2 C 3,8 C 20,9 km/h (4 Bft) 97,87 %
12.05.2019 05:26 8,4 C 14,4 C 8,3 C 93 % 1016,6 hPa 0,0 l/m 14,2 km/h (3 Bft) SW 232 0 min 0,000 mm 0,0 UV-I 0 W/m 7,3 C 3,6 C 20,9 km/h (4 Bft) 96,00 %
12.05.2019 05:28 8,4 C 14,4 C 8,3 C 93 % 1016,6 hPa 0,0 l/m 11,5 km/h (2 Bft) W 265 0 min 0,000 mm 0,0 UV-I 0 W/m 7,3 C 4,9 C 16,1 km/h (3 Bft) 93,62 %
12.05.2019 05:30 8,4 C 14,4 C 8,3 C 93 % 1016,7 hPa 0,0 l/m 11,3 km/h (2 Bft) W-SW 250 0 min 0,000 mm 0,0 UV-I 0 W/m 7,3 C 5,1 C 17,7 km/h (3 Bft) 95,74 %
12.05.2019 05:32 8,4 C 14,4 C 8,3 C 93 % 1016,8 hPa 0,0 l/m 9,5 km/h (2 Bft) W-SW 254 0 min 0,000 mm 0,0 UV-I 0 W/m 7,3 C 6,1 C 16,1 km/h (3 Bft) 95,74 %
12.05.2019 05:34 8,3 C 14,4 C 8,3 C 93 % 1016,8 hPa 0,0 l/m 12,3 km/h (3 Bft) W 269 0 min 0,000 mm 0,0 UV-I 0 W/m 7,2 C 4,4 C 19,3 km/h (3 Bft) 97,87 %
12.05.2019 05:36 8,3 C 14,4 C 8,3 C 93 % 1016,9 hPa 0,0 l/m 11,3 km/h (2 Bft) W-SW 248 0 min 0,000 mm 0,0 UV-I 0 W/m 7,2 C 4,9 C 17,7 km/h (3 Bft) 95,74 %
12.05.2019 05:38 8,3 C 14,4 C 8,3 C 93 % 1016,9 hPa 0,2 l/m 15,3 km/h (3 Bft) W-SW 243 0 min 0,000 mm 0,0 UV-I 0 W/m 7,2 C 2,9 C 25,7 km/h (4 Bft) 98,00 %
12.05.2019 05:40 8,3 C 14,4 C 7,8 C 93 % 1016,9 hPa 0,0 l/m 12,2 km/h (2 Bft) W-SW 254 0 min 0,000 mm 0,0 UV-I 0 W/m 7,2 C 4,4 C 17,7 km/h (3 Bft) 97,87 %
12.05.2019 05:42 8,3 C 14,4 C 7,8 C 93 % 1017,0 hPa 0,0 l/m 11,8 km/h (2 Bft) SW 231 0 min 0,000 mm 0,0 UV-I 0 W/m 7,2 C 4,7 C 16,1 km/h (3 Bft) 95,74 %
12.05.2019 05:44 8,3 C 14,4 C 7,8 C 93 % 1017,0 hPa 0,0 l/m 11,4 km/h (2 Bft) SW 219 0 min 0,000 mm 0,0 UV-I 0 W/m 7,2 C 4,9 C 19,3 km/h (3 Bft) 95,74 %
12.05.2019 05:46 8,2 C 14,4 C 7,8 C 93 % 1017,1 hPa 0,0 l/m 13,5 km/h (3 Bft) W-SW 242 0 min 0,000 mm 0,0 UV-I 0 W/m 7,1 C 3,7 C 20,9 km/h (4 Bft) 97,44 %
12.05.2019 05:48 8,2 C 14,4 C 7,8 C 93 % 1017,1 hPa 0,2 l/m 14,0 km/h (3 Bft) W-SW 241 0 min 0,000 mm 0,0 UV-I 5 W/m 7,1 C 3,4 C 22,5 km/h (4 Bft) 97,87 %
12.05.2019 05:50 8,2 C 14,4 C 7,8 C 93 % 1017,1 hPa 0,0 l/m 13,1 km/h (3 Bft) S-SW 207 0 min 0,000 mm 0,0 UV-I 5 W/m 7,1 C 3,9 C 19,3 km/h (3 Bft) 97,87 %
12.05.2019 05:52 8,2 C 14,4 C 7,8 C 93 % 1017,1 hPa 0,2 l/m 13,6 km/h (3 Bft) W-SW 246 0 min 0,000 mm 0,0 UV-I 5 W/m 7,1 C 3,6 C 20,9 km/h (4 Bft) 95,74 %
12.05.2019 05:54 8,2 C 14,4 C 7,8 C 94 % 1017,2 hPa 0,0 l/m 12,7 km/h (3 Bft) SW 232 0 min 0,000 mm 0,0 UV-I 5 W/m 7,3 C 4,1 C 17,7 km/h (3 Bft) 97,87 %
12.05.2019 05:56 8,2 C 14,4 C 7,8 C 94 % 1017,2 hPa 0,2 l/m 14,8 km/h (3 Bft) W-SW 250 0 min 0,000 mm 0,0 UV-I 7 W/m 7,3 C 3,0 C 22,5 km/h (4 Bft) 97,87 %
12.05.2019 05:58 8,1 C 14,4 C 7,8 C 94 % 1017,2 hPa 0,0 l/m 14,1 km/h (3 Bft) W-SW 257 0 min 0,000 mm 0,0 UV-I 7 W/m 7,2 C 3,3 C 19,3 km/h (3 Bft) 97,87 %
12.05.2019 06:00 8,1 C 14,4 C 7,8 C 94 % 1017,2 hPa 0,2 l/m 12,3 km/h (3 Bft) SW 236 0 min 0,000 mm 0,0 UV-I 7 W/m 7,2 C 4,2 C 19,3 km/h (3 Bft) 97,87 %
12.05.2019 06:02 8,1 C 14,4 C 7,8 C 94 % 1017,2 hPa 0,0 l/m 13,3 km/h (3 Bft) SW 233 0 min 0,000 mm 0,0 UV-I 7 W/m 7,2 C 3,6 C 20,9 km/h (4 Bft) 93,62 %
12.05.2019 06:04 8,1 C 14,4 C 7,8 C 94 % 1017,3 hPa 0,0 l/m 13,3 km/h (3 Bft) W-SW 245 0 min 0,000 mm 0,0 UV-I 7 W/m 7,2 C 3,6 C 19,3 km/h (3 Bft) 96,00 %
12.05.2019 06:06 8,1 C 14,4 C 7,8 C 94 % 1017,3 hPa 0,2 l/m 13,0 km/h (3 Bft) S-SW 202 0 min 0,000 mm 0,0 UV-I 7 W/m 7,2 C 3,8 C 22,5 km/h (4 Bft) 94,74 %
12.05.2019 06:08 8,1 C 14,4 C 7,8 C 94 % 1017,4 hPa 0,0 l/m 12,1 km/h (2 Bft) W-SW 241 0 min 0,000 mm 0,0 UV-I 8 W/m 7,2 C 4,3 C 17,7 km/h (3 Bft) 96,00 %
12.05.2019 06:10 8,1 C 14,4 C 7,8 C 94 % 1017,3 hPa 0,0 l/m 14,5 km/h (3 Bft) W-SW 239 0 min 0,000 mm 0,0 UV-I 9 W/m 7,2 C 3,1 C 20,9 km/h (4 Bft) 93,62 %
12.05.2019 06:12 8,0 C 14,4 C 7,8 C 94 % 1017,3 hPa 0,2 l/m 12,4 km/h (3 Bft) SW 221 0 min 0,000 mm 0,0 UV-I 9 W/m 7,1 C 4,0 C 22,5 km/h (4 Bft) 96,00 %
12.05.2019 06:14 8,0 C 14,4 C 7,8 C 94 % 1017,4 hPa 0,0 l/m 15,6 km/h (3 Bft) W-SW 246 0 min 0,000 mm 0,0 UV-I 9 W/m 7,1 C 2,4 C 24,1 km/h (4 Bft) 95,74 %
12.05.2019 06:16 8,0 C 14,4 C 7,8 C 94 % 1017,3 hPa 0,0 l/m 13,7 km/h (3 Bft) W-SW 249 0 min 0,000 mm 0,0 UV-I 9 W/m 7,1 C 3,3 C 17,7 km/h (3 Bft) 96,00 %
12.05.2019 06:18 8,0 C 14,4 C 7,8 C 95 % 1017,3 hPa 0,0 l/m 14,5 km/h (3 Bft) SW 234 0 min 0,000 mm 0,0 UV-I 10 W/m 7,2 C 2,9 C 24,1 km/h (4 Bft) 95,74 %
12.05.2019 06:20 8,0 C 14,4 C 7,8 C 95 % 1017,4 hPa 0,0 l/m 13,8 km/h (3 Bft) W-SW 240 0 min 0,000 mm 0,0 UV-I 11 W/m 7,2 C 3,3 C 19,3 km/h (3 Bft) 93,62 %
12.05.2019 06:22 7,9 C 14,4 C 7,8 C 95 % 1017,4 hPa 0,0 l/m 12,4 km/h (3 Bft) W-SW 248 0 min 0,000 mm 0,0 UV-I 12 W/m 7,1 C 3,9 C 20,9 km/h (4 Bft) 93,62 %
12.05.2019 06:24 7,9 C 14,4 C 7,8 C 95 % 1017,4 hPa 0,2 l/m 12,0 km/h (2 Bft) W-SW 249 0 min 0,000 mm 0,0 UV-I 13 W/m 7,1 C 4,1 C 19,3 km/h (3 Bft) 97,87 %
12.05.2019 06:26 7,9 C 14,4 C 7,8 C 95 % 1017,4 hPa 0,0 l/m 13,0 km/h (3 Bft) W-SW 238 0 min 0,000 mm 0,0 UV-I 14 W/m 7,1 C 3,6 C 19,3 km/h (3 Bft) 95,74 %
12.05.2019 06:28 7,9 C 14,4 C 7,8 C 95 % 1017,5 hPa 0,0 l/m 11,1 km/h (2 Bft) W 278 0 min 0,000 mm 0,0 UV-I 15 W/m 7,1 C 4,6 C 17,7 km/h (3 Bft) 97,92 %
12.05.2019 06:30 7,9 C 14,4 C 7,8 C 95 % 1017,5 hPa 0,2 l/m 13,3 km/h (3 Bft) W-SW 237 0 min 0,000 mm 0,0 UV-I 17 W/m 7,1 C 3,4 C 20,9 km/h (4 Bft) 95,74 %
12.05.2019 06:32 7,9 C 14,4 C 7,8 C 95 % 1017,6 hPa 0,0 l/m 13,0 km/h (3 Bft) SW 233 0 min 0,000 mm 0,0 UV-I 19 W/m 7,1 C 3,6 C 19,3 km/h (3 Bft) 97,87 %
12.05.2019 06:34 7,9 C 14,4 C 7,8 C 95 % 1017,6 hPa 0,0 l/m 13,3 km/h (3 Bft) W-SW 244 0 min 0,000 mm 0,0 UV-I 21 W/m 7,1 C 3,4 C 19,3 km/h (3 Bft) 97,87 %
12.05.2019 06:36 7,9 C 14,4 C 7,8 C 95 % 1017,5 hPa 0,2 l/m 12,0 km/h (2 Bft) SW 233 0 min 0,000 mm 0,0 UV-I 24 W/m 7,1 C 4,1 C 17,7 km/h (3 Bft) 97,37 %
12.05.2019 06:38 7,9 C 14,4 C 7,8 C 95 % 1017,6 hPa 0,0 l/m 15,8 km/h (3 Bft) W-SW 239 0 min 0,000 mm 0,0 UV-I 25 W/m 7,1 C 2,2 C 19,3 km/h (3 Bft) 97,87 %
12.05.2019 06:40 7,9 C 14,4 C 7,8 C 95 % 1017,6 hPa 0,0 l/m 16,5 km/h (3 Bft) W 275 0 min 0,000 mm 0,0 UV-I 27 W/m 7,1 C 1,9 C 22,5 km/h (4 Bft) 95,74 %
12.05.2019 06:42 7,9 C 14,4 C 7,8 C 95 % 1017,7 hPa 0,0 l/m 10,5 km/h (2 Bft) W 267 0 min 0,000 mm 0,0 UV-I 29 W/m 7,1 C 5,0 C 17,7 km/h (3 Bft) 91,49 %
12.05.2019 06:44 7,9 C 14,4 C 7,8 C 95 % 1017,7 hPa 0,2 l/m 16,3 km/h (3 Bft) SW 236 0 min 0,000 mm 0,0 UV-I 31 W/m 7,1 C 2,0 C 22,5 km/h (4 Bft) 94,00 %
12.05.2019 06:46 7,9 C 14,4 C 7,8 C 95 % 1017,7 hPa 0,0 l/m 14,1 km/h (3 Bft) SW 235 0 min 0,000 mm 0,0 UV-I 33 W/m 7,1 C 3,0 C 20,9 km/h (4 Bft) 95,74 %
12.05.2019 06:48 7,9 C 14,4 C 7,8 C 95 % 1017,7 hPa 0,0 l/m 11,7 km/h (2 Bft) W-SW 242 0 min 0,000 mm 0,0 UV-I 36 W/m 7,1 C 4,3 C 19,3 km/h (3 Bft) 98,00 %
12.05.2019 06:50 7,9 C 14,4 C 7,8 C 95 % 1017,8 hPa 0,2 l/m 11,2 km/h (2 Bft) W-SW 237 0 min 0,000 mm 0,0 UV-I 39 W/m 7,1 C 4,5 C 20,9 km/h (4 Bft) 100,00 %
12.05.2019 06:52 7,9 C 14,4 C 8,3 C 95 % 1017,8 hPa 0,0 l/m 15,3 km/h (3 Bft) SW 230 0 min 0,000 mm 0,0 UV-I 40 W/m 7,1 C 2,5 C 24,1 km/h (4 Bft) 100,00 %
12.05.2019 06:54 7,9 C 14,4 C 8,3 C 95 % 1017,8 hPa 0,0 l/m 17,6 km/h (3 Bft) S-SW 211 0 min 0,000 mm 0,0 UV-I 40 W/m 7,1 C 1,5 C 25,7 km/h (4 Bft) 100,00 %
12.05.2019 06:56 7,9 C 14,4 C 8,3 C 95 % 1017,8 hPa 0,0 l/m 13,7 km/h (3 Bft) W-SW 243 0 min 0,000 mm 0,0 UV-I 40 W/m 7,1 C 3,2 C 20,9 km/h (4 Bft) 98,00 %
12.05.2019 06:58 7,9 C 14,4 C 8,3 C 95 % 1017,9 hPa 0,2 l/m 17,2 km/h (3 Bft) SW 236 0 min 0,000 mm 0,0 UV-I 39 W/m 7,1 C 1,6 C 27,4 km/h (4 Bft) 100,00 %
12.05.2019 07:00 7,9 C 14,4 C 8,3 C 95 % 1017,9 hPa 0,0 l/m 16,0 km/h (3 Bft) W 277 0 min 0,000 mm 0,0 UV-I 39 W/m 7,1 C 2,1 C 24,1 km/h (4 Bft) 100,00 %
12.05.2019 07:02 7,9 C 14,4 C 8,3 C 95 % 1018,0 hPa 0,0 l/m 14,5 km/h (3 Bft) W-SW 246 0 min 0,025 mm 0,0 UV-I 39 W/m 7,1 C 2,8 C 20,9 km/h (4 Bft) 96,00 %
12.05.2019 07:04 7,9 C 14,4 C 7,8 C 95 % 1017,9 hPa 0,0 l/m 18,6 km/h (3 Bft) W-SW 244 0 min 0,000 mm 0,0 UV-I 40 W/m 7,1 C 1,1 C 25,7 km/h (4 Bft) 100,00 %
12.05.2019 07:06 7,9 C 14,4 C 7,8 C 95 % 1018,0 hPa 0,2 l/m 20,6 km/h (4 Bft) W-SW 240 0 min 0,000 mm 0,0 UV-I 41 W/m 7,1 C 0,4 C 27,4 km/h (4 Bft) 97,87 %
12.05.2019 07:08 7,9 C 14,4 C 8,3 C 95 % 1018,0 hPa 0,0 l/m 18,2 km/h (3 Bft) SW 234 0 min 0,000 mm 0,0 UV-I 44 W/m 7,1 C 1,2 C 27,4 km/h (4 Bft) 100,00 %
12.05.2019 07:10 7,9 C 14,4 C 8,3 C 95 % 1018,0 hPa 0,0 l/m 13,1 km/h (3 Bft) SW 231 0 min 0,000 mm 0,0 UV-I 46 W/m 7,1 C 3,5 C 19,3 km/h (3 Bft) 95,74 %
12.05.2019 07:12 7,9 C 14,4 C 8,3 C 95 % 1018,2 hPa 0,0 l/m 13,1 km/h (3 Bft) W-SW 240 0 min 0,000 mm 0,0 UV-I 49 W/m 7,1 C 3,5 C 19,3 km/h (3 Bft) 97,96 %
12.05.2019 07:14 7,9 C 14,4 C 8,3 C 95 % 1018,2 hPa 0,2 l/m 13,9 km/h (3 Bft) SW 222 0 min 0,000 mm 0,0 UV-I 51 W/m 7,1 C 3,1 C 19,3 km/h (3 Bft) 95,74 %
12.05.2019 07:16 7,9 C 14,4 C 8,3 C 95 % 1018,2 hPa 0,0 l/m 18,3 km/h (3 Bft) SW 234 0 min 0,000 mm 0,0 UV-I 54 W/m 7,1 C 1,2 C 27,4 km/h (4 Bft) 95,74 %
12.05.2019 07:18 7,9 C 14,4 C 8,3 C 95 % 1018,2 hPa 0,0 l/m 18,3 km/h (3 Bft) SW 230 0 min 0,000 mm 0,0 UV-I 56 W/m 7,1 C 1,2 C 25,7 km/h (4 Bft) 95,74 %
12.05.2019 07:20 7,9 C 14,4 C 8,3 C 95 % 1018,2 hPa 0,0 l/m 14,4 km/h (3 Bft) S-SW 211 0 min 0,000 mm 0,0 UV-I 59 W/m 7,1 C 2,9 C 20,9 km/h (4 Bft) 93,62 %
12.05.2019 07:22 7,9 C 14,4 C 8,3 C 95 % 1018,2 hPa 0,2 l/m 16,0 km/h (3 Bft) W-SW 242 0 min 0,000 mm 0,0 UV-I 59 W/m 7,1 C 2,1 C 22,5 km/h (4 Bft) 97,87 %
12.05.2019 07:24 7,9 C 14,4 C 8,3 C 95 % 1018,3 hPa 0,0 l/m 15,3 km/h (3 Bft) W-SW 257 0 min 0,000 mm 0,0 UV-I 56 W/m 7,1 C 2,5 C 22,5 km/h (4 Bft) 89,36 %
12.05.2019 07:26 7,9 C 14,4 C 8,3 C 95 % 1018,3 hPa 0,0 l/m 15,9 km/h (3 Bft) W-SW 237 0 min 0,000 mm 0,0 UV-I 54 W/m 7,1 C 2,2 C 29,0 km/h (5 Bft) 91,43 %
12.05.2019 07:28 7,9 C 14,4 C 8,3 C 95 % 1018,3 hPa 0,0 l/m 19,1 km/h (3 Bft) W-SW 242 0 min 0,000 mm 0,0 UV-I 51 W/m 7,1 C 0,9 C 29,0 km/h (5 Bft) 96,08 %
12.05.2019 07:30 7,9 C 14,4 C 8,3 C 95 % 1018,3 hPa 0,2 l/m 17,3 km/h (3 Bft) W 269 0 min 0,000 mm 0,0 UV-I 47 W/m 7,1 C 1,6 C 22,5 km/h (4 Bft) 92,00 %
12.05.2019 07:32 7,9 C 14,4 C 8,3 C 95 % 1018,3 hPa 0,0 l/m 15,8 km/h (3 Bft) W-SW 254 0 min 0,000 mm 0,0 UV-I 44 W/m 7,1 C 2,2 C 20,9 km/h (4 Bft) 94,00 %
12.05.2019 07:34 7,9 C 14,4 C 8,3 C 95 % 1018,4 hPa 0,0 l/m 13,6 km/h (3 Bft) SW 234 0 min 0,000 mm 0,0 UV-I 42 W/m 7,1 C 3,3 C 24,1 km/h (4 Bft) 95,74 %
12.05.2019 07:36 7,9 C 14,4 C 8,3 C 95 % 1018,4 hPa 0,0 l/m 13,9 km/h (3 Bft) W-SW 244 0 min 0,000 mm 0,0 UV-I 39 W/m 7,1 C 3,1 C 20,9 km/h (4 Bft) 89,36 %
12.05.2019 07:38 7,9 C 14,4 C 8,3 C 95 % 1018,4 hPa 0,0 l/m 12,9 km/h (3 Bft) W 265 0 min 0,000 mm 0,0 UV-I 34 W/m 7,1 C 3,6 C 20,9 km/h (4 Bft) 97,22 %
12.05.2019 07:40 7,9 C 14,4 C 8,3 C 95 % 1018,4 hPa 0,0 l/m 13,3 km/h (3 Bft) W-SW 252 0 min 0,000 mm 0,0 UV-I 32 W/m 7,1 C 3,4 C 16,1 km/h (3 Bft) 94,00 %
12.05.2019 07:42 7,9 C 14,4 C 8,3 C 95 % 1018,4 hPa 0,2 l/m 13,4 km/h (3 Bft) W-NW 288 0 min 0,000 mm 0,0 UV-I 35 W/m 7,1 C 3,4 C 17,7 km/h (3 Bft) 95,74 %
12.05.2019 07:44 7,9 C 14,4 C 8,3 C 95 % 1018,5 hPa 0,0 l/m 13,0 km/h (3 Bft) W 265 0 min 0,000 mm 0,0 UV-I 39 W/m 7,1 C 3,6 C 20,9 km/h (4 Bft) 93,62 %
12.05.2019 07:46 7,9 C 14,4 C 8,3 C 95 % 1018,5 hPa 0,0 l/m 12,0 km/h (2 Bft) W-SW 253 0 min 0,000 mm 0,0 UV-I 40 W/m 7,1 C 4,1 C 17,7 km/h (3 Bft) 100,00 %
12.05.2019 07:48 7,9 C 14,4 C 8,3 C 95 % 1018,5 hPa 0,2 l/m 14,5 km/h (3 Bft) W 274 0 min 0,000 mm 0,0 UV-I 42 W/m 7,1 C 2,8 C 22,5 km/h (4 Bft) 97,87 %
12.05.2019 07:50 7,9 C 14,4 C 8,3 C 95 % 1018,5 hPa 0,0 l/m 13,3 km/h (3 Bft) W-SW 238 0 min 0,000 mm 0,0 UV-I 42 W/m 7,1 C 3,4 C 17,7 km/h (3 Bft) 95,74 %
12.05.2019 07:52 7,9 C 14,4 C 8,3 C 95 % 1018,6 hPa 0,0 l/m 12,9 km/h (3 Bft) W-SW 242 0 min 0,000 mm 0,0 UV-I 42 W/m 7,1 C 3,6 C 19,3 km/h (3 Bft) 97,87 %
12.05.2019 07:54 7,9 C 14,4 C 8,3 C 95 % 1018,6 hPa 0,0 l/m 15,0 km/h (3 Bft) SW 219 0 min 0,000 mm 0,0 UV-I 42 W/m 7,1 C 2,6 C 24,1 km/h (4 Bft) 97,87 %
12.05.2019 07:56 7,9 C 14,4 C 8,3 C 95 % 1018,6 hPa 0,2 l/m 13,4 km/h (3 Bft) W-SW 237 0 min 0,000 mm 0,0 UV-I 41 W/m 7,1 C 3,4 C 22,5 km/h (4 Bft) 100,00 %
12.05.2019 07:58 7,9 C 14,4 C 8,3 C 95 % 1018,6 hPa 0,0 l/m 14,9 km/h (3 Bft) W-SW 249 0 min 0,000 mm 0,0 UV-I 40 W/m 7,1 C 2,6 C 22,5 km/h (4 Bft) 100,00 %
12.05.2019 08:00 7,9 C 14,4 C 8,3 C 95 % 1018,7 hPa 0,2 l/m 13,1 km/h (3 Bft) SW 230 0 min 0,026 mm 0,0 UV-I 47 W/m 7,1 C 3,5 C 17,7 km/h (3 Bft) 97,87 %
12.05.2019 08:02 7,9 C 14,4 C 8,3 C 95 % 1018,7 hPa 0,0 l/m 12,9 km/h (3 Bft) SW 217 0 min 0,000 mm 0,0 UV-I 52 W/m 7,1 C 3,6 C 19,3 km/h (3 Bft) 98,00 %
12.05.2019 08:04 7,9 C 14,4 C 8,3 C 95 % 1018,7 hPa 0,0 l/m 16,5 km/h (3 Bft) W-SW 240 0 min 0,000 mm 0,0 UV-I 54 W/m 7,1 C 1,9 C 24,1 km/h (4 Bft) 100,00 %
12.05.2019 08:06 7,9 C 14,4 C 8,3 C 95 % 1018,7 hPa 0,2 l/m 14,7 km/h (3 Bft) SW 227 0 min 0,000 mm 0,0 UV-I 58 W/m 7,1 C 2,7 C 24,1 km/h (4 Bft) 100,00 %
12.05.2019 08:08 8,0 C 14,4 C 8,3 C 95 % 1018,7 hPa 0,0 l/m 14,0 km/h (3 Bft) W-SW 238 0 min 0,000 mm 0,0 UV-I 58 W/m 7,2 C 3,2 C 22,5 km/h (4 Bft) 100,00 %
12.05.2019 08:10 7,9 C 14,4 C 8,3 C 95 % 1018,7 hPa 0,2 l/m 15,0 km/h (3 Bft) SW 235 0 min 0,000 mm 0,0 UV-I 62 W/m 7,1 C 2,6 C 22,5 km/h (4 Bft) 100,00 %
12.05.2019 08:12 7,9 C 14,4 C 8,3 C 95 % 1018,7 hPa 0,0 l/m 13,9 km/h (3 Bft) W-SW 257 0 min 0,000 mm 0,0 UV-I 63 W/m 7,1 C 3,1 C 24,1 km/h (4 Bft) 100,00 %
12.05.2019 08:14 7,9 C 14,4 C 8,3 C 95 % 1018,8 hPa 0,0 l/m 18,9 km/h (3 Bft) SW 224 0 min 0,000 mm 0,0 UV-I 62 W/m 7,1 C 1,0 C 29,0 km/h (5 Bft) 100,00 %
12.05.2019 08:16 7,9 C 14,4 C 8,3 C 95 % 1018,8 hPa 0,2 l/m 17,9 km/h (3 Bft) W 265 0 min 0,000 mm 0,0 UV-I 59 W/m 7,1 C 1,4 C 29,0 km/h (5 Bft) 100,00 %
12.05.2019 08:18 7,9 C 14,4 C 8,3 C 95 % 1018,9 hPa 0,0 l/m 13,7 km/h (3 Bft) W 268 0 min 0,000 mm 0,0 UV-I 64 W/m 7,1 C 3,2 C 20,9 km/h (4 Bft) 100,00 %
12.05.2019 08:20 7,9 C 14,4 C 8,3 C 95 % 1018,8 hPa 0,2 l/m 17,0 km/h (3 Bft) W-NW 288 0 min 0,000 mm 0,0 UV-I 69 W/m 7,1 C 1,7 C 25,7 km/h (4 Bft) 100,00 %
12.05.2019 08:22 7,9 C 14,4 C 8,3 C 95 % 1018,9 hPa 0,0 l/m 18,2 km/h (3 Bft) W 266 0 min 0,000 mm 0,0 UV-I 73 W/m 7,1 C 1,2 C 30,6 km/h (5 Bft) 100,00 %
12.05.2019 08:24 7,9 C 14,4 C 8,3 C 95 % 1018,9 hPa 0,0 l/m 17,6 km/h (3 Bft) SW 221 0 min 0,000 mm 0,0 UV-I 74 W/m 7,1 C 1,5 C 24,1 km/h (4 Bft) 97,14 %
12.05.2019 08:26 7,9 C 14,4 C 8,3 C 95 % 1019,0 hPa 0,2 l/m 17,5 km/h (3 Bft) W 265 0 min 0,000 mm 0,0 UV-I 81 W/m 7,1 C 1,5 C 24,1 km/h (4 Bft) 100,00 %
12.05.2019 08:28 7,9 C 14,4 C 8,3 C 95 % 1018,9 hPa 0,0 l/m 15,1 km/h (3 Bft) W-NW 285 0 min 0,000 mm 0,0 UV-I 88 W/m 7,1 C 2,5 C 25,7 km/h (4 Bft) 100,00 %
12.05.2019 08:30 8,0 C 14,4 C 8,3 C 95 % 1018,9 hPa 0,2 l/m 18,5 km/h (3 Bft) W-SW 238 0 min 0,000 mm 0,0 UV-I 91 W/m 7,2 C 1,3 C 25,7 km/h (4 Bft) 100,00 %
12.05.2019 08:32 8,0 C 14,4 C 8,3 C 95 % 1019,0 hPa 0,0 l/m 18,8 km/h (3 Bft) SW 230 0 min 0,000 mm 0,0 UV-I 96 W/m 7,2 C 1,1 C 25,7 km/h (4 Bft) 100,00 %
12.05.2019 08:34 8,1 C 14,4 C 8,3 C 95 % 1019,0 hPa 0,2 l/m 16,4 km/h (3 Bft) W 279 0 min 0,000 mm 0,0 UV-I 98 W/m 7,3 C 2,2 C 25,7 km/h (4 Bft) 97,87 %
12.05.2019 08:36 8,1 C 14,4 C 8,9 C 95 % 1019,0 hPa 0,0 l/m 15,8 km/h (3 Bft) SW 218 0 min 0,000 mm 0,0 UV-I 99 W/m 7,3 C 2,5 C 24,1 km/h (4 Bft) 100,00 %
12.05.2019 08:38 8,1 C 14,4 C 8,9 C 95 % 1019,0 hPa 0,0 l/m 18,5 km/h (3 Bft) W-SW 257 0 min 0,000 mm 0,0 UV-I 103 W/m 7,3 C 1,4 C 27,4 km/h (4 Bft) 100,00 %
12.05.2019 08:40 8,1 C 14,4 C 8,9 C 95 % 1019,0 hPa 0,0 l/m 19,5 km/h (3 Bft) W-SW 256 0 min 0,000 mm 0,0 UV-I 104 W/m 7,3 C 1,0 C 27,4 km/h (4 Bft) 100,00 %
12.05.2019 08:42 8,1 C 14,4 C 8,9 C 95 % 1019,0 hPa 0,2 l/m 20,9 km/h (4 Bft) W-SW 253 0 min 0,000 mm 0,0 UV-I 104 W/m 7,3 C 0,5 C 32,2 km/h (5 Bft) 100,00 %
12.05.2019 08:44 8,1 C 14,4 C 8,9 C 95 % 1019,1 hPa 0,0 l/m 18,4 km/h (3 Bft) W-SW 237 0 min 0,000 mm 0,0 UV-I 104 W/m 7,3 C 1,4 C 29,0 km/h (5 Bft) 100,00 %
12.05.2019 08:46 8,1 C 14,4 C 8,9 C 95 % 1019,2 hPa 0,0 l/m 19,8 km/h (3 Bft) W 267 0 min 0,000 mm 0,0 UV-I 102 W/m 7,3 C 0,9 C 35,4 km/h (5 Bft) 97,37 %
12.05.2019 08:48 8,1 C 14,4 C 8,9 C 95 % 1019,1 hPa 0,2 l/m 19,3 km/h (3 Bft) W-SW 248 0 min 0,000 mm 0,0 UV-I 102 W/m 7,3 C 1,1 C 38,6 km/h (5 Bft) 95,74 %
12.05.2019 08:50 8,1 C 14,4 C 8,9 C 94 % 1019,2 hPa 0,0 l/m 18,8 km/h (3 Bft) W 262 0 min 0,000 mm 0,0 UV-I 108 W/m 7,2 C 1,3 C 30,6 km/h (5 Bft) 97,87 %
12.05.2019 08:52 8,1 C 14,4 C 8,9 C 94 % 1019,2 hPa 0,0 l/m 18,1 km/h (3 Bft) W-SW 243 0 min 0,000 mm 0,4 UV-I 119 W/m 7,2 C 1,5 C 27,4 km/h (4 Bft) 95,83 %
12.05.2019 08:54 8,1 C 14,4 C 8,9 C 94 % 1019,2 hPa 0,0 l/m 14,0 km/h (3 Bft) W-SW 254 0 min 0,000 mm 0,5 UV-I 121 W/m 7,2 C 3,3 C 20,9 km/h (4 Bft) 95,74 %
12.05.2019 08:56 8,1 C 14,4 C 8,9 C 95 % 1019,2 hPa 0,2 l/m 16,5 km/h (3 Bft) S-SW 207 0 min 0,000 mm 0,5 UV-I 125 W/m 7,3 C 2,2 C 22,5 km/h (4 Bft) 96,15 %
12.05.2019 08:58 8,2 C 14,4 C 8,9 C 94 % 1019,3 hPa 0,0 l/m 18,4 km/h (3 Bft) W-SW 240 0 min 0,000 mm 0,5 UV-I 120 W/m 7,3 C 1,5 C 29,0 km/h (5 Bft) 97,92 %
12.05.2019 09:00 8,2 C 14,4 C 8,9 C 94 % 1019,3 hPa 0,0 l/m 18,4 km/h (3 Bft) W-SW 252 0 min 0,051 mm 0,5 UV-I 111 W/m 7,3 C 1,5 C 29,0 km/h (5 Bft) 95,74 %
12.05.2019 09:02 8,1 C 14,4 C 8,9 C 94 % 1019,3 hPa 0,2 l/m 19,5 km/h (3 Bft) W-SW 237 0 min 0,000 mm 0,5 UV-I 110 W/m 7,2 C 1,0 C 29,0 km/h (5 Bft) 97,87 %
12.05.2019 09:04 8,1 C 14,4 C 8,9 C 94 % 1019,3 hPa 0,0 l/m 18,0 km/h (3 Bft) W 266 0 min 0,000 mm 0,5 UV-I 113 W/m 7,2 C 1,6 C 24,1 km/h (4 Bft) 97,87 %
12.05.2019 09:06 8,1 C 14,4 C 8,9 C 94 % 1019,4 hPa 0,2 l/m 12,4 km/h (3 Bft) W-SW 254 0 min 0,000 mm 0,5 UV-I 109 W/m 7,2 C 4,1 C 20,9 km/h (4 Bft) 97,87 %
12.05.2019 09:08 8,1 C 14,4 C 8,3 C 94 % 1019,4 hPa 0,0 l/m 18,9 km/h (3 Bft) W-SW 258 0 min 0,000 mm 0,5 UV-I 103 W/m 7,2 C 1,2 C 29,0 km/h (5 Bft) 97,87 %
12.05.2019 09:10 8,1 C 14,4 C 8,3 C 94 % 1019,5 hPa 0,0 l/m 14,3 km/h (3 Bft) W 264 0 min 0,000 mm 0,5 UV-I 98 W/m 7,2 C 3,2 C 25,7 km/h (4 Bft) 100,00 %
12.05.2019 09:12 8,1 C 14,4 C 8,9 C 94 % 1019,4 hPa 0,2 l/m 23,7 km/h (4 Bft) W-SW 252 0 min 0,000 mm 0,5 UV-I 106 W/m 7,2 C -0,4 C 33,8 km/h (5 Bft) 95,74 %
12.05.2019 09:14 8,1 C 14,4 C 8,9 C 94 % 1019,4 hPa 0,0 l/m 16,8 km/h (3 Bft) W-SW 257 0 min 0,000 mm 0,5 UV-I 112 W/m 7,2 C 2,1 C 29,0 km/h (5 Bft) 97,14 %
12.05.2019 09:16 8,1 C 14,4 C 8,9 C 94 % 1019,5 hPa 0,0 l/m 14,3 km/h (3 Bft) W-SW 254 0 min 0,000 mm 0,5 UV-I 121 W/m 7,2 C 3,2 C 20,9 km/h (4 Bft) 97,87 %
12.05.2019 09:18 8,1 C 14,4 C 8,9 C 94 % 1019,5 hPa 0,2 l/m 18,4 km/h (3 Bft) W 274 0 min 0,000 mm 0,6 UV-I 123 W/m 7,2 C 1,4 C 25,7 km/h (4 Bft) 95,74 %
12.05.2019 09:20 8,1 C 14,4 C 8,9 C 94 % 1019,5 hPa 0,0 l/m 17,0 km/h (3 Bft) SW 231 0 min 0,000 mm 0,5 UV-I 120 W/m 7,2 C 2,0 C 25,7 km/h (4 Bft) 95,74 %
12.05.2019 09:22 8,1 C 14,4 C 8,9 C 94 % 1019,6 hPa 0,0 l/m 19,4 km/h (3 Bft) W-NW 282 0 min 0,000 mm 0,5 UV-I 115 W/m 7,2 C 1,0 C 25,7 km/h (4 Bft) 97,87 %
12.05.2019 09:24 8,1 C 14,4 C 8,9 C 94 % 1019,6 hPa 0,0 l/m 20,7 km/h (4 Bft) W 259 0 min 0,000 mm 0,5 UV-I 119 W/m 7,2 C 0,6 C 30,6 km/h (5 Bft) 95,74 %
12.05.2019 09:26 8,1 C 14,4 C 8,9 C 94 % 1019,6 hPa 0,2 l/m 21,5 km/h (4 Bft) W-SW 244 0 min 0,000 mm 0,6 UV-I 127 W/m 7,2 C 0,3 C 30,6 km/h (5 Bft) 95,74 %
12.05.2019 09:28 8,1 C 14,4 C 8,9 C 94 % 1019,7 hPa 0,0 l/m 20,4 km/h (4 Bft) SW 227 0 min 0,000 mm 0,6 UV-I 135 W/m 7,2 C 0,7 C 29,0 km/h (5 Bft) 97,87 %
12.05.2019 09:30 8,1 C 14,4 C 8,9 C 94 % 1019,7 hPa 0,0 l/m 21,7 km/h (4 Bft) W-SW 243 0 min 0,000 mm 0,7 UV-I 140 W/m 7,2 C 0,3 C 29,0 km/h (5 Bft) 98,00 %
12.05.2019 09:32 8,1 C 14,4 C 8,9 C 94 % 1019,7 hPa 0,0 l/m 23,4 km/h (4 Bft) W-SW 238 0 min 0,000 mm 0,6 UV-I 136 W/m 7,2 C -0,3 C 35,4 km/h (5 Bft) 95,83 %
12.05.2019 09:34 8,1 C 14,4 C 8,9 C 94 % 1019,7 hPa 0,0 l/m 21,9 km/h (4 Bft) W-SW 240 0 min 0,000 mm 0,6 UV-I 135 W/m 7,2 C 0,2 C 33,8 km/h (5 Bft) 95,74 %
12.05.2019 09:36 8,1 C 14,4 C 8,9 C 94 % 1019,8 hPa 0,0 l/m 22,0 km/h (4 Bft) W-SW 247 0 min 0,000 mm 0,6 UV-I 132 W/m 7,2 C 0,2 C 32,2 km/h (5 Bft) 97,87 %
12.05.2019 09:38 8,2 C 14,4 C 8,9 C 93 % 1019,8 hPa 0,0 l/m 17,9 km/h (3 Bft) W-SW 243 0 min 0,000 mm 0,6 UV-I 128 W/m 7,1 C 1,7 C 22,5 km/h (4 Bft) 95,74 %
12.05.2019 09:40 8,2 C 14,4 C 8,9 C 93 % 1019,8 hPa 0,2 l/m 21,8 km/h (4 Bft) SW 227 0 min 0,000 mm 0,6 UV-I 140 W/m 7,1 C 0,4 C 30,6 km/h (5 Bft) 97,87 %
12.05.2019 09:42 8,2 C 14,4 C 9,4 C 93 % 1019,8 hPa 0,0 l/m 16,7 km/h (3 Bft) W-SW 241 0 min 0,000 mm 0,8 UV-I 168 W/m 7,1 C 2,2 C 32,2 km/h (5 Bft) 98,00 %
12.05.2019 09:44 8,2 C 14,4 C 9,4 C 93 % 1019,7 hPa 0,0 l/m 19,7 km/h (3 Bft) W 263 0 min 0,000 mm 0,9 UV-I 183 W/m 7,1 C 1,1 C 29,0 km/h (5 Bft) 95,74 %
12.05.2019 09:46 8,2 C 14,4 C 9,4 C 93 % 1019,8 hPa 0,0 l/m 20,4 km/h (4 Bft) W 274 0 min 0,000 mm 0,9 UV-I 190 W/m 7,1 C 0,8 C 32,2 km/h (5 Bft) 95,74 %
12.05.2019 09:48 8,2 C 14,4 C 9,4 C 93 % 1019,7 hPa 0,0 l/m 22,1 km/h (4 Bft) W 259 0 min 0,000 mm 1,0 UV-I 197 W/m 7,1 C 0,3 C 32,2 km/h (5 Bft) 97,37 %
12.05.2019 09:50 8,2 C 14,4 C 9,4 C 93 % 1019,8 hPa 0,0 l/m 21,7 km/h (4 Bft) W-SW 250 0 min 0,000 mm 0,9 UV-I 187 W/m 7,1 C 0,4 C 30,6 km/h (5 Bft) 98,00 %
12.05.2019 09:52 8,2 C 14,4 C 9,4 C 93 % 1019,9 hPa 0,2 l/m 16,8 km/h (3 Bft) S-SW 200 0 min 0,000 mm 0,8 UV-I 166 W/m 7,1 C 2,2 C 38,6 km/h (5 Bft) 95,74 %
12.05.2019 09:54 8,2 C 14,4 C 9,4 C 93 % 1019,9 hPa 0,0 l/m 21,3 km/h (4 Bft) W 263 0 min 0,000 mm 0,8 UV-I 158 W/m 7,1 C 0,5 C 35,4 km/h (5 Bft) 95,74 %
12.05.2019 09:56 8,2 C 14,4 C 9,4 C 93 % 1020,0 hPa 0,0 l/m 15,2 km/h (3 Bft) W-SW 248 0 min 0,000 mm 0,7 UV-I 143 W/m 7,1 C 2,9 C 20,9 km/h (4 Bft) 97,87 %
12.05.2019 09:58 8,2 C 14,4 C 9,4 C 93 % 1020,0 hPa 0,0 l/m 23,8 km/h (4 Bft) W-SW 257 0 min 0,000 mm 0,7 UV-I 136 W/m 7,1 C -0,3 C 32,2 km/h (5 Bft) 93,62 %
12.05.2019 10:00 8,2 C 14,4 C 8,9 C 93 % 1020,0 hPa 0,0 l/m 21,2 km/h (4 Bft) SW 230 0 min 0,076 mm 0,7 UV-I 139 W/m 7,1 C 0,6 C 35,4 km/h (5 Bft) 97,87 %
12.05.2019 10:02 8,2 C 14,4 C 9,4 C 93 % 1020,0 hPa 0,0 l/m 17,2 km/h (3 Bft) SW 219 0 min 0,000 mm 0,7 UV-I 145 W/m 7,1 C 2,0 C 24,1 km/h (4 Bft) 97,87 %
12.05.2019 10:04 8,2 C 14,4 C 8,9 C 93 % 1020,0 hPa 0,2 l/m 21,3 km/h (4 Bft) W-SW 247 0 min 0,000 mm 0,8 UV-I 161 W/m 7,1 C 0,5 C 27,4 km/h (4 Bft) 96,00 %
12.05.2019 10:06 8,2 C 14,4 C 9,4 C 93 % 1020,1 hPa 0,0 l/m 17,8 km/h (3 Bft) SW 230 0 min 0,000 mm 0,8 UV-I 154 W/m 7,1 C 1,8 C 29,0 km/h (5 Bft) 97,87 %
12.05.2019 10:08 8,2 C 14,4 C 9,4 C 93 % 1020,1 hPa 0,0 l/m 19,7 km/h (3 Bft) W-SW 253 0 min 0,000 mm 0,7 UV-I 144 W/m 7,1 C 1,1 C 27,4 km/h (4 Bft) 94,87 %
12.05.2019 10:10 8,2 C 14,4 C 9,4 C 93 % 1020,1 hPa 0,0 l/m 15,3 km/h (3 Bft) W-SW 257 0 min 0,000 mm 0,7 UV-I 127 W/m 7,1 C 2,8 C 22,5 km/h (4 Bft) 94,00 %
12.05.2019 10:12 8,3 C 14,4 C 8,9 C 93 % 1020,2 hPa 0,0 l/m 15,8 km/h (3 Bft) W-SW 251 0 min 0,000 mm 0,5 UV-I 103 W/m 7,2 C 2,7 C 20,9 km/h (4 Bft) 95,74 %
12.05.2019 10:14 8,3 C 14,4 C 8,9 C 93 % 1020,2 hPa 0,0 l/m 15,2 km/h (3 Bft) W 265 0 min 0,000 mm 0,5 UV-I 98 W/m 7,2 C 3,0 C 22,5 km/h (4 Bft) 95,74 %
12.05.2019 10:16 8,3 C 14,4 C 8,9 C 93 % 1020,2 hPa 0,0 l/m 11,2 km/h (2 Bft) W-SW 250 0 min 0,000 mm 0,5 UV-I 99 W/m 7,2 C 5,0 C 17,7 km/h (3 Bft) 94,29 %
12.05.2019 10:18 8,3 C 14,4 C 9,4 C 93 % 1020,2 hPa 0,0 l/m 11,8 km/h (2 Bft) W 266 0 min 0,000 mm 0,5 UV-I 101 W/m 7,2 C 4,7 C 20,9 km/h (4 Bft) 94,64 %
12.05.2019 10:20 8,3 C 14,4 C 9,4 C 93 % 1020,3 hPa 0,0 l/m 17,2 km/h (3 Bft) W-SW 240 0 min 0,000 mm 0,6 UV-I 109 W/m 7,2 C 2,1 C 27,4 km/h (4 Bft) 95,74 %
12.05.2019 10:22 8,3 C 14,4 C 9,4 C 93 % 1020,2 hPa 0,0 l/m 12,5 km/h (3 Bft) W-SW 251 0 min 0,000 mm 0,6 UV-I 114 W/m 7,2 C 4,3 C 19,3 km/h (3 Bft) 91,49 %
12.05.2019 10:24 8,3 C 14,4 C 9,4 C 94 % 1020,3 hPa 0,0 l/m 14,7 km/h (3 Bft) W-SW 245 0 min 0,000 mm 0,6 UV-I 108 W/m 7,4 C 3,2 C 24,1 km/h (4 Bft) 96,00 %
12.05.2019 10:26 8,3 C 14,4 C 9,4 C 93 % 1020,3 hPa 0,0 l/m 18,5 km/h (3 Bft) W-SW 239 0 min 0,000 mm 0,6 UV-I 104 W/m 7,2 C 1,6 C 27,4 km/h (4 Bft) 93,62 %
12.05.2019 10:28 8,2 C 14,4 C 8,9 C 93 % 1020,3 hPa 0,0 l/m 15,8 km/h (3 Bft) SW 235 0 min 0,000 mm 0,5 UV-I 96 W/m 7,1 C 2,6 C 25,7 km/h (4 Bft) 95,74 %
12.05.2019 10:30 8,2 C 14,4 C 8,9 C 93 % 1020,3 hPa 0,0 l/m 15,4 km/h (3 Bft) W-SW 243 0 min 0,000 mm 0,5 UV-I 91 W/m 7,1 C 2,8 C 22,5 km/h (4 Bft) 97,87 %
12.05.2019 10:32 8,2 C 14,4 C 8,9 C 93 % 1020,5 hPa 0,0 l/m 12,2 km/h (2 Bft) SW 234 0 min 0,000 mm 0,3 UV-I 83 W/m 7,1 C 4,3 C 20,9 km/h (4 Bft) 97,87 %
12.05.2019 10:34 8,2 C 14,4 C 8,9 C 93 % 1020,5 hPa 0,2 l/m 16,7 km/h (3 Bft) W-SW 239 0 min 0,000 mm 0,0 UV-I 73 W/m 7,1 C 2,2 C 24,1 km/h (4 Bft) 95,74 %
12.05.2019 10:36 8,2 C 14,4 C 8,9 C 93 % 1020,5 hPa 0,0 l/m 23,1 km/h (4 Bft) SW 226 0 min 0,000 mm 0,3 UV-I 87 W/m 7,1 C -0,1 C 32,2 km/h (5 Bft) 97,87 %
12.05.2019 10:38 8,2 C 13,9 C 8,9 C 93 % 1020,6 hPa 0,0 l/m 13,9 km/h (3 Bft) SW 227 0 min 0,000 mm 0,6 UV-I 107 W/m 7,1 C 3,5 C 20,9 km/h (4 Bft) 95,74 %
12.05.2019 10:40 8,2 C 13,9 C 8,9 C 93 % 1020,6 hPa 0,0 l/m 14,1 km/h (3 Bft) S-SW 212 0 min 0,000 mm 0,1 UV-I 74 W/m 7,1 C 3,4 C 22,5 km/h (4 Bft) 93,62 %
12.05.2019 10:42 8,2 C 13,9 C 8,9 C 93 % 1020,7 hPa 0,0 l/m 12,6 km/h (3 Bft) S-SW 213 0 min 0,000 mm 0,0 UV-I 68 W/m 7,1 C 4,1 C 20,9 km/h (4 Bft) 95,74 %
12.05.2019 10:44 8,1 C 13,9 C 8,9 C 93 % 1020,7 hPa 0,2 l/m 14,7 km/h (3 Bft) W-SW 252 0 min 0,000 mm 0,0 UV-I 63 W/m 7,0 C 3,0 C 27,4 km/h (4 Bft) 97,87 %
12.05.2019 10:46 8,1 C 13,9 C 8,3 C 94 % 1020,7 hPa 0,0 l/m 13,1 km/h (3 Bft) SW 226 0 min 0,000 mm 0,0 UV-I 61 W/m 7,2 C 3,7 C 17,7 km/h (3 Bft) 95,74 %
12.05.2019 10:48 8,1 C 13,9 C 8,9 C 94 % 1020,8 hPa 0,0 l/m 10,5 km/h (2 Bft) W-SW 237 0 min 0,000 mm 0,0 UV-I 56 W/m 7,2 C 5,2 C 19,3 km/h (3 Bft) 95,74 %
12.05.2019 10:50 8,1 C 13,9 C 8,3 C 94 % 1020,8 hPa 0,0 l/m 16,5 km/h (3 Bft) W-SW 242 0 min 0,000 mm 0,0 UV-I 61 W/m 7,2 C 2,2 C 27,4 km/h (4 Bft) 97,87 %
12.05.2019 10:52 8,1 C 13,9 C 8,3 C 94 % 1020,9 hPa 0,0 l/m 13,7 km/h (3 Bft) SW 236 0 min 0,000 mm 0,0 UV-I 54 W/m 7,2 C 3,4 C 20,9 km/h (4 Bft) 94,00 %
12.05.2019 10:54 8,0 C 13,9 C 8,3 C 94 % 1021,0 hPa 0,2 l/m 15,9 km/h (3 Bft) W-NW 286 0 min 0,000 mm 0,0 UV-I 47 W/m 7,1 C 2,3 C 20,9 km/h (4 Bft) 97,87 %
12.05.2019 10:56 8,0 C 13,9 C 8,3 C 94 % 1021,1 hPa 0,0 l/m 6,4 km/h (2 Bft) NW 315 0 min 0,000 mm 0,0 UV-I 46 W/m 7,1 C 8,0 C 12,9 km/h (3 Bft) 97,87 %
12.05.2019 10:58 8,1 C 13,9 C 8,3 C 94 % 1021,2 hPa 0,2 l/m 4,9 km/h (1 Bft) N 351 0 min 0,000 mm 0,0 UV-I 35 W/m 7,2 C 8,1 C 11,3 km/h (2 Bft) 97,87 %
12.05.2019 11:00 8,1 C 13,9 C 8,3 C 94 % 1021,3 hPa 0,0 l/m 4,7 km/h (1 Bft) NW 308 0 min 0,051 mm 0,0 UV-I 32 W/m 7,2 C 8,1 C 8,0 km/h (2 Bft) 95,74 %
12.05.2019 11:02 8,1 C 13,9 C 8,3 C 94 % 1021,3 hPa 0,0 l/m 2,3 km/h (1 Bft) N-NW 348 0 min 0,000 mm 0,0 UV-I 36 W/m 7,2 C 8,1 C 4,8 km/h (1 Bft) 100,00 %
12.05.2019 11:04 8,1 C 13,9 C 8,9 C 94 % 1021,3 hPa 0,2 l/m 2,4 km/h (1 Bft) W 279 0 min 0,000 mm 0,0 UV-I 46 W/m 7,2 C 8,1 C 4,8 km/h (1 Bft) 97,87 %
12.05.2019 11:06 8,2 C 13,9 C 8,9 C 94 % 1021,4 hPa 0,0 l/m 6,1 km/h (2 Bft) W 266 0 min 0,000 mm 0,0 UV-I 63 W/m 7,3 C 8,2 C 11,3 km/h (2 Bft) 97,87 %
12.05.2019 11:08 8,1 C 13,9 C 8,9 C 94 % 1021,4 hPa 0,2 l/m 5,9 km/h (2 Bft) W 273 0 min 0,000 mm 0,0 UV-I 58 W/m 7,2 C 8,1 C 12,9 km/h (3 Bft) 98,00 %
12.05.2019 11:10 8,2 C 13,9 C 8,9 C 94 % 1021,4 hPa 0,0 l/m 3,6 km/h (1 Bft) W-SW 242 0 min 0,000 mm 0,0 UV-I 58 W/m 7,3 C 8,2 C 6,4 km/h (2 Bft) 100,00 %
12.05.2019 11:12 8,2 C 13,9 C 8,9 C 94 % 1021,5 hPa 0,0 l/m 4,1 km/h (1 Bft) N 9 0 min 0,000 mm 0,0 UV-I 64 W/m 7,3 C 8,2 C 8,0 km/h (2 Bft) 96,00 %
12.05.2019 11:14 8,2 C 13,9 C 8,9 C 94 % 1021,5 hPa 0,2 l/m 6,4 km/h (2 Bft) N 5 0 min 0,000 mm 0,4 UV-I 85 W/m 7,3 C 8,2 C 12,9 km/h (3 Bft) 100,00 %
12.05.2019 11:16 8,2 C 13,9 C 9,4 C 94 % 1021,5 hPa 0,0 l/m 8,9 km/h (2 Bft) N-NW 344 0 min 0,000 mm 0,6 UV-I 103 W/m 7,3 C 6,3 C 14,5 km/h (3 Bft) 95,74 %
12.05.2019 11:18 8,2 C 13,9 C 9,4 C 94 % 1021,6 hPa 0,0 l/m 7,1 km/h (2 Bft) N 10 0 min 0,000 mm 0,7 UV-I 119 W/m 7,3 C 7,7 C 12,9 km/h (3 Bft) 97,56 %
12.05.2019 11:20 8,2 C 13,9 C 9,4 C 95 % 1021,6 hPa 0,2 l/m 7,3 km/h (2 Bft) N 5 0 min 0,000 mm 0,7 UV-I 130 W/m 7,4 C 7,5 C 14,5 km/h (3 Bft) 97,87 %
12.05.2019 11:22 8,2 C 13,9 C 9,4 C 94 % 1021,7 hPa 0,0 l/m 7,3 km/h (2 Bft) N-NW 345 0 min 0,000 mm 0,8 UV-I 141 W/m 7,3 C 7,5 C 14,5 km/h (3 Bft) 96,00 %
12.05.2019 11:24 8,2 C 13,9 C 9,4 C 94 % 1021,6 hPa 0,0 l/m 8,6 km/h (2 Bft) N-NO 17 0 min 0,000 mm 0,9 UV-I 147 W/m 7,3 C 6,5 C 14,5 km/h (3 Bft) 97,87 %
12.05.2019 11:26 8,3 C 13,9 C 9,4 C 94 % 1021,7 hPa 0,2 l/m 12,6 km/h (3 Bft) NO 34 0 min 0,000 mm 0,9 UV-I 154 W/m 7,4 C 4,2 C 24,1 km/h (4 Bft) 97,92 %
12.05.2019 11:28 8,2 C 13,9 C 9,4 C 93 % 1021,8 hPa 0,0 l/m 10,8 km/h (2 Bft) N 11 0 min 0,000 mm 0,9 UV-I 157 W/m 7,1 C 5,1 C 17,7 km/h (3 Bft) 94,29 %
12.05.2019 11:30 8,2 C 13,9 C 9,4 C 93 % 1021,9 hPa 0,0 l/m 14,3 km/h (3 Bft) N-NO 15 0 min 0,000 mm 1,0 UV-I 164 W/m 7,1 C 3,3 C 19,3 km/h (3 Bft) 94,34 %
12.05.2019 11:32 8,2 C 13,9 C 9,4 C 93 % 1021,9 hPa 0,0 l/m 14,6 km/h (3 Bft) N-NW 341 0 min 0,000 mm 1,0 UV-I 172 W/m 7,1 C 3,1 C 22,5 km/h (4 Bft) 95,74 %
12.05.2019 11:34 8,1 C 14,4 C 9,4 C 92 % 1022,0 hPa 0,0 l/m 14,9 km/h (3 Bft) N-NO 17 0 min 0,000 mm 1,0 UV-I 178 W/m 6,9 C 2,9 C 22,5 km/h (4 Bft) 93,62 %
12.05.2019 11:36 8,1 C 13,9 C 9,4 C 92 % 1022,1 hPa 0,0 l/m 10,3 km/h (2 Bft) N 355 0 min 0,000 mm 1,0 UV-I 179 W/m 6,9 C 5,3 C 20,9 km/h (4 Bft) 94,00 %
12.05.2019 11:38 8,1 C 13,9 C 9,4 C 92 % 1022,1 hPa 0,2 l/m 15,5 km/h (3 Bft) N 11 0 min 0,000 mm 1,0 UV-I 180 W/m 6,9 C 2,6 C 20,9 km/h (4 Bft) 96,00 %
12.05.2019 11:40 7,9 C 13,9 C 9,4 C 92 % 1022,2 hPa 0,0 l/m 17,4 km/h (3 Bft) N 355 0 min 0,000 mm 1,1 UV-I 186 W/m 6,7 C 1,6 C 24,1 km/h (4 Bft) 94,74 %
12.05.2019 11:42 7,9 C 13,9 C 9,4 C 92 % 1022,3 hPa 0,0 l/m 12,0 km/h (2 Bft) N-NO 28 0 min 0,000 mm 1,1 UV-I 194 W/m 6,7 C 4,1 C 19,3 km/h (3 Bft) 94,00 %
12.05.2019 11:44 7,9 C 13,9 C 9,4 C 92 % 1022,5 hPa 0,2 l/m 11,1 km/h (2 Bft) N 360 0 min 0,000 mm 1,2 UV-I 201 W/m 6,7 C 4,6 C 17,7 km/h (3 Bft) 98,11 %
12.05.2019 11:46 7,9 C 13,9 C 9,4 C 92 % 1022,5 hPa 0,0 l/m 11,3 km/h (2 Bft) N 5 0 min 0,000 mm 1,2 UV-I 206 W/m 6,7 C 4,5 C 17,7 km/h (3 Bft) 93,62 %
12.05.2019 11:48 7,8 C 13,9 C 9,4 C 92 % 1022,6 hPa 0,0 l/m 11,8 km/h (2 Bft) N-NW 336 0 min 0,000 mm 1,2 UV-I 207 W/m 6,6 C 4,1 C 17,7 km/h (3 Bft) 97,87 %
12.05.2019 11:50 7,8 C 13,9 C 9,4 C 91 % 1022,6 hPa 0,2 l/m 13,0 km/h (3 Bft) N-NW 332 0 min 0,000 mm 1,2 UV-I 206 W/m 6,4 C 3,4 C 17,7 km/h (3 Bft) 95,74 %
12.05.2019 11:52 7,7 C 13,9 C 9,4 C 91 % 1022,6 hPa 0,0 l/m 14,3 km/h (3 Bft) N 5 0 min 0,000 mm 1,2 UV-I 204 W/m 6,3 C 2,7 C 20,9 km/h (4 Bft) 97,87 %
12.05.2019 11:54 7,7 C 13,9 C 9,4 C 91 % 1022,6 hPa 0,0 l/m 14,0 km/h (3 Bft) N-NW 335 0 min 0,000 mm 1,2 UV-I 208 W/m 6,3 C 2,8 C 19,3 km/h (3 Bft) 100,00 %
12.05.2019 11:56 7,6 C 13,9 C 9,4 C 91 % 1022,6 hPa 0,0 l/m 15,0 km/h (3 Bft) N-NW 336 0 min 0,000 mm 1,3 UV-I 214 W/m 6,2 C 2,2 C 22,5 km/h (4 Bft) 100,00 %
12.05.2019 11:58 7,6 C 13,9 C 8,9 C 91 % 1022,6 hPa 0,0 l/m 11,2 km/h (2 Bft) N-NW 346 0 min 0,000 mm 1,3 UV-I 213 W/m 6,2 C 4,2 C 22,5 km/h (4 Bft) 98,00 %
12.05.2019 12:00 7,5 C 13,9 C 8,9 C 91 % 1022,6 hPa 0,0 l/m 15,6 km/h (3 Bft) N-NW 338 0 min 0,076 mm 1,2 UV-I 210 W/m 6,1 C 1,8 C 22,5 km/h (4 Bft) 100,00 %
12.05.2019 12:02 7,4 C 13,9 C 8,9 C 91 % 1022,7 hPa 0,0 l/m 14,1 km/h (3 Bft) NW 316 0 min 0,000 mm 1,3 UV-I 214 W/m 6,0 C 2,4 C 19,3 km/h (3 Bft) 100,00 %
12.05.2019 12:04 7,4 C 13,9 C 9,4 C 91 % 1022,7 hPa 0,2 l/m 11,7 km/h (2 Bft) N 355 0 min 0,000 mm 1,3 UV-I 217 W/m 6,0 C 3,7 C 19,3 km/h (3 Bft) 97,22 %
12.05.2019 12:06 7,4 C 13,9 C 9,4 C 91 % 1022,8 hPa 0,0 l/m 11,6 km/h (2 Bft) N-NW 340 0 min 0,000 mm 1,3 UV-I 215 W/m 6,0 C 3,7 C 17,7 km/h (3 Bft) 98,00 %
12.05.2019 12:08 7,4 C 13,9 C 9,4 C 91 % 1022,9 hPa 0,0 l/m 9,0 km/h (2 Bft) N 10 0 min 0,000 mm 1,3 UV-I 217 W/m 6,0 C 5,4 C 16,1 km/h (3 Bft) 97,87 %
12.05.2019 12:10 7,5 C 13,9 C 9,4 C 92 % 1022,9 hPa 0,0 l/m 13,0 km/h (3 Bft) N-NW 328 0 min 0,000 mm 1,3 UV-I 216 W/m 6,3 C 3,1 C 20,9 km/h (4 Bft) 97,87 %
12.05.2019 12:12 7,4 C 13,9 C 9,4 C 91 % 1023,0 hPa 0,0 l/m 11,1 km/h (2 Bft) N-NW 336 0 min 0,000 mm 1,3 UV-I 212 W/m 6,0 C 4,0 C 17,7 km/h (3 Bft) 100,00 %
12.05.2019 12:14 7,4 C 13,9 C 9,4 C 91 % 1023,0 hPa 0,2 l/m 11,7 km/h (2 Bft) N 349 0 min 0,000 mm 1,3 UV-I 212 W/m 6,0 C 3,7 C 17,7 km/h (3 Bft) 98,00 %
12.05.2019 12:16 7,4 C 13,9 C 9,4 C 92 % 1023,0 hPa 0,0 l/m 8,5 km/h (2 Bft) N-NW 348 0 min 0,000 mm 1,3 UV-I 221 W/m 6,2 C 5,8 C 17,7 km/h (3 Bft) 97,87 %
12.05.2019 12:18 7,6 C 13,9 C 10,0 C 92 % 1023,2 hPa 0,0 l/m 7,9 km/h (2 Bft) N-NO 30 0 min 0,000 mm 1,3 UV-I 227 W/m 6,4 C 6,4 C 14,5 km/h (3 Bft) 97,87 %
12.05.2019 12:20 7,5 C 13,9 C 10,0 C 92 % 1023,1 hPa 0,0 l/m 6,8 km/h (2 Bft) N-NW 343 0 min 0,000 mm 1,3 UV-I 229 W/m 6,3 C 7,2 C 8,0 km/h (2 Bft) 97,73 %
12.05.2019 12:22 7,6 C 13,9 C 10,0 C 92 % 1023,2 hPa 0,0 l/m 7,8 km/h (2 Bft) NW 326 0 min 0,000 mm 1,4 UV-I 232 W/m 6,4 C 6,5 C 14,5 km/h (3 Bft) 100,00 %
12.05.2019 12:24 7,6 C 13,9 C 10,0 C 92 % 1023,2 hPa 0,0 l/m 8,6 km/h (2 Bft) NW 304 0 min 0,000 mm 1,4 UV-I 227 W/m 6,4 C 5,9 C 14,5 km/h (3 Bft) 98,00 %
12.05.2019 12:26 7,6 C 13,9 C 10,0 C 92 % 1023,3 hPa 0,0 l/m 11,3 km/h (2 Bft) N 5 0 min 0,000 mm 1,3 UV-I 223 W/m 6,4 C 4,1 C 20,9 km/h (4 Bft) 100,00 %
12.05.2019 12:28 7,5 C 13,9 C 10,0 C 91 % 1023,4 hPa 0,2 l/m 9,2 km/h (2 Bft) NW 311 0 min 0,000 mm 1,3 UV-I 221 W/m 6,1 C 5,4 C 17,7 km/h (3 Bft) 100,00 %
12.05.2019 12:30 7,5 C 13,9 C 9,4 C 92 % 1023,4 hPa 0,0 l/m 10,4 km/h (2 Bft) NW 315 0 min 0,000 mm 1,3 UV-I 213 W/m 6,3 C 4,6 C 16,1 km/h (3 Bft) 100,00 %
12.05.2019 12:32 7,5 C 13,9 C 9,4 C 92 % 1023,4 hPa 0,0 l/m 7,1 km/h (2 Bft) N 350 0 min 0,000 mm 1,2 UV-I 209 W/m 6,3 C 6,9 C 12,9 km/h (3 Bft) 97,87 %
12.05.2019 12:34 7,5 C 13,9 C 10,0 C 92 % 1023,5 hPa 0,0 l/m 8,6 km/h (2 Bft) N 355 0 min 0,000 mm 1,2 UV-I 208 W/m 6,3 C 5,8 C 14,5 km/h (3 Bft) 98,00 %
12.05.2019 12:36 7,6 C 13,9 C 10,0 C 92 % 1023,5 hPa 0,0 l/m 8,5 km/h (2 Bft) N 9 0 min 0,000 mm 1,2 UV-I 201 W/m 6,4 C 6,0 C 14,5 km/h (3 Bft) 100,00 %
12.05.2019 12:38 7,6 C 13,9 C 9,4 C 92 % 1023,6 hPa 0,0 l/m 8,6 km/h (2 Bft) N-NW 347 0 min 0,000 mm 1,2 UV-I 197 W/m 6,4 C 5,9 C 16,1 km/h (3 Bft) 96,00 %
12.05.2019 12:40 7,6 C 13,9 C 9,4 C 92 % 1023,6 hPa 0,0 l/m 8,6 km/h (2 Bft) N-NW 340 0 min 0,000 mm 1,1 UV-I 192 W/m 6,4 C 5,9 C 17,7 km/h (3 Bft) 97,87 %
12.05.2019 12:42 7,6 C 13,9 C 9,4 C 92 % 1023,7 hPa 0,0 l/m 7,8 km/h (2 Bft) N 5 0 min 0,000 mm 1,1 UV-I 191 W/m 6,4 C 6,5 C 12,9 km/h (3 Bft) 98,00 %
12.05.2019 12:44 7,6 C 13,9 C 10,0 C 92 % 1023,7 hPa 0,2 l/m 7,5 km/h (2 Bft) N-NO 22 0 min 0,000 mm 1,2 UV-I 195 W/m 6,4 C 6,7 C 12,9 km/h (3 Bft) 100,00 %
12.05.2019 12:46 7,6 C 13,9 C 9,4 C 92 % 1023,7 hPa 0,0 l/m 6,5 km/h (2 Bft) N 355 0 min 0,000 mm 1,1 UV-I 188 W/m 6,4 C 7,5 C 8,0 km/h (2 Bft) 100,00 %
12.05.2019 12:48 7,7 C 13,9 C 9,4 C 92 % 1023,8 hPa 0,0 l/m 5,5 km/h (1 Bft) NW 318 0 min 0,000 mm 1,1 UV-I 181 W/m 6,5 C 7,7 C 8,0 km/h (2 Bft) 100,00 %
12.05.2019 12:50 7,7 C 13,9 C 9,4 C 92 % 1023,8 hPa 0,0 l/m 5,4 km/h (1 Bft) N-NO 13 0 min 0,000 mm 1,1 UV-I 176 W/m 6,5 C 7,7 C 6,4 km/h (2 Bft) 100,00 %
12.05.2019 12:52 7,7 C 13,9 C 10,0 C 92 % 1023,9 hPa 0,0 l/m 5,7 km/h (1 Bft) N 349 0 min 0,000 mm 1,1 UV-I 170 W/m 6,5 C 7,7 C 12,9 km/h (3 Bft) 93,62 %
12.05.2019 12:54 7,7 C 13,9 C 10,0 C 92 % 1023,9 hPa 0,0 l/m 5,4 km/h (1 Bft) NW 315 0 min 0,000 mm 1,0 UV-I 165 W/m 6,5 C 7,7 C 8,0 km/h (2 Bft) 97,87 %
12.05.2019 12:56 7,7 C 13,9 C 10,0 C 92 % 1023,9 hPa 0,2 l/m 4,1 km/h (1 Bft) N-NW 341 0 min 0,000 mm 1,0 UV-I 164 W/m 6,5 C 7,7 C 8,0 km/h (2 Bft) 98,00 %
12.05.2019 12:58 7,7 C 13,9 C 10,0 C 92 % 1023,9 hPa 0,0 l/m 7,4 km/h (2 Bft) N-NW 327 0 min 0,000 mm 0,9 UV-I 158 W/m 6,5 C 6,9 C 11,3 km/h (2 Bft) 95,74 %
12.05.2019 13:00 7,7 C 13,9 C 9,4 C 92 % 1024,0 hPa 0,0 l/m 5,8 km/h (2 Bft) N 5 0 min 0,101 mm 0,9 UV-I 155 W/m 6,5 C 7,7 C 6,4 km/h (2 Bft) 95,65 %
12.05.2019 13:02 7,7 C 13,9 C 10,0 C 92 % 1024,1 hPa 0,2 l/m 3,7 km/h (1 Bft) NW 308 0 min 0,000 mm 0,9 UV-I 156 W/m 6,5 C 7,7 C 8,0 km/h (2 Bft) 93,62 %
12.05.2019 13:04 7,7 C 13,9 C 10,0 C 93 % 1024,1 hPa 0,0 l/m 2,7 km/h (1 Bft) N-NW 334 0 min 0,000 mm 1,0 UV-I 170 W/m 6,6 C 7,7 C 3,2 km/h (1 Bft) 95,74 %
12.05.2019 13:06 7,8 C 13,9 C 10,6 C 93 % 1024,1 hPa 0,0 l/m 2,8 km/h (1 Bft) N-NW 333 0 min 0,000 mm 1,1 UV-I 182 W/m 6,7 C 7,8 C 4,8 km/h (1 Bft) 95,74 %
12.05.2019 13:08 7,8 C 13,9 C 10,6 C 93 % 1024,2 hPa 0,0 l/m 2,5 km/h (1 Bft) NW 315 0 min 0,000 mm 1,1 UV-I 180 W/m 6,7 C 7,8 C 4,8 km/h (1 Bft) 97,87 %
12.05.2019 13:10 7,8 C 13,9 C 10,6 C 93 % 1024,2 hPa 0,2 l/m 1,8 km/h (1 Bft) W-NW 288 0 min 0,000 mm 1,1 UV-I 181 W/m 6,7 C 7,8 C 4,8 km/h (1 Bft) 95,74 %
12.05.2019 13:12 7,7 C 13,9 C 10,6 C 93 % 1024,3 hPa 0,0 l/m 5,6 km/h (1 Bft) W-NW 290 0 min 0,000 mm 1,2 UV-I 189 W/m 6,6 C 7,7 C 12,9 km/h (3 Bft) 93,62 %
12.05.2019 13:14 7,7 C 13,9 C 10,6 C 93 % 1024,3 hPa 0,0 l/m 3,9 km/h (1 Bft) W 280 0 min 0,000 mm 1,2 UV-I 190 W/m 6,6 C 7,7 C 6,4 km/h (2 Bft) 95,74 %
12.05.2019 13:16 7,7 C 13,9 C 10,6 C 93 % 1024,3 hPa 0,0 l/m 2,1 km/h (1 Bft) W 275 0 min 0,000 mm 1,0 UV-I 173 W/m 6,6 C 7,7 C 4,8 km/h (1 Bft) 97,92 %
12.05.2019 13:18 7,8 C 13,9 C 10,6 C 93 % 1024,4 hPa 0,2 l/m 3,6 km/h (1 Bft) NW 326 0 min 0,000 mm 1,0 UV-I 162 W/m 6,7 C 7,8 C 6,4 km/h (2 Bft) 93,62 %
12.05.2019 13:20 7,8 C 13,9 C 10,6 C 93 % 1024,4 hPa 0,0 l/m 3,0 km/h (1 Bft) W-SW 256 0 min 0,000 mm 1,0 UV-I 173 W/m 6,7 C 7,8 C 6,4 km/h (2 Bft) 98,00 %
12.05.2019 13:22 7,8 C 13,9 C 10,6 C 93 % 1024,4 hPa 0,0 l/m 1,7 km/h (1 Bft) W-SW 256 0 min 0,000 mm 1,0 UV-I 165 W/m 6,7 C 7,8 C 3,2 km/h (1 Bft) 97,37 %
12.05.2019 13:24 7,9 C 13,9 C 10,6 C 94 % 1024,4 hPa 0,0 l/m 4,3 km/h (1 Bft) W-NW 285 0 min 0,000 mm 1,0 UV-I 167 W/m 7,0 C 7,9 C 6,4 km/h (2 Bft) 96,00 %
12.05.2019 13:26 7,8 C 13,9 C 10,6 C 93 % 1024,5 hPa 0,2 l/m 2,5 km/h (1 Bft) W-NW 285 0 min 0,000 mm 1,2 UV-I 186 W/m 6,7 C 7,8 C 4,8 km/h (1 Bft) 97,87 %
12.05.2019 13:28 7,8 C 13,9 C 10,6 C 94 % 1024,5 hPa 0,0 l/m 4,1 km/h (1 Bft) W 281 0 min 0,000 mm 1,3 UV-I 215 W/m 6,9 C 7,8 C 11,3 km/h (2 Bft) 97,87 %
12.05.2019 13:30 7,8 C 13,9 C 10,6 C 94 % 1024,5 hPa 0,0 l/m 6,6 km/h (2 Bft) NW 316 0 min 0,000 mm 1,4 UV-I 230 W/m 6,9 C 7,7 C 16,1 km/h (3 Bft) 97,87 %
12.05.2019 13:32 7,7 C 13,9 C 10,6 C 93 % 1024,6 hPa 0,0 l/m 5,5 km/h (1 Bft) SW 217 0 min 0,000 mm 1,3 UV-I 223 W/m 6,6 C 7,7 C 11,3 km/h (2 Bft) 95,74 %
12.05.2019 13:34 7,8 C 13,9 C 10,6 C 93 % 1024,6 hPa 0,0 l/m 4,4 km/h (1 Bft) W 279 0 min 0,000 mm 1,3 UV-I 216 W/m 6,7 C 7,8 C 11,3 km/h (2 Bft) 95,74 %
12.05.2019 13:36 7,8 C 13,9 C 10,6 C 93 % 1024,6 hPa 0,2 l/m 9,7 km/h (2 Bft) W-NW 290 0 min 0,000 mm 1,4 UV-I 228 W/m 6,7 C 5,4 C 14,5 km/h (3 Bft) 97,87 %
12.05.2019 13:38 7,8 C 13,9 C 10,6 C 93 % 1024,7 hPa 0,0 l/m 5,6 km/h (1 Bft) N-NO 32 0 min 0,000 mm 1,3 UV-I 214 W/m 6,7 C 7,8 C 11,3 km/h (2 Bft) 95,74 %
12.05.2019 13:40 7,9 C 13,9 C 11,1 C 93 % 1024,7 hPa 0,0 l/m 4,9 km/h (1 Bft) NW 317 0 min 0,000 mm 1,2 UV-I 209 W/m 6,8 C 7,9 C 12,9 km/h (3 Bft) 95,74 %
12.05.2019 13:42 7,8 C 13,9 C 10,6 C 92 % 1024,7 hPa 0,0 l/m 7,5 km/h (2 Bft) N-NW 344 0 min 0,000 mm 1,4 UV-I 232 W/m 6,6 C 6,9 C 14,5 km/h (3 Bft) 97,87 %
12.05.2019 13:44 7,8 C 13,9 C 10,6 C 92 % 1024,7 hPa 0,0 l/m 5,3 km/h (1 Bft) NW 319 0 min 0,000 mm 1,4 UV-I 238 W/m 6,6 C 7,8 C 9,7 km/h (2 Bft) 95,74 %
12.05.2019 13:46 7,9 C 13,9 C 10,6 C 92 % 1024,7 hPa 0,0 l/m 4,7 km/h (1 Bft) NW 320 0 min 0,000 mm 1,4 UV-I 243 W/m 6,7 C 7,9 C 8,0 km/h (2 Bft) 100,00 %
12.05.2019 13:48 8,0 C 13,9 C 11,1 C 92 % 1024,8 hPa 0,0 l/m 5,1 km/h (1 Bft) NW 305 0 min 0,000 mm 1,4 UV-I 248 W/m 6,8 C 8,0 C 8,0 km/h (2 Bft) 100,00 %
12.05.2019 13:50 7,9 C 13,9 C 10,6 C 91 % 1024,9 hPa 0,0 l/m 5,3 km/h (1 Bft) N-NO 21 0 min 0,000 mm 1,4 UV-I 233 W/m 6,5 C 7,9 C 8,0 km/h (2 Bft) 96,55 %
12.05.2019 13:52 7,9 C 13,9 C 10,6 C 92 % 1024,9 hPa 0,2 l/m 6,4 km/h (2 Bft) N 11 0 min 0,000 mm 1,3 UV-I 216 W/m 6,7 C 7,9 C 8,0 km/h (2 Bft) 100,00 %
12.05.2019 13:54 8,0 C 13,9 C 10,6 C 92 % 1024,9 hPa 0,0 l/m 4,0 km/h (1 Bft) W 277 0 min 0,000 mm 1,2 UV-I 205 W/m 6,8 C 8,0 C 8,0 km/h (2 Bft) 98,00 %
12.05.2019 13:56 8,0 C 13,9 C 10,6 C 92 % 1025,0 hPa 0,0 l/m 2,6 km/h (1 Bft) NW 325 0 min 0,000 mm 1,2 UV-I 208 W/m 6,8 C 8,0 C 3,2 km/h (1 Bft) 100,00 %
12.05.2019 13:58 8,0 C 13,9 C 11,1 C 91 % 1025,0 hPa 0,0 l/m 2,1 km/h (1 Bft) W-SW 245 0 min 0,000 mm 1,3 UV-I 211 W/m 6,6 C 8,0 C 3,2 km/h (1 Bft) 93,62 %
12.05.2019 14:00 7,9 C 13,9 C 10,6 C 91 % 1025,0 hPa 0,0 l/m 2,5 km/h (1 Bft) W 278 0 min 0,102 mm 1,2 UV-I 209 W/m 6,5 C 7,9 C 4,8 km/h (1 Bft) 97,87 %
12.05.2019 14:02 7,9 C 13,9 C 11,1 C 92 % 1025,0 hPa 0,0 l/m 2,7 km/h (1 Bft) W-NW 290 0 min 0,000 mm 1,2 UV-I 207 W/m 6,7 C 7,9 C 4,8 km/h (1 Bft) 97,87 %
12.05.2019 14:04 7,9 C 13,9 C 11,1 C 91 % 1025,1 hPa 0,2 l/m 2,6 km/h (1 Bft) W-NW 289 0 min 0,000 mm 1,2 UV-I 200 W/m 6,5 C 7,9 C 4,8 km/h (1 Bft) 95,74 %
12.05.2019 14:06 7,9 C 13,9 C 11,1 C 92 % 1025,1 hPa 0,0 l/m 1,6 km/h (1 Bft) W-NW 290 0 min 0,000 mm 1,1 UV-I 193 W/m 6,7 C 7,9 C 3,2 km/h (1 Bft) 97,87 %
12.05.2019 14:08 7,9 C 13,9 C 11,1 C 92 % 1025,1 hPa 0,0 l/m 3,0 km/h (1 Bft) W 271 0 min 0,000 mm 1,2 UV-I 196 W/m 6,7 C 7,9 C 6,4 km/h (2 Bft) 97,87 %
12.05.2019 14:10 7,9 C 13,9 C 11,1 C 92 % 1025,1 hPa 0,0 l/m 3,8 km/h (1 Bft) W-NW 282 0 min 0,000 mm 1,1 UV-I 190 W/m 6,7 C 7,9 C 6,4 km/h (2 Bft) 98,00 %
12.05.2019 14:12 8,0 C 13,9 C 10,6 C 92 % 1025,2 hPa 0,0 l/m 4,2 km/h (1 Bft) W 275 0 min 0,000 mm 1,1 UV-I 190 W/m 6,8 C 8,0 C 11,3 km/h (2 Bft) 95,74 %
12.05.2019 14:14 8,0 C 13,9 C 10,6 C 92 % 1025,2 hPa 0,0 l/m 6,4 km/h (2 Bft) W 264 0 min 0,000 mm 1,0 UV-I 177 W/m 6,8 C 8,0 C 11,3 km/h (2 Bft) 93,62 %
12.05.2019 14:16 7,9 C 13,9 C 10,6 C 92 % 1025,2 hPa 0,2 l/m 5,2 km/h (1 Bft) W-SW 254 0 min 0,000 mm 1,0 UV-I 180 W/m 6,7 C 7,9 C 8,0 km/h (2 Bft) 91,49 %
12.05.2019 14:18 7,9 C 13,9 C 10,6 C 92 % 1025,2 hPa 0,0 l/m 6,3 km/h (2 Bft) W-SW 240 0 min 0,000 mm 1,3 UV-I 208 W/m 6,7 C 7,9 C 12,9 km/h (3 Bft) 92,11 %
12.05.2019 14:20 7,9 C 13,9 C 10,6 C 92 % 1025,2 hPa 0,0 l/m 7,0 km/h (2 Bft) W-SW 255 0 min 0,000 mm 1,2 UV-I 212 W/m 6,7 C 7,4 C 11,3 km/h (2 Bft) 93,62 %
12.05.2019 14:22 8,0 C 13,9 C 10,6 C 92 % 1025,3 hPa 0,0 l/m 5,7 km/h (1 Bft) W-NW 294 0 min 0,000 mm 1,1 UV-I 187 W/m 6,8 C 8,0 C 11,3 km/h (2 Bft) 95,74 %
12.05.2019 14:24 8,0 C 13,9 C 10,6 C 92 % 1025,3 hPa 0,0 l/m 3,6 km/h (1 Bft) W 259 0 min 0,000 mm 1,1 UV-I 189 W/m 6,8 C 8,0 C 6,4 km/h (2 Bft) 93,62 %
12.05.2019 14:26 8,1 C 13,9 C 10,6 C 93 % 1025,3 hPa 0,0 l/m 3,3 km/h (1 Bft) W-NW 286 0 min 0,000 mm 1,0 UV-I 173 W/m 7,0 C 8,1 C 4,8 km/h (1 Bft) 91,67 %
12.05.2019 14:28 8,1 C 13,9 C 10,6 C 93 % 1025,4 hPa 0,0 l/m 3,5 km/h (1 Bft) W-NW 298 0 min 0,000 mm 0,8 UV-I 151 W/m 7,0 C 8,1 C 4,8 km/h (1 Bft) 93,62 %
12.05.2019 14:30 8,1 C 13,9 C 10,6 C 93 % 1025,4 hPa 0,0 l/m 4,4 km/h (1 Bft) W-SW 238 0 min 0,000 mm 0,9 UV-I 158 W/m 7,0 C 8,1 C 6,4 km/h (2 Bft) 96,00 %
12.05.2019 14:32 8,0 C 13,9 C 10,6 C 93 % 1025,4 hPa 0,0 l/m 6,1 km/h (2 Bft) W-SW 240 0 min 0,000 mm 0,8 UV-I 149 W/m 6,9 C 8,0 C 9,7 km/h (2 Bft) 96,00 %
12.05.2019 14:34 8,0 C 13,9 C 10,0 C 93 % 1025,5 hPa 0,0 l/m 5,1 km/h (1 Bft) W-SW 251 0 min 0,000 mm 0,8 UV-I 141 W/m 6,9 C 8,0 C 9,7 km/h (2 Bft) 93,62 %
12.05.2019 14:36 7,9 C 13,9 C 10,6 C 93 % 1025,5 hPa 0,2 l/m 3,2 km/h (1 Bft) W 266 0 min 0,000 mm 0,8 UV-I 143 W/m 6,8 C 7,9 C 6,4 km/h (2 Bft) 93,62 %
12.05.2019 14:38 7,9 C 13,9 C 10,0 C 93 % 1025,5 hPa 0,0 l/m 2,0 km/h (1 Bft) W 267 0 min 0,000 mm 0,8 UV-I 144 W/m 6,8 C 7,9 C 4,8 km/h (1 Bft) 95,74 %
12.05.2019 14:40 7,9 C 13,9 C 10,0 C 93 % 1025,5 hPa 0,0 l/m 1,8 km/h (1 Bft) W 269 0 min 0,000 mm 0,9 UV-I 160 W/m 6,8 C 7,9 C 3,2 km/h (1 Bft) 91,49 %
12.05.2019 14:42 7,9 C 13,9 C 10,6 C 93 % 1025,5 hPa 0,0 l/m 2,7 km/h (1 Bft) W 269 0 min 0,000 mm 1,2 UV-I 198 W/m 6,8 C 7,9 C 4,8 km/h (1 Bft) 95,74 %
12.05.2019 14:44 7,9 C 13,9 C 11,1 C 93 % 1025,5 hPa 0,0 l/m 3,2 km/h (1 Bft) W-NW 300 0 min 0,000 mm 1,3 UV-I 230 W/m 6,8 C 7,9 C 8,0 km/h (2 Bft) 96,00 %
12.05.2019 14:46 7,9 C 13,9 C 11,1 C 93 % 1025,5 hPa 0,0 l/m 2,2 km/h (1 Bft) NW 326 0 min 0,000 mm 1,3 UV-I 230 W/m 6,8 C 7,9 C 4,8 km/h (1 Bft) 94,29 %
12.05.2019 14:48 7,9 C 13,9 C 11,1 C 93 % 1025,5 hPa 0,0 l/m 2,7 km/h (1 Bft) W 260 0 min 0,000 mm 1,1 UV-I 202 W/m 6,8 C 7,9 C 4,8 km/h (1 Bft) 97,87 %
12.05.2019 14:50 7,9 C 13,9 C 11,1 C 93 % 1025,5 hPa 0,0 l/m 2,3 km/h (1 Bft) W 266 0 min 0,000 mm 1,0 UV-I 176 W/m 6,8 C 7,9 C 4,8 km/h (1 Bft) 97,87 %
12.05.2019 14:52 8,0 C 13,9 C 11,1 C 93 % 1025,6 hPa 0,0 l/m 4,0 km/h (1 Bft) SW 235 0 min 0,000 mm 1,0 UV-I 172 W/m 6,9 C 8,0 C 6,4 km/h (2 Bft) 93,62 %
12.05.2019 14:54 8,1 C 13,9 C 10,6 C 93 % 1025,6 hPa 0,0 l/m 6,0 km/h (2 Bft) W-NW 286 0 min 0,000 mm 0,9 UV-I 159 W/m 7,0 C 8,1 C 9,7 km/h (2 Bft) 98,00 %
12.05.2019 14:56 8,0 C 13,9 C 10,6 C 93 % 1025,6 hPa 0,0 l/m 4,5 km/h (1 Bft) W 274 0 min 0,000 mm 0,8 UV-I 149 W/m 6,9 C 8,0 C 6,4 km/h (2 Bft) 97,87 %
12.05.2019 14:58 7,9 C 13,9 C 10,6 C 93 % 1025,7 hPa 0,0 l/m 5,5 km/h (1 Bft) W 279 0 min 0,000 mm 0,9 UV-I 160 W/m 6,8 C 7,9 C 6,4 km/h (2 Bft) 96,00 %
12.05.2019 15:00 7,9 C 13,9 C 10,6 C 92 % 1025,7 hPa 0,0 l/m 4,8 km/h (1 Bft) W 271 0 min 0,076 mm 0,8 UV-I 148 W/m 6,7 C 7,9 C 6,4 km/h (2 Bft) 95,74 %
12.05.2019 15:02 7,9 C 13,9 C 10,0 C 93 % 1025,8 hPa 0,0 l/m 4,1 km/h (1 Bft) W 263 0 min 0,000 mm 0,6 UV-I 115 W/m 6,8 C 7,9 C 6,4 km/h (2 Bft) 97,87 %
12.05.2019 15:04 7,9 C 13,9 C 10,0 C 93 % 1025,7 hPa 0,0 l/m 4,4 km/h (1 Bft) W-NW 286 0 min 0,000 mm 0,5 UV-I 101 W/m 6,8 C 7,9 C 9,7 km/h (2 Bft) 97,87 %
12.05.2019 15:06 7,9 C 13,9 C 9,4 C 93 % 1025,8 hPa 0,0 l/m 4,1 km/h (1 Bft) W-SW 256 0 min 0,000 mm 0,5 UV-I 97 W/m 6,8 C 7,9 C 6,4 km/h (2 Bft) 97,87 %
12.05.2019 15:08 7,8 C 13,9 C 9,4 C 93 % 1025,8 hPa 0,0 l/m 4,9 km/h (1 Bft) W 280 0 min 0,000 mm 0,5 UV-I 90 W/m 6,7 C 7,8 C 9,7 km/h (2 Bft) 95,74 %
12.05.2019 15:10 7,7 C 13,9 C 9,4 C 93 % 1025,8 hPa 0,0 l/m 5,2 km/h (1 Bft) W 263 0 min 0,000 mm 0,0 UV-I 86 W/m 6,6 C 7,7 C 6,4 km/h (2 Bft) 97,92 %
12.05.2019 15:12 7,7 C 13,9 C 9,4 C 93 % 1025,8 hPa 0,2 l/m 3,8 km/h (1 Bft) W 263 0 min 0,000 mm 0,3 UV-I 87 W/m 6,6 C 7,7 C 6,4 km/h (2 Bft) 97,37 %
12.05.2019 15:14 7,7 C 13,9 C 8,9 C 93 % 1025,8 hPa 0,0 l/m 4,9 km/h (1 Bft) W 261 0 min 0,000 mm 0,1 UV-I 85 W/m 6,6 C 7,7 C 9,7 km/h (2 Bft) 97,87 %
12.05.2019 15:16 7,7 C 13,9 C 9,4 C 93 % 1025,9 hPa 0,0 l/m 4,1 km/h (1 Bft) W-NW 291 0 min 0,000 mm 0,0 UV-I 83 W/m 6,6 C 7,7 C 9,7 km/h (2 Bft) 95,74 %
12.05.2019 15:18 7,7 C 13,9 C 9,4 C 94 % 1025,8 hPa 0,0 l/m 5,2 km/h (1 Bft) W-NW 296 0 min 0,000 mm 0,0 UV-I 81 W/m 6,8 C 7,7 C 9,7 km/h (2 Bft) 95,74 %
12.05.2019 15:20 7,7 C 13,9 C 9,4 C 94 % 1025,9 hPa 0,2 l/m 3,2 km/h (1 Bft) W 271 0 min 0,000 mm 0,4 UV-I 97 W/m 6,8 C 7,7 C 6,4 km/h (2 Bft) 97,87 %
12.05.2019 15:22 7,8 C 13,9 C 9,4 C 94 % 1025,9 hPa 0,0 l/m 1,6 km/h (1 Bft) W 271 0 min 0,000 mm 0,7 UV-I 132 W/m 6,9 C 7,8 C 3,2 km/h (1 Bft) 97,87 %
12.05.2019 15:24 7,8 C 13,9 C 10,0 C 94 % 1025,9 hPa 0,0 l/m 2,7 km/h (1 Bft) NW 313 0 min 0,000 mm 0,8 UV-I 158 W/m 6,9 C 7,8 C 6,4 km/h (2 Bft) 97,87 %
12.05.2019 15:26 7,8 C 13,9 C 10,0 C 94 % 1026,0 hPa 0,0 l/m 3,7 km/h (1 Bft) N-NW 333 0 min 0,000 mm 0,9 UV-I 175 W/m 6,9 C 7,8 C 6,4 km/h (2 Bft) 97,87 %
12.05.2019 15:28 7,8 C 13,9 C 10,6 C 94 % 1026,0 hPa 0,0 l/m 2,6 km/h (1 Bft) W 269 0 min 0,000 mm 0,9 UV-I 180 W/m 6,9 C 7,8 C 4,8 km/h (1 Bft) 93,62 %
12.05.2019 15:30 7,9 C 13,9 C 10,6 C 94 % 1026,1 hPa 0,0 l/m 3,8 km/h (1 Bft) W 268 0 min 0,000 mm 0,9 UV-I 178 W/m 7,0 C 7,9 C 6,4 km/h (2 Bft) 98,11 %
12.05.2019 15:32 8,0 C 13,9 C 10,6 C 94 % 1026,1 hPa 0,0 l/m 2,5 km/h (1 Bft) W-NW 297 0 min 0,000 mm 0,9 UV-I 169 W/m 7,1 C 8,0 C 6,4 km/h (2 Bft) 97,87 %
12.05.2019 15:34 8,1 C 13,9 C 11,1 C 94 % 1026,1 hPa 0,0 l/m 2,2 km/h (1 Bft) NW 315 0 min 0,000 mm 0,9 UV-I 171 W/m 7,2 C 8,1 C 8,0 km/h (2 Bft) 97,87 %
12.05.2019 15:36 8,1 C 13,9 C 10,6 C 94 % 1026,1 hPa 0,0 l/m 4,3 km/h (1 Bft) NW 309 0 min 0,000 mm 0,9 UV-I 170 W/m 7,2 C 8,1 C 11,3 km/h (2 Bft) 97,56 %
12.05.2019 15:38 7,9 C 13,9 C 10,6 C 93 % 1026,1 hPa 0,0 l/m 3,2 km/h (1 Bft) W-NW 290 0 min 0,000 mm 0,9 UV-I 170 W/m 6,8 C 7,9 C 4,8 km/h (1 Bft) 97,87 %
12.05.2019 15:40 7,9 C 13,9 C 10,6 C 93 % 1026,2 hPa 0,0 l/m 4,1 km/h (1 Bft) W-SW 257 0 min 0,000 mm 0,9 UV-I 178 W/m 6,8 C 7,9 C 6,4 km/h (2 Bft) 94,00 %
12.05.2019 15:42 7,8 C 13,9 C 10,0 C 92 % 1026,2 hPa 0,0 l/m 3,6 km/h (1 Bft) W 279 0 min 0,000 mm 0,9 UV-I 175 W/m 6,6 C 7,8 C 6,4 km/h (2 Bft) 95,74 %
12.05.2019 15:44 7,8 C 13,9 C 10,0 C 93 % 1026,2 hPa 0,0 l/m 1,5 km/h (1 Bft) W-NW 285 0 min 0,000 mm 0,8 UV-I 167 W/m 6,7 C 7,8 C 3,2 km/h (1 Bft) 95,74 %
12.05.2019 15:46 7,9 C 13,9 C 10,6 C 93 % 1026,2 hPa 0,0 l/m 1,8 km/h (1 Bft) NW 313 0 min 0,000 mm 0,8 UV-I 172 W/m 6,8 C 7,9 C 3,2 km/h (1 Bft) 100,00 %
12.05.2019 15:48 7,8 C 13,9 C 10,6 C 92 % 1026,2 hPa 0,0 l/m 4,8 km/h (1 Bft) NO 39 0 min 0,000 mm 0,9 UV-I 184 W/m 6,6 C 7,8 C 9,7 km/h (2 Bft) 97,92 %
12.05.2019 15:50 7,9 C 13,9 C 10,6 C 92 % 1026,2 hPa 0,0 l/m 3,7 km/h (1 Bft) W 273 0 min 0,000 mm 0,9 UV-I 185 W/m 6,7 C 7,9 C 8,0 km/h (2 Bft) 98,00 %
12.05.2019 15:52 8,0 C 13,9 C 10,6 C 93 % 1026,3 hPa 0,0 l/m 3,5 km/h (1 Bft) W-NW 298 0 min 0,000 mm 0,9 UV-I 185 W/m 6,9 C 8,0 C 6,4 km/h (2 Bft) 97,37 %
12.05.2019 15:54 7,9 C 13,9 C 10,6 C 92 % 1026,3 hPa 0,0 l/m 6,2 km/h (2 Bft) N-NW 335 0 min 0,000 mm 0,8 UV-I 167 W/m 6,7 C 7,9 C 12,9 km/h (3 Bft) 95,74 %
12.05.2019 15:56 7,8 C 13,9 C 10,0 C 92 % 1026,3 hPa 0,0 l/m 5,9 km/h (2 Bft) W-NW 293 0 min 0,000 mm 0,7 UV-I 158 W/m 6,6 C 7,8 C 12,9 km/h (3 Bft) 97,87 %
12.05.2019 15:58 7,8 C 13,9 C 9,4 C 91 % 1026,3 hPa 0,0 l/m 4,2 km/h (1 Bft) N-NW 336 0 min 0,000 mm 0,7 UV-I 151 W/m 6,4 C 7,8 C 9,7 km/h (2 Bft) 97,87 %
12.05.2019 16:00 7,7 C 13,9 C 9,4 C 91 % 1026,3 hPa 0,0 l/m 1,5 km/h (1 Bft) N-NW 335 0 min 0,076 mm 0,6 UV-I 140 W/m 6,3 C 7,7 C 3,2 km/h (1 Bft) 97,87 %
12.05.2019 16:02 7,8 C 13,9 C 10,0 C 92 % 1026,4 hPa 0,0 l/m 3,1 km/h (1 Bft) W-NW 298 0 min 0,000 mm 0,6 UV-I 141 W/m 6,6 C 7,8 C 6,4 km/h (2 Bft) 100,00 %
12.05.2019 16:04 7,7 C 13,9 C 10,0 C 91 % 1026,5 hPa 0,0 l/m 3,0 km/h (1 Bft) W-NW 284 0 min 0,000 mm 0,6 UV-I 130 W/m 6,3 C 7,7 C 8,0 km/h (2 Bft) 98,39 %
12.05.2019 16:06 7,7 C 13,9 C 10,0 C 92 % 1026,4 hPa 0,0 l/m 2,4 km/h (1 Bft) N-NW 339 0 min 0,000 mm 0,5 UV-I 115 W/m 6,5 C 7,7 C 4,8 km/h (1 Bft) 97,87 %
12.05.2019 16:08 7,7 C 13,9 C 9,4 C 92 % 1026,5 hPa 0,0 l/m 2,8 km/h (1 Bft) NW 314 0 min 0,000 mm 0,3 UV-I 101 W/m 6,5 C 7,7 C 4,8 km/h (1 Bft) 100,00 %
12.05.2019 16:10 7,7 C 13,9 C 9,4 C 91 % 1026,6 hPa 0,2 l/m 4,8 km/h (1 Bft) W 261 0 min 0,000 mm 0,0 UV-I 90 W/m 6,3 C 7,7 C 8,0 km/h (2 Bft) 100,00 %
12.05.2019 16:12 7,6 C 13,9 C 9,4 C 91 % 1026,5 hPa 0,0 l/m 1,6 km/h (1 Bft) SW 234 0 min 0,000 mm 0,0 UV-I 92 W/m 6,2 C 7,6 C 4,8 km/h (1 Bft) 100,00 %
12.05.2019 16:14 7,6 C 13,9 C 9,4 C 91 % 1026,6 hPa 0,0 l/m 3,3 km/h (1 Bft) W-SW 243 0 min 0,000 mm 0,4 UV-I 99 W/m 6,2 C 7,6 C 4,8 km/h (1 Bft) 97,87 %
12.05.2019 16:16 7,5 C 13,9 C 8,9 C 91 % 1026,6 hPa 0,0 l/m 4,0 km/h (1 Bft) W-NW 287 0 min 0,000 mm 0,5 UV-I 104 W/m 6,1 C 7,5 C 8,0 km/h (2 Bft) 100,00 %
12.05.2019 16:18 7,5 C 13,9 C 9,4 C 91 % 1026,7 hPa 0,0 l/m 2,2 km/h (1 Bft) W-NW 294 0 min 0,000 mm 0,5 UV-I 110 W/m 6,1 C 7,5 C 4,8 km/h (1 Bft) 100,00 %
12.05.2019 16:20 7,4 C 13,9 C 9,4 C 91 % 1026,7 hPa 0,0 l/m 4,0 km/h (1 Bft) NW 309 0 min 0,000 mm 0,5 UV-I 115 W/m 6,0 C 7,4 C 8,0 km/h (2 Bft) 97,92 %
12.05.2019 16:22 7,4 C 13,9 C 8,9 C 91 % 1026,6 hPa 0,0 l/m 4,9 km/h (1 Bft) W 274 0 min 0,000 mm 0,5 UV-I 116 W/m 6,0 C 7,4 C 9,7 km/h (2 Bft) 100,00 %
12.05.2019 16:24 7,3 C 13,9 C 8,9 C 91 % 1026,7 hPa 0,0 l/m 3,3 km/h (1 Bft) W-NW 283 0 min 0,000 mm 0,5 UV-I 119 W/m 5,9 C 7,3 C 6,4 km/h (2 Bft) 100,00 %
12.05.2019 16:26 7,3 C 13,9 C 8,9 C 90 % 1026,7 hPa 0,0 l/m 2,1 km/h (1 Bft) W 276 0 min 0,000 mm 0,5 UV-I 120 W/m 5,8 C 7,3 C 3,2 km/h (1 Bft) 97,87 %
12.05.2019 16:28 7,4 C 13,9 C 8,9 C 91 % 1026,8 hPa 0,0 l/m 2,2 km/h (1 Bft) W 278 0 min 0,000 mm 0,5 UV-I 113 W/m 6,0 C 7,4 C 4,8 km/h (1 Bft) 95,74 %
12.05.2019 16:30 7,4 C 13,9 C 8,9 C 91 % 1026,8 hPa 0,0 l/m 2,0 km/h (1 Bft) W 279 0 min 0,000 mm 0,5 UV-I 112 W/m 6,0 C 7,4 C 3,2 km/h (1 Bft) 100,00 %
12.05.2019 16:32 7,4 C 13,9 C 9,4 C 91 % 1026,8 hPa 0,0 l/m 1,5 km/h (1 Bft) W 280 0 min 0,000 mm 0,5 UV-I 114 W/m 6,0 C 7,4 C 3,2 km/h (1 Bft) 100,00 %
12.05.2019 16:34 7,4 C 13,9 C 8,9 C 91 % 1026,8 hPa 0,2 l/m 3,1 km/h (1 Bft) N 349 0 min 0,000 mm 0,5 UV-I 113 W/m 6,0 C 7,4 C 4,8 km/h (1 Bft) 97,87 %
12.05.2019 16:36 7,4 C 13,9 C 8,9 C 91 % 1026,9 hPa 0,0 l/m 4,6 km/h (1 Bft) NW 323 0 min 0,000 mm 0,3 UV-I 106 W/m 6,0 C 7,4 C 8,0 km/h (2 Bft) 100,00 %
12.05.2019 16:38 7,4 C 13,9 C 8,9 C 90 % 1026,9 hPa 0,0 l/m 1,8 km/h (1 Bft) NW 323 0 min 0,000 mm 0,0 UV-I 101 W/m 5,9 C 7,4 C 3,2 km/h (1 Bft) 97,87 %
12.05.2019 16:40 7,5 C 13,9 C 8,9 C 90 % 1026,9 hPa 0,0 l/m 1,7 km/h (1 Bft) N-NW 329 0 min 0,000 mm 0,0 UV-I 100 W/m 6,0 C 7,5 C 4,8 km/h (1 Bft) 97,87 %
12.05.2019 16:42 7,5 C 13,9 C 8,9 C 91 % 1027,0 hPa 0,0 l/m 1,5 km/h (1 Bft) N-NW 329 0 min 0,000 mm 0,0 UV-I 101 W/m 6,1 C 7,5 C 3,2 km/h (1 Bft) 100,00 %
12.05.2019 16:44 7,6 C 13,9 C 8,9 C 91 % 1027,0 hPa 0,0 l/m 1,7 km/h (1 Bft) N-NW 329 0 min 0,000 mm 0,0 UV-I 100 W/m 6,2 C 7,6 C 3,2 km/h (1 Bft) 100,00 %
12.05.2019 16:46 7,6 C 13,9 C 8,9 C 91 % 1027,0 hPa 0,0 l/m 3,7 km/h (1 Bft) W-NW 286 0 min 0,000 mm 0,0 UV-I 98 W/m 6,2 C 7,6 C 8,0 km/h (2 Bft) 100,00 %
12.05.2019 16:48 7,6 C 13,9 C 8,9 C 91 % 1027,1 hPa 0,0 l/m 2,3 km/h (1 Bft) N-NO 19 0 min 0,000 mm 0,0 UV-I 99 W/m 6,2 C 7,6 C 4,8 km/h (1 Bft) 100,00 %
12.05.2019 16:50 7,5 C 13,9 C 8,9 C 91 % 1027,1 hPa 0,0 l/m 2,2 km/h (1 Bft) W 275 0 min 0,000 mm 0,0 UV-I 101 W/m 6,1 C 7,5 C 4,8 km/h (1 Bft) 97,87 %
12.05.2019 16:52 7,4 C 13,9 C 8,9 C 91 % 1027,1 hPa 0,0 l/m 6,2 km/h (2 Bft) W 275 0 min 0,000 mm 0,0 UV-I 104 W/m 6,0 C 7,4 C 14,5 km/h (3 Bft) 100,00 %
12.05.2019 16:54 7,4 C 13,9 C 8,9 C 91 % 1027,0 hPa 0,0 l/m 4,0 km/h (1 Bft) N 355 0 min 0,000 mm 0,0 UV-I 105 W/m 6,0 C 7,4 C 6,4 km/h (2 Bft) 97,87 %
12.05.2019 16:56 7,5 C 13,9 C 8,9 C 91 % 1027,1 hPa 0,0 l/m 3,4 km/h (1 Bft) W 279 0 min 0,000 mm 0,0 UV-I 106 W/m 6,1 C 7,5 C 4,8 km/h (1 Bft) 97,87 %
12.05.2019 16:58 7,5 C 13,9 C 8,9 C 92 % 1027,1 hPa 0,0 l/m 4,0 km/h (1 Bft) W 281 0 min 0,000 mm 0,0 UV-I 105 W/m 6,3 C 7,5 C 6,4 km/h (2 Bft) 97,37 %
12.05.2019 17:00 7,5 C 13,9 C 8,9 C 92 % 1027,1 hPa 0,0 l/m 3,1 km/h (1 Bft) W 278 0 min 0,000 mm 0,0 UV-I 103 W/m 6,3 C 7,5 C 4,8 km/h (1 Bft) 100,00 %
12.05.2019 17:02 7,5 C 13,9 C 8,9 C 92 % 1027,1 hPa 0,2 l/m 2,5 km/h (1 Bft) W-SW 246 0 min 0,051 mm 0,0 UV-I 99 W/m 6,3 C 7,5 C 4,8 km/h (1 Bft) 94,00 %
12.05.2019 17:04 7,5 C 13,9 C 8,9 C 91 % 1027,2 hPa 0,0 l/m 3,6 km/h (1 Bft) W 262 0 min 0,000 mm 0,0 UV-I 99 W/m 6,1 C 7,5 C 4,8 km/h (1 Bft) 97,87 %
12.05.2019 17:06 7,6 C 13,9 C 8,9 C 92 % 1027,1 hPa 0,0 l/m 2,7 km/h (1 Bft) NW 320 0 min 0,000 mm 0,0 UV-I 103 W/m 6,4 C 7,6 C 4,8 km/h (1 Bft) 95,74 %
12.05.2019 17:09 7,6 C 13,9 C 8,9 C 92 % 1027,2 hPa 0,0 l/m 3,8 km/h (1 Bft) W-SW 257 0 min 0,000 mm 0,0 UV-I 104 W/m 6,4 C 7,6 C 9,7 km/h (2 Bft) 96,05 %
12.05.2019 17:10 7,6 C 13,9 C 9,4 C 92 % 1027,2 hPa 0,0 l/m 3,4 km/h (1 Bft) W 263 0 min 0,000 mm 0,0 UV-I 99 W/m 6,4 C 7,6 C 6,4 km/h (2 Bft) 91,67 %
12.05.2019 17:12 7,6 C 13,9 C 8,9 C 92 % 1027,3 hPa 0,2 l/m 5,7 km/h (1 Bft) W 262 0 min 0,000 mm 0,0 UV-I 96 W/m 6,4 C 7,6 C 11,3 km/h (2 Bft) 93,62 %
12.05.2019 17:14 7,5 C 13,9 C 8,9 C 92 % 1027,3 hPa 0,0 l/m 6,1 km/h (2 Bft) W 269 0 min 0,000 mm 0,0 UV-I 90 W/m 6,3 C 7,5 C 8,0 km/h (2 Bft) 95,74 %
12.05.2019 17:16 7,5 C 13,9 C 8,9 C 93 % 1027,3 hPa 0,0 l/m 3,9 km/h (1 Bft) W 265 0 min 0,000 mm 0,0 UV-I 86 W/m 6,4 C 7,5 C 6,4 km/h (2 Bft) 93,62 %
12.05.2019 17:18 7,5 C 13,9 C 8,9 C 93 % 1027,4 hPa 0,0 l/m 4,5 km/h (1 Bft) W 272 0 min 0,000 mm 0,0 UV-I 87 W/m 6,4 C 7,5 C 9,7 km/h (2 Bft) 93,62 %
12.05.2019 17:20 7,5 C 13,9 C 8,9 C 93 % 1027,4 hPa 0,0 l/m 7,1 km/h (2 Bft) W 265 0 min 0,000 mm 0,0 UV-I 90 W/m 6,4 C 6,9 C 12,9 km/h (3 Bft) 95,74 %
12.05.2019 17:22 7,6 C 13,9 C 8,9 C 93 % 1027,4 hPa 0,0 l/m 5,6 km/h (1 Bft) W 265 0 min 0,000 mm 0,0 UV-I 88 W/m 6,5 C 7,6 C 9,7 km/h (2 Bft) 95,74 %
12.05.2019 17:24 7,6 C 13,9 C 8,9 C 93 % 1027,4 hPa 0,0 l/m 6,9 km/h (2 Bft) W 266 0 min 0,000 mm 0,0 UV-I 79 W/m 6,5 C 7,2 C 11,3 km/h (2 Bft) 96,00 %
12.05.2019 17:26 7,6 C 13,9 C 8,3 C 92 % 1027,5 hPa 0,0 l/m 6,6 km/h (2 Bft) W-SW 256 0 min 0,000 mm 0,0 UV-I 77 W/m 6,4 C 7,5 C 9,7 km/h (2 Bft) 91,49 %
12.05.2019 17:28 7,6 C 13,9 C 8,3 C 93 % 1027,5 hPa 0,0 l/m 5,5 km/h (1 Bft) W-SW 249 0 min 0,000 mm 0,0 UV-I 78 W/m 6,5 C 7,6 C 8,0 km/h (2 Bft) 97,87 %
12.05.2019 17:30 7,6 C 13,9 C 8,9 C 93 % 1027,5 hPa 0,0 l/m 5,0 km/h (1 Bft) W 262 0 min 0,000 mm 0,0 UV-I 79 W/m 6,5 C 7,6 C 11,3 km/h (2 Bft) 93,62 %
12.05.2019 17:32 7,6 C 13,9 C 8,3 C 93 % 1027,6 hPa 0,2 l/m 6,0 km/h (2 Bft) W-SW 246 0 min 0,000 mm 0,0 UV-I 75 W/m 6,5 C 7,6 C 11,3 km/h (2 Bft) 97,87 %
12.05.2019 17:34 7,6 C 13,9 C 8,3 C 93 % 1027,5 hPa 0,0 l/m 6,4 km/h (2 Bft) W 261 0 min 0,000 mm 0,0 UV-I 68 W/m 6,5 C 7,6 C 12,9 km/h (3 Bft) 97,44 %
12.05.2019 17:36 7,6 C 13,9 C 8,3 C 93 % 1027,6 hPa 0,0 l/m 7,3 km/h (2 Bft) W-SW 250 0 min 0,000 mm 0,0 UV-I 60 W/m 6,5 C 6,9 C 12,9 km/h (3 Bft) 98,00 %
12.05.2019 17:38 7,6 C 13,9 C 8,3 C 93 % 1027,7 hPa 0,0 l/m 9,8 km/h (2 Bft) W-SW 238 0 min 0,000 mm 0,0 UV-I 55 W/m 6,5 C 5,1 C 14,5 km/h (3 Bft) 95,74 %
12.05.2019 17:40 7,6 C 13,9 C 8,3 C 93 % 1027,7 hPa 0,2 l/m 10,1 km/h (2 Bft) SW 222 0 min 0,000 mm 0,0 UV-I 54 W/m 6,5 C 4,9 C 16,1 km/h (3 Bft) 97,87 %
12.05.2019 17:42 7,5 C 13,9 C 8,3 C 93 % 1027,7 hPa 0,0 l/m 10,9 km/h (2 Bft) W-SW 242 0 min 0,000 mm 0,0 UV-I 56 W/m 6,4 C 4,3 C 16,1 km/h (3 Bft) 97,87 %
12.05.2019 17:44 7,6 C 13,9 C 8,3 C 93 % 1027,7 hPa 0,0 l/m 7,6 km/h (2 Bft) SW 225 0 min 0,000 mm 0,0 UV-I 58 W/m 6,5 C 6,6 C 14,5 km/h (3 Bft) 97,87 %
12.05.2019 17:46 7,6 C 13,9 C 8,3 C 94 % 1027,7 hPa 0,0 l/m 9,4 km/h (2 Bft) S-SW 211 0 min 0,000 mm 0,0 UV-I 59 W/m 6,7 C 5,3 C 14,5 km/h (3 Bft) 100,00 %
12.05.2019 17:48 7,5 C 13,9 C 8,3 C 94 % 1027,7 hPa 0,0 l/m 10,2 km/h (2 Bft) SW 225 0 min 0,000 mm 0,0 UV-I 63 W/m 6,6 C 4,7 C 14,5 km/h (3 Bft) 97,87 %
12.05.2019 17:50 7,4 C 13,9 C 8,3 C 94 % 1027,7 hPa 0,2 l/m 5,8 km/h (2 Bft) S-SW 201 0 min 0,000 mm 0,0 UV-I 63 W/m 6,5 C 7,4 C 11,3 km/h (2 Bft) 95,74 %
12.05.2019 17:52 7,4 C 13,9 C 8,3 C 94 % 1027,7 hPa 0,0 l/m 8,8 km/h (2 Bft) S-SW 210 0 min 0,000 mm 0,0 UV-I 63 W/m 6,5 C 5,5 C 14,5 km/h (3 Bft) 97,87 %
12.05.2019 17:54 7,3 C 13,9 C 8,3 C 94 % 1027,8 hPa 0,0 l/m 10,0 km/h (2 Bft) SW 228 0 min 0,000 mm 0,0 UV-I 62 W/m 6,4 C 4,6 C 14,5 km/h (3 Bft) 97,87 %
12.05.2019 17:56 7,3 C 13,9 C 8,3 C 94 % 1027,8 hPa 0,0 l/m 9,5 km/h (2 Bft) SW 214 0 min 0,000 mm 0,0 UV-I 66 W/m 6,4 C 4,9 C 14,5 km/h (3 Bft) 97,87 %
12.05.2019 17:58 7,3 C 13,9 C 8,3 C 94 % 1027,8 hPa 0,2 l/m 7,0 km/h (2 Bft) S 173 0 min 0,000 mm 0,0 UV-I 74 W/m 6,4 C 6,8 C 11,3 km/h (2 Bft) 97,87 %
12.05.2019 18:00 7,2 C 13,9 C 8,3 C 94 % 1027,8 hPa 0,0 l/m 9,3 km/h (2 Bft) SW 223 0 min 0,000 mm 0,0 UV-I 74 W/m 6,3 C 5,0 C 16,1 km/h (3 Bft) 100,00 %
12.05.2019 18:02 7,2 C 13,9 C 8,3 C 94 % 1027,8 hPa 0,0 l/m 6,8 km/h (2 Bft) S-SW 209 0 min 0,026 mm 0,0 UV-I 70 W/m 6,3 C 6,9 C 9,7 km/h (2 Bft) 96,00 %
12.05.2019 18:04 7,2 C 13,9 C 8,3 C 94 % 1027,8 hPa 0,0 l/m 6,9 km/h (2 Bft) SW 234 0 min 0,000 mm 0,0 UV-I 70 W/m 6,3 C 6,8 C 12,9 km/h (3 Bft) 97,37 %
12.05.2019 18:06 7,2 C 13,9 C 8,3 C 94 % 1027,9 hPa 0,0 l/m 6,0 km/h (2 Bft) SW 220 0 min 0,000 mm 0,0 UV-I 68 W/m 6,3 C 7,2 C 11,3 km/h (2 Bft) 97,87 %
12.05.2019 18:08 7,3 C 13,9 C 8,3 C 95 % 1027,9 hPa 0,2 l/m 5,8 km/h (2 Bft) W-SW 237 0 min 0,000 mm 0,0 UV-I 58 W/m 6,6 C 7,3 C 8,0 km/h (2 Bft) 97,87 %
12.05.2019 18:10 7,3 C 13,9 C 8,3 C 95 % 1027,9 hPa 0,0 l/m 7,8 km/h (2 Bft) W-SW 255 0 min 0,000 mm 0,0 UV-I 52 W/m 6,6 C 6,2 C 12,9 km/h (3 Bft) 97,87 %
12.05.2019 18:12 7,2 C 13,9 C 8,3 C 94 % 1027,9 hPa 0,0 l/m 7,4 km/h (2 Bft) SW 223 0 min 0,000 mm 0,0 UV-I 62 W/m 6,3 C 6,4 C 11,3 km/h (2 Bft) 96,00 %
12.05.2019 18:14 7,2 C 13,9 C 8,3 C 95 % 1027,9 hPa 0,2 l/m 8,7 km/h (2 Bft) W-SW 240 0 min 0,000 mm 0,0 UV-I 68 W/m 6,5 C 5,4 C 14,5 km/h (3 Bft) 97,87 %
12.05.2019 18:16 7,2 C 13,9 C 7,8 C 95 % 1028,0 hPa 0,0 l/m 14,6 km/h (3 Bft) W-SW 241 0 min 0,000 mm 0,0 UV-I 63 W/m 6,5 C 1,9 C 19,3 km/h (3 Bft) 97,87 %
12.05.2019 18:18 7,2 C 13,9 C 8,3 C 95 % 1028,0 hPa 0,0 l/m 9,8 km/h (2 Bft) SW 229 0 min 0,000 mm 0,0 UV-I 63 W/m 6,5 C 4,6 C 16,1 km/h (3 Bft) 97,92 %
12.05.2019 18:20 7,2 C 13,9 C 8,3 C 95 % 1028,0 hPa 0,0 l/m 8,5 km/h (2 Bft) W-SW 252 0 min 0,000 mm 0,0 UV-I 71 W/m 6,5 C 5,5 C 14,5 km/h (3 Bft) 97,87 %
12.05.2019 18:22 7,2 C 13,9 C 8,3 C 95 % 1028,0 hPa 0,0 l/m 7,9 km/h (2 Bft) S-SW 210 0 min 0,000 mm 0,0 UV-I 77 W/m 6,5 C 6,0 C 12,9 km/h (3 Bft) 93,62 %
12.05.2019 18:24 7,2 C 13,9 C 8,3 C 95 % 1028,0 hPa 0,2 l/m 10,4 km/h (2 Bft) W-SW 240 0 min 0,000 mm 0,0 UV-I 78 W/m 6,5 C 4,2 C 19,3 km/h (3 Bft) 94,00 %
12.05.2019 18:26 7,2 C 13,9 C 8,3 C 94 % 1028,0 hPa 0,0 l/m 11,5 km/h (2 Bft) SW 221 0 min 0,000 mm 0,0 UV-I 75 W/m 6,3 C 3,6 C 17,7 km/h (3 Bft) 97,87 %
12.05.2019 18:28 7,2 C 13,9 C 7,8 C 95 % 1028,0 hPa 0,0 l/m 9,0 km/h (2 Bft) W 261 0 min 0,000 mm 0,0 UV-I 70 W/m 6,5 C 5,2 C 16,1 km/h (3 Bft) 93,62 %
12.05.2019 18:30 7,2 C 13,9 C 7,8 C 95 % 1028,1 hPa 0,0 l/m 10,7 km/h (2 Bft) SW 234 0 min 0,000 mm 0,0 UV-I 67 W/m 6,5 C 4,1 C 16,1 km/h (3 Bft) 97,37 %
12.05.2019 18:32 7,1 C 13,9 C 7,8 C 94 % 1028,1 hPa 0,0 l/m 7,6 km/h (2 Bft) SW 231 0 min 0,000 mm 0,0 UV-I 61 W/m 6,2 C 6,1 C 11,3 km/h (2 Bft) 95,74 %
12.05.2019 18:34 7,2 C 13,9 C 7,8 C 95 % 1028,2 hPa 0,2 l/m 9,8 km/h (2 Bft) SW 223 0 min 0,000 mm 0,0 UV-I 57 W/m 6,5 C 4,6 C 16,1 km/h (3 Bft) 91,49 %
12.05.2019 18:36 7,1 C 13,9 C 7,8 C 95 % 1028,3 hPa 0,0 l/m 9,7 km/h (2 Bft) SW 215 0 min 0,000 mm 0,0 UV-I 56 W/m 6,4 C 4,6 C 14,5 km/h (3 Bft) 92,00 %
12.05.2019 18:38 7,1 C 13,9 C 7,8 C 95 % 1028,3 hPa 0,0 l/m 8,5 km/h (2 Bft) SW 231 0 min 0,000 mm 0,0 UV-I 56 W/m 6,4 C 5,4 C 12,9 km/h (3 Bft) 95,74 %
12.05.2019 18:40 7,2 C 13,9 C 7,8 C 95 % 1028,2 hPa 0,0 l/m 7,4 km/h (2 Bft) W-SW 243 0 min 0,000 mm 0,0 UV-I 55 W/m 6,5 C 6,4 C 14,5 km/h (3 Bft) 92,00 %
12.05.2019 18:42 7,2 C 13,9 C 7,8 C 95 % 1028,3 hPa 0,0 l/m 6,2 km/h (2 Bft) SW 221 0 min 0,000 mm 0,0 UV-I 53 W/m 6,5 C 7,2 C 11,3 km/h (2 Bft) 95,74 %
12.05.2019 18:44 7,1 C 13,9 C 7,8 C 95 % 1028,3 hPa 0,0 l/m 9,7 km/h (2 Bft) S-SW 203 0 min 0,000 mm 0,0 UV-I 51 W/m 6,4 C 4,6 C 14,5 km/h (3 Bft) 97,87 %
12.05.2019 18:46 7,1 C 13,9 C 7,8 C 95 % 1028,3 hPa 0,0 l/m 8,6 km/h (2 Bft) S-SW 201 0 min 0,000 mm 0,0 UV-I 50 W/m 6,4 C 5,4 C 14,5 km/h (3 Bft) 95,74 %
12.05.2019 18:48 7,1 C 13,9 C 7,8 C 95 % 1028,3 hPa 0,2 l/m 7,2 km/h (2 Bft) W-SW 241 0 min 0,000 mm 0,0 UV-I 47 W/m 6,4 C 6,4 C 11,3 km/h (2 Bft) 93,62 %
12.05.2019 18:50 7,1 C 13,9 C 7,8 C 95 % 1028,3 hPa 0,0 l/m 6,7 km/h (2 Bft) S-SW 203 0 min 0,000 mm 0,0 UV-I 44 W/m 6,4 C 6,9 C 12,9 km/h (3 Bft) 95,74 %
12.05.2019 18:52 7,1 C 13,9 C 7,8 C 95 % 1028,3 hPa 0,0 l/m 8,1 km/h (2 Bft) W-SW 245 0 min 0,000 mm 0,0 UV-I 42 W/m 6,4 C 5,7 C 12,9 km/h (3 Bft) 97,87 %
12.05.2019 18:54 7,1 C 13,9 C 7,8 C 95 % 1028,4 hPa 0,0 l/m 7,1 km/h (2 Bft) W-SW 244 0 min 0,000 mm 0,0 UV-I 40 W/m 6,4 C 6,5 C 9,7 km/h (2 Bft) 100,00 %
12.05.2019 18:56 7,1 C 13,9 C 7,8 C 95 % 1028,4 hPa 0,0 l/m 8,6 km/h (2 Bft) S-SW 211 0 min 0,000 mm 0,0 UV-I 44 W/m 6,4 C 5,4 C 11,3 km/h (2 Bft) 100,00 %
12.05.2019 18:58 7,1 C 13,9 C 7,8 C 95 % 1028,4 hPa 0,2 l/m 8,0 km/h (2 Bft) SW 217 0 min 0,000 mm 0,0 UV-I 46 W/m 6,4 C 5,8 C 12,9 km/h (3 Bft) 95,74 %
12.05.2019 19:00 7,1 C 13,9 C 7,8 C 95 % 1028,4 hPa 0,0 l/m 7,1 km/h (2 Bft) SW 216 0 min 0,025 mm 0,0 UV-I 46 W/m 6,4 C 6,5 C 9,7 km/h (2 Bft) 95,74 %
12.05.2019 19:02 7,1 C 13,9 C 7,8 C 95 % 1028,4 hPa 0,0 l/m 8,5 km/h (2 Bft) SW 225 0 min 0,000 mm 0,0 UV-I 43 W/m 6,4 C 5,4 C 14,5 km/h (3 Bft) 100,00 %
12.05.2019 19:04 7,1 C 13,9 C 7,8 C 95 % 1028,4 hPa 0,0 l/m 8,8 km/h (2 Bft) SW 222 0 min 0,000 mm 0,0 UV-I 42 W/m 6,4 C 5,2 C 12,9 km/h (3 Bft) 100,00 %
12.05.2019 19:06 7,1 C 13,9 C 7,8 C 95 % 1028,4 hPa 0,0 l/m 8,1 km/h (2 Bft) W-SW 245 0 min 0,000 mm 0,0 UV-I 40 W/m 6,4 C 5,7 C 12,9 km/h (3 Bft) 98,00 %
12.05.2019 19:08 7,1 C 13,9 C 7,8 C 95 % 1028,4 hPa 0,0 l/m 7,2 km/h (2 Bft) SW 217 0 min 0,000 mm 0,0 UV-I 37 W/m 6,4 C 6,4 C 11,3 km/h (2 Bft) 100,00 %
12.05.2019 19:10 7,1 C 13,9 C 7,8 C 95 % 1028,5 hPa 0,0 l/m 8,6 km/h (2 Bft) SW 223 0 min 0,000 mm 0,0 UV-I 36 W/m 6,4 C 5,4 C 12,9 km/h (3 Bft) 93,62 %
12.05.2019 19:12 7,1 C 13,9 C 7,8 C 95 % 1028,6 hPa 0,0 l/m 7,3 km/h (2 Bft) SW 214 0 min 0,000 mm 0,0 UV-I 33 W/m 6,4 C 6,4 C 12,9 km/h (3 Bft) 97,87 %
12.05.2019 19:14 7,1 C 13,9 C 7,8 C 95 % 1028,6 hPa 0,0 l/m 7,6 km/h (2 Bft) SW 220 0 min 0,000 mm 0,0 UV-I 25 W/m 6,4 C 6,1 C 14,5 km/h (3 Bft) 97,87 %
12.05.2019 19:16 7,1 C 13,9 C 7,8 C 95 % 1028,7 hPa 0,2 l/m 9,3 km/h (2 Bft) SW 219 0 min 0,000 mm 0,0 UV-I 20 W/m 6,4 C 4,9 C 12,9 km/h (3 Bft) 97,87 %
12.05.2019 19:18 7,1 C 13,9 C 7,2 C 95 % 1028,8 hPa 0,0 l/m 11,3 km/h (2 Bft) SW 215 0 min 0,000 mm 0,0 UV-I 18 W/m 6,4 C 3,6 C 19,3 km/h (3 Bft) 97,87 %
12.05.2019 19:20 7,1 C 13,9 C 7,2 C 95 % 1028,7 hPa 0,0 l/m 7,1 km/h (2 Bft) SW 225 0 min 0,000 mm 0,0 UV-I 18 W/m 6,4 C 6,5 C 14,5 km/h (3 Bft) 97,87 %
12.05.2019 19:22 7,1 C 13,9 C 7,2 C 95 % 1028,8 hPa 0,0 l/m 8,6 km/h (2 Bft) S-SW 207 0 min 0,000 mm 0,0 UV-I 18 W/m 6,4 C 5,4 C 14,5 km/h (3 Bft) 97,87 %
12.05.2019 19:24 7,0 C 13,9 C 7,2 C 95 % 1028,8 hPa 0,0 l/m 6,9 km/h (2 Bft) SW 217 0 min 0,000 mm 0,0 UV-I 18 W/m 6,3 C 6,6 C 11,3 km/h (2 Bft) 97,37 %
12.05.2019 19:26 7,1 C 13,9 C 7,2 C 95 % 1028,8 hPa 0,0 l/m 9,5 km/h (2 Bft) SW 217 0 min 0,000 mm 0,0 UV-I 18 W/m 6,4 C 4,7 C 14,5 km/h (3 Bft) 98,00 %
12.05.2019 19:28 7,1 C 13,9 C 7,2 C 95 % 1028,8 hPa 0,0 l/m 10,4 km/h (2 Bft) S-SW 206 0 min 0,000 mm 0,0 UV-I 18 W/m 6,4 C 4,1 C 16,1 km/h (3 Bft) 95,74 %
12.05.2019 19:30 7,0 C 13,9 C 7,2 C 95 % 1028,9 hPa 0,0 l/m 7,3 km/h (2 Bft) W-SW 245 0 min 0,000 mm 0,0 UV-I 18 W/m 6,3 C 6,3 C 14,5 km/h (3 Bft) 97,87 %
12.05.2019 19:32 7,1 C 13,9 C 7,2 C 95 % 1028,8 hPa 0,0 l/m 9,2 km/h (2 Bft) W-SW 239 0 min 0,000 mm 0,0 UV-I 20 W/m 6,4 C 4,9 C 12,9 km/h (3 Bft) 97,92 %
12.05.2019 19:34 7,1 C 13,9 C 7,2 C 95 % 1028,9 hPa 0,0 l/m 7,1 km/h (2 Bft) W-SW 245 0 min 0,000 mm 0,0 UV-I 21 W/m 6,4 C 6,5 C 11,3 km/h (2 Bft) 97,87 %
12.05.2019 19:36 7,1 C 13,9 C 7,2 C 95 % 1028,9 hPa 0,0 l/m 8,2 km/h (2 Bft) W-SW 247 0 min 0,000 mm 0,0 UV-I 20 W/m 6,4 C 5,7 C 12,9 km/h (3 Bft) 93,62 %
12.05.2019 19:38 7,1 C 13,9 C 7,2 C 95 % 1028,9 hPa 0,0 l/m 7,9 km/h (2 Bft) W 267 0 min 0,000 mm 0,0 UV-I 15 W/m 6,4 C 5,9 C 12,9 km/h (3 Bft) 97,87 %
12.05.2019 19:40 7,1 C 13,9 C 7,2 C 95 % 1028,9 hPa 0,2 l/m 7,3 km/h (2 Bft) SW 222 0 min 0,000 mm 0,0 UV-I 14 W/m 6,4 C 6,4 C 12,9 km/h (3 Bft) 97,87 %
12.05.2019 19:42 7,1 C 13,9 C 7,2 C 95 % 1028,9 hPa 0,0 l/m 8,3 km/h (2 Bft) SW 231 0 min 0,000 mm 0,0 UV-I 16 W/m 6,4 C 5,6 C 12,9 km/h (3 Bft) 97,87 %
12.05.2019 19:44 7,1 C 13,9 C 7,2 C 95 % 1029,0 hPa 0,0 l/m 8,2 km/h (2 Bft) S-SW 213 0 min 0,000 mm 0,0 UV-I 15 W/m 6,4 C 5,7 C 12,9 km/h (3 Bft) 96,00 %
12.05.2019 19:46 7,1 C 13,9 C 7,2 C 95 % 1029,0 hPa 0,0 l/m 10,1 km/h (2 Bft) W-SW 240 0 min 0,000 mm 0,0 UV-I 13 W/m 6,4 C 4,3 C 12,9 km/h (3 Bft) 95,74 %
12.05.2019 19:48 7,1 C 13,9 C 7,2 C 95 % 1029,0 hPa 0,0 l/m 8,4 km/h (2 Bft) SW 220 0 min 0,000 mm 0,0 UV-I 12 W/m 6,4 C 5,5 C 14,5 km/h (3 Bft) 100,00 %
12.05.2019 19:50 7,1 C 13,9 C 7,2 C 95 % 1029,0 hPa 0,0 l/m 6,5 km/h (2 Bft) W-SW 238 0 min 0,000 mm 0,0 UV-I 12 W/m 6,4 C 7,0 C 9,7 km/h (2 Bft) 97,87 %
12.05.2019 19:52 7,1 C 13,9 C 7,2 C 95 % 1029,1 hPa 0,0 l/m 6,5 km/h (2 Bft) W-SW 239 0 min 0,000 mm 0,0 UV-I 11 W/m 6,4 C 7,0 C 9,7 km/h (2 Bft) 97,87 %
12.05.2019 19:54 7,1 C 13,9 C 7,2 C 95 % 1029,1 hPa 0,0 l/m 7,9 km/h (2 Bft) W-SW 247 0 min 0,000 mm 0,0 UV-I 10 W/m 6,4 C 5,9 C 14,5 km/h (3 Bft) 95,74 %
12.05.2019 19:56 7,1 C 13,9 C 7,2 C 95 % 1029,2 hPa 0,2 l/m 11,2 km/h (2 Bft) W-SW 242 0 min 0,000 mm 0,0 UV-I 9 W/m 6,4 C 3,6 C 16,1 km/h (3 Bft) 93,62 %
12.05.2019 19:58 7,1 C 13,9 C 7,2 C 95 % 1029,2 hPa 0,0 l/m 7,4 km/h (2 Bft) W-SW 257 0 min 0,000 mm 0,0 UV-I 10 W/m 6,4 C 6,3 C 11,3 km/h (2 Bft) 95,74 %
12.05.2019 20:00 7,1 C 13,9 C 7,2 C 95 % 1029,2 hPa 0,0 l/m 8,1 km/h (2 Bft) W-SW 247 0 min 0,025 mm 0,0 UV-I 11 W/m 6,4 C 5,7 C 11,3 km/h (2 Bft) 92,68 %
12.05.2019 20:02 7,1 C 13,9 C 7,2 C 95 % 1029,2 hPa 0,0 l/m 8,2 km/h (2 Bft) SW 234 0 min 0,000 mm 0,0 UV-I 11 W/m 6,4 C 5,7 C 11,3 km/h (2 Bft) 97,87 %
12.05.2019 20:04 7,1 C 13,9 C 7,2 C 95 % 1029,2 hPa 0,2 l/m 11,3 km/h (2 Bft) W-SW 238 0 min 0,000 mm 0,0 UV-I 10 W/m 6,4 C 3,6 C 14,5 km/h (3 Bft) 95,74 %
12.05.2019 20:06 7,1 C 13,9 C 7,2 C 95 % 1029,2 hPa 0,0 l/m 8,6 km/h (2 Bft) SW 229 0 min 0,000 mm 0,0 UV-I 7 W/m 6,4 C 5,4 C 16,1 km/h (3 Bft) 97,87 %
12.05.2019 20:08 7,0 C 13,9 C 7,2 C 95 % 1029,2 hPa 0,0 l/m 8,2 km/h (2 Bft) W-SW 256 0 min 0,000 mm 0,0 UV-I 7 W/m 6,3 C 5,5 C 12,9 km/h (3 Bft) 90,00 %
12.05.2019 20:10 7,0 C 13,9 C 7,2 C 95 % 1029,2 hPa 0,0 l/m 7,5 km/h (2 Bft) W-NW 286 0 min 0,000 mm 0,0 UV-I 6 W/m 6,3 C 6,1 C 12,9 km/h (3 Bft) 95,74 %
12.05.2019 20:12 6,9 C 13,9 C 7,2 C 95 % 1029,2 hPa 0,0 l/m 6,9 km/h (2 Bft) W-SW 243 0 min 0,000 mm 0,0 UV-I 5 W/m 6,2 C 6,5 C 9,7 km/h (2 Bft) 97,44 %
12.05.2019 20:14 7,0 C 13,9 C 7,2 C 95 % 1029,2 hPa 0,2 l/m 7,9 km/h (2 Bft) W 273 0 min 0,000 mm 0,0 UV-I 5 W/m 6,3 C 5,8 C 12,9 km/h (3 Bft) 98,00 %
12.05.2019 20:16 7,0 C 13,9 C 7,2 C 95 % 1029,2 hPa 0,0 l/m 7,1 km/h (2 Bft) W-NW 292 0 min 0,000 mm 0,0 UV-I 5 W/m 6,3 C 6,4 C 12,9 km/h (3 Bft) 97,87 %
12.05.2019 20:18 7,0 C 13,9 C 7,2 C 95 % 1029,2 hPa 0,0 l/m 8,5 km/h (2 Bft) W 281 0 min 0,000 mm 0,0 UV-I 5 W/m 6,3 C 5,3 C 12,9 km/h (3 Bft) 95,74 %
12.05.2019 20:20 7,0 C 13,9 C 7,2 C 95 % 1029,3 hPa 0,2 l/m 5,0 km/h (1 Bft) W 275 0 min 0,000 mm 0,0 UV-I 5 W/m 6,3 C 7,0 C 9,7 km/h (2 Bft) 100,00 %
12.05.2019 20:22 7,0 C 13,9 C 7,2 C 95 % 1029,3 hPa 0,0 l/m 7,7 km/h (2 Bft) W-SW 252 0 min 0,000 mm 0,0 UV-I 5 W/m 6,3 C 5,9 C 12,9 km/h (3 Bft) 97,56 %
12.05.2019 20:24 6,9 C 13,9 C 7,2 C 95 % 1029,3 hPa 0,0 l/m 8,0 km/h (2 Bft) SW 234 0 min 0,000 mm 0,0 UV-I 5 W/m 6,2 C 5,6 C 12,9 km/h (3 Bft) 95,74 %
12.05.2019 20:26 7,0 C 13,9 C 7,2 C 95 % 1029,3 hPa 0,0 l/m 7,3 km/h (2 Bft) SW 232 0 min 0,000 mm 0,0 UV-I 5 W/m 6,3 C 6,3 C 11,3 km/h (2 Bft) 100,00 %
12.05.2019 20:28 6,9 C 13,9 C 7,2 C 95 % 1029,4 hPa 0,0 l/m 5,1 km/h (1 Bft) W-SW 248 0 min 0,000 mm 0,0 UV-I 4 W/m 6,2 C 6,9 C 8,0 km/h (2 Bft) 100,00 %
12.05.2019 20:30 6,9 C 13,9 C 7,2 C 95 % 1029,5 hPa 0,0 l/m 11,3 km/h (2 Bft) W-SW 244 0 min 0,000 mm 0,0 UV-I 0 W/m 6,2 C 3,4 C 16,1 km/h (3 Bft) 100,00 %
12.05.2019 20:32 7,0 C 13,9 C 7,2 C 96 % 1029,5 hPa 0,0 l/m 9,0 km/h (2 Bft) SW 226 0 min 0,000 mm 0,0 UV-I 0 W/m 6,4 C 5,0 C 16,1 km/h (3 Bft) 100,00 %
12.05.2019 20:34 7,0 C 13,9 C 7,2 C 96 % 1029,5 hPa 0,0 l/m 9,6 km/h (2 Bft) SW 226 0 min 0,000 mm 0,0 UV-I 0 W/m 6,4 C 4,5 C 12,9 km/h (3 Bft) 100,00 %
12.05.2019 20:36 7,0 C 13,9 C 7,2 C 96 % 1029,5 hPa 0,0 l/m 7,7 km/h (2 Bft) W-SW 246 0 min 0,000 mm 0,0 UV-I 0 W/m 6,4 C 5,9 C 14,5 km/h (3 Bft) 100,00 %
12.05.2019 20:38 7,0 C 13,9 C 7,2 C 96 % 1029,5 hPa 0,0 l/m 9,2 km/h (2 Bft) W-SW 246 0 min 0,000 mm 0,0 UV-I 0 W/m 6,4 C 4,8 C 14,5 km/h (3 Bft) 100,00 %
12.05.2019 20:40 7,0 C 13,9 C 7,2 C 96 % 1029,5 hPa 0,0 l/m 8,7 km/h (2 Bft) W-SW 246 0 min 0,000 mm 0,0 UV-I 0 W/m 6,4 C 5,2 C 16,1 km/h (3 Bft) 100,00 %
12.05.2019 20:42 7,1 C 13,9 C 7,2 C 96 % 1029,5 hPa 0,0 l/m 10,5 km/h (2 Bft) W-SW 248 0 min 0,000 mm 0,0 UV-I 0 W/m 6,5 C 4,1 C 17,7 km/h (3 Bft) 100,00 %
12.05.2019 20:44 7,1 C 13,9 C 7,2 C 96 % 1029,5 hPa 0,0 l/m 11,8 km/h (2 Bft) W-SW 257 0 min 0,000 mm 0,0 UV-I 0 W/m 6,5 C 3,3 C 16,1 km/h (3 Bft) 98,00 %
12.05.2019 20:46 7,0 C 13,9 C 7,2 C 96 % 1029,5 hPa 0,0 l/m 11,0 km/h (2 Bft) SW 231 0 min 0,000 mm 0,0 UV-I 0 W/m 6,4 C 3,6 C 16,1 km/h (3 Bft) 100,00 %
12.05.2019 20:49 7,0 C 13,9 C 7,2 C 96 % 1029,5 hPa 0,2 l/m 9,7 km/h (2 Bft) S-SW 199 0 min 0,000 mm 0,0 UV-I 0 W/m 6,4 C 4,5 C 14,5 km/h (3 Bft) 100,00 %
12.05.2019 20:50 7,0 C 13,9 C 7,2 C 96 % 1029,5 hPa 0,0 l/m 10,8 km/h (2 Bft) W-SW 256 0 min 0,000 mm 0,0 UV-I 0 W/m 6,4 C 3,8 C 16,1 km/h (3 Bft) 100,00 %
12.05.2019 20:52 7,0 C 13,9 C 7,2 C 96 % 1029,5 hPa 0,0 l/m 9,1 km/h (2 Bft) W-SW 254 0 min 0,000 mm 0,0 UV-I 0 W/m 6,4 C 4,9 C 14,5 km/h (3 Bft) 100,00 %
12.05.2019 20:54 7,1 C 13,9 C 7,2 C 96 % 1029,5 hPa 0,0 l/m 7,8 km/h (2 Bft) SW 230 0 min 0,000 mm 0,0 UV-I 0 W/m 6,5 C 6,0 C 12,9 km/h (3 Bft) 100,00 %
12.05.2019 20:56 7,0 C 13,9 C 7,2 C 96 % 1029,5 hPa 0,0 l/m 8,4 km/h (2 Bft) W-SW 241 0 min 0,000 mm 0,0 UV-I 0 W/m 6,4 C 5,4 C 14,5 km/h (3 Bft) 100,00 %
12.05.2019 20:59 7,0 C 13,9 C 7,2 C 96 % 1029,6 hPa 0,0 l/m 11,2 km/h (2 Bft) SW 230 0 min 0,000 mm 0,0 UV-I 0 W/m 6,4 C 3,5 C 19,3 km/h (3 Bft) 98,57 %
12.05.2019 21:00 7,0 C 13,9 C 7,2 C 96 % 1029,6 hPa 0,0 l/m 8,7 km/h (2 Bft) W 263 0 min 0,000 mm 0,0 UV-I 0 W/m 6,4 C 5,2 C 11,3 km/h (2 Bft) 100,00 %
12.05.2019 21:02 7,0 C 13,9 C 7,2 C 96 % 1029,5 hPa 0,0 l/m 9,4 km/h (2 Bft) W 269 0 min 0,000 mm 0,0 UV-I 0 W/m 6,4 C 4,7 C 12,9 km/h (3 Bft) 100,00 %
12.05.2019 21:04 7,0 C 13,9 C 7,2 C 96 % 1029,6 hPa 0,0 l/m 9,9 km/h (2 Bft) W-SW 258 0 min 0,000 mm 0,0 UV-I 0 W/m 6,4 C 4,3 C 16,1 km/h (3 Bft) 100,00 %
12.05.2019 21:06 7,1 C 13,9 C 7,2 C 96 % 1029,6 hPa 0,0 l/m 9,4 km/h (2 Bft) W-SW 252 0 min 0,000 mm 0,0 UV-I 0 W/m 6,5 C 4,8 C 16,1 km/h (3 Bft) 100,00 %
12.05.2019 21:08 7,0 C 13,9 C 7,2 C 96 % 1029,7 hPa 0,2 l/m 10,5 km/h (2 Bft) W 265 0 min 0,000 mm 0,0 UV-I 0 W/m 6,4 C 4,0 C 16,1 km/h (3 Bft) 100,00 %
12.05.2019 21:10 7,0 C 13,9 C 7,2 C 96 % 1029,7 hPa 0,0 l/m 9,1 km/h (2 Bft) SW 229 0 min 0,000 mm 0,0 UV-I 0 W/m 6,4 C 4,9 C 12,9 km/h (3 Bft) 100,00 %
12.05.2019 21:12 7,0 C 13,9 C 7,2 C 96 % 1029,7 hPa 0,0 l/m 10,6 km/h (2 Bft) W-SW 256 0 min 0,000 mm 0,0 UV-I 0 W/m 6,4 C 3,9 C 17,7 km/h (3 Bft) 92,00 %
12.05.2019 21:14 7,0 C 13,9 C 7,2 C 96 % 1029,7 hPa 0,0 l/m 10,8 km/h (2 Bft) W-SW 239 0 min 0,000 mm 0,0 UV-I 0 W/m 6,4 C 3,8 C 17,7 km/h (3 Bft) 93,62 %
12.05.2019 21:16 7,0 C 13,9 C 7,2 C 96 % 1029,7 hPa 0,0 l/m 10,2 km/h (2 Bft) W-SW 256 0 min 0,000 mm 0,0 UV-I 0 W/m 6,4 C 4,2 C 14,5 km/h (3 Bft) 93,62 %
12.05.2019 21:18 7,0 C 13,9 C 7,2 C 96 % 1029,8 hPa 0,0 l/m 8,6 km/h (2 Bft) W 272 0 min 0,000 mm 0,0 UV-I 0 W/m 6,4 C 5,3 C 12,9 km/h (3 Bft) 93,62 %
12.05.2019 21:20 7,1 C 13,9 C 7,2 C 96 % 1029,7 hPa 0,0 l/m 8,3 km/h (2 Bft) W 260 0 min 0,000 mm 0,0 UV-I 0 W/m 6,5 C 5,6 C 12,9 km/h (3 Bft) 93,62 %
12.05.2019 21:22 7,1 C 13,9 C 7,2 C 96 % 1029,7 hPa 0,0 l/m 7,6 km/h (2 Bft) W 273 0 min 0,000 mm 0,0 UV-I 0 W/m 6,5 C 6,1 C 11,3 km/h (2 Bft) 93,62 %
12.05.2019 21:24 7,1 C 13,9 C 7,2 C 96 % 1029,8 hPa 0,0 l/m 8,3 km/h (2 Bft) W-SW 258 0 min 0,000 mm 0,0 UV-I 0 W/m 6,5 C 5,6 C 12,9 km/h (3 Bft) 96,00 %
12.05.2019 21:26 7,1 C 13,9 C 7,2 C 96 % 1029,8 hPa 0,0 l/m 7,5 km/h (2 Bft) SW 222 0 min 0,000 mm 0,0 UV-I 0 W/m 6,5 C 6,2 C 11,3 km/h (2 Bft) 94,44 %
12.05.2019 21:29 7,1 C 13,9 C 7,2 C 96 % 1029,8 hPa 0,0 l/m 9,5 km/h (2 Bft) W-SW 252 0 min 0,000 mm 0,0 UV-I 0 W/m 6,5 C 4,7 C 14,5 km/h (3 Bft) 92,68 %
12.05.2019 21:30 7,1 C 13,9 C 7,2 C 96 % 1029,8 hPa 0,0 l/m 6,6 km/h (2 Bft) W-SW 247 0 min 0,000 mm 0,0 UV-I 0 W/m 6,5 C 7,0 C 9,7 km/h (2 Bft) 100,00 %
12.05.2019 21:32 7,1 C 13,9 C 7,2 C 96 % 1029,8 hPa 0,0 l/m 6,7 km/h (2 Bft) SW 223 0 min 0,000 mm 0,0 UV-I 0 W/m 6,5 C 6,9 C 11,3 km/h (2 Bft) 93,62 %
12.05.2019 21:34 7,1 C 13,9 C 7,2 C 96 % 1029,8 hPa 0,0 l/m 9,1 km/h (2 Bft) W-SW 240 0 min 0,000 mm 0,0 UV-I 0 W/m 6,5 C 5,0 C 12,9 km/h (3 Bft) 96,00 %
12.05.2019 21:36 7,1 C 13,9 C 7,2 C 96 % 1029,8 hPa 0,0 l/m 8,7 km/h (2 Bft) SW 231 0 min 0,000 mm 0,0 UV-I 0 W/m 6,5 C 5,3 C 14,5 km/h (3 Bft) 100,00 %
12.05.2019 21:38 7,1 C 13,9 C 7,2 C 96 % 1029,9 hPa 0,0 l/m 7,6 km/h (2 Bft) SW 225 0 min 0,000 mm 0,0 UV-I 0 W/m 6,5 C 6,1 C 11,3 km/h (2 Bft) 97,87 %
12.05.2019 21:40 7,1 C 13,9 C 7,2 C 96 % 1029,9 hPa 0,0 l/m 11,2 km/h (2 Bft) W-SW 247 0 min 0,000 mm 0,0 UV-I 0 W/m 6,5 C 3,6 C 17,7 km/h (3 Bft) 93,62 %
12.05.2019 21:42 7,1 C 13,9 C 7,2 C 96 % 1029,9 hPa 0,0 l/m 11,4 km/h (2 Bft) SW 214 0 min 0,000 mm 0,0 UV-I 0 W/m 6,5 C 3,5 C 16,1 km/h (3 Bft) 95,74 %
12.05.2019 21:44 7,1 C 13,9 C 7,2 C 96 % 1029,9 hPa 0,0 l/m 10,0 km/h (2 Bft) W 261 0 min 0,000 mm 0,0 UV-I 0 W/m 6,5 C 4,4 C 16,1 km/h (3 Bft) 93,62 %
12.05.2019 21:46 7,1 C 13,9 C 7,2 C 96 % 1029,9 hPa 0,0 l/m 11,0 km/h (2 Bft) W-SW 245 0 min 0,000 mm 0,0 UV-I 0 W/m 6,5 C 3,8 C 14,5 km/h (3 Bft) 93,62 %
12.05.2019 21:49 7,1 C 13,9 C 7,2 C 96 % 1029,9 hPa 0,0 l/m 10,1 km/h (2 Bft) SW 228 0 min 0,000 mm 0,0 UV-I 0 W/m 6,5 C 4,3 C 16,1 km/h (3 Bft) 98,59 %
12.05.2019 21:50 7,0 C 13,9 C 7,2 C 96 % 1029,9 hPa 0,0 l/m 9,0 km/h (2 Bft) W-SW 253 0 min 0,000 mm 0,0 UV-I 0 W/m 6,4 C 5,0 C 12,9 km/h (3 Bft) 91,30 %
12.05.2019 21:52 7,0 C 13,9 C 7,2 C 96 % 1029,9 hPa 0,0 l/m 9,0 km/h (2 Bft) W 271 0 min 0,000 mm 0,0 UV-I 0 W/m 6,4 C 5,0 C 14,5 km/h (3 Bft) 97,87 %
12.05.2019 21:54 7,0 C 13,9 C 7,2 C 96 % 1029,9 hPa 0,0 l/m 7,5 km/h (2 Bft) SW 229 0 min 0,000 mm 0,0 UV-I 0 W/m 6,4 C 6,1 C 12,9 km/h (3 Bft) 95,74 %
12.05.2019 21:56 7,0 C 13,9 C 7,2 C 96 % 1029,9 hPa 0,0 l/m 7,9 km/h (2 Bft) SW 223 0 min 0,000 mm 0,0 UV-I 0 W/m 6,4 C 5,8 C 12,9 km/h (3 Bft) 95,74 %
12.05.2019 21:58 6,9 C 13,9 C 7,2 C 96 % 1030,0 hPa 0,0 l/m 11,9 km/h (2 Bft) W-SW 238 0 min 0,000 mm 0,0 UV-I 0 W/m 6,3 C 3,0 C 20,9 km/h (4 Bft) 97,87 %
12.05.2019 22:00 6,9 C 13,9 C 7,2 C 96 % 1030,0 hPa 0,0 l/m 8,7 km/h (2 Bft) W-SW 238 0 min 0,000 mm 0,0 UV-I 0 W/m 6,3 C 5,1 C 14,5 km/h (3 Bft) 93,62 %
12.05.2019 22:02 6,9 C 13,9 C 7,2 C 96 % 1030,0 hPa 0,0 l/m 10,1 km/h (2 Bft) W-SW 248 0 min 0,000 mm 0,0 UV-I 0 W/m 6,3 C 4,1 C 14,5 km/h (3 Bft) 95,74 %
12.05.2019 22:04 6,9 C 13,9 C 7,2 C 96 % 1030,1 hPa 0,0 l/m 10,8 km/h (2 Bft) S-SW 200 0 min 0,000 mm 0,0 UV-I 0 W/m 6,3 C 3,7 C 19,3 km/h (3 Bft) 97,92 %
12.05.2019 22:06 6,9 C 13,9 C 7,2 C 96 % 1030,1 hPa 0,0 l/m 8,6 km/h (2 Bft) SW 230 0 min 0,000 mm 0,0 UV-I 0 W/m 6,3 C 5,1 C 14,5 km/h (3 Bft) 94,00 %
12.05.2019 22:08 6,9 C 13,9 C 7,2 C 96 % 1030,1 hPa 0,0 l/m 10,3 km/h (2 Bft) SW 222 0 min 0,000 mm 0,0 UV-I 0 W/m 6,3 C 4,0 C 16,1 km/h (3 Bft) 100,00 %
12.05.2019 22:10 6,8 C 13,9 C 7,2 C 96 % 1030,2 hPa 0,0 l/m 8,5 km/h (2 Bft) S-SW 209 0 min 0,000 mm 0,0 UV-I 0 W/m 6,2 C 5,1 C 14,5 km/h (3 Bft) 95,74 %
12.05.2019 22:12 6,8 C 13,9 C 7,2 C 96 % 1030,2 hPa 0,2 l/m 11,6 km/h (2 Bft) SW 219 0 min 0,000 mm 0,0 UV-I 0 W/m 6,2 C 3,1 C 17,7 km/h (3 Bft) 97,87 %
12.05.2019 22:14 6,8 C 13,9 C 7,2 C 96 % 1030,2 hPa 0,0 l/m 11,3 km/h (2 Bft) SW 216 0 min 0,000 mm 0,0 UV-I 0 W/m 6,2 C 3,2 C 17,7 km/h (3 Bft) 95,74 %
12.05.2019 22:16 6,8 C 13,9 C 6,7 C 96 % 1030,2 hPa 0,0 l/m 10,7 km/h (2 Bft) SW 217 0 min 0,000 mm 0,0 UV-I 0 W/m 6,2 C 3,6 C 19,3 km/h (3 Bft) 98,00 %
12.05.2019 22:18 6,7 C 13,9 C 6,7 C 96 % 1030,2 hPa 0,0 l/m 9,2 km/h (2 Bft) S-SW 213 0 min 0,000 mm 0,0 UV-I 0 W/m 6,1 C 4,5 C 14,5 km/h (3 Bft) 98,00 %
12.05.2019 22:20 6,7 C 13,9 C 6,7 C 96 % 1030,2 hPa 0,0 l/m 7,9 km/h (2 Bft) W-SW 247 0 min 0,000 mm 0,0 UV-I 0 W/m 6,1 C 5,5 C 14,5 km/h (3 Bft) 95,74 %
12.05.2019 22:22 6,7 C 13,9 C 6,7 C 96 % 1030,2 hPa 0,0 l/m 10,9 km/h (2 Bft) W-SW 238 0 min 0,000 mm 0,0 UV-I 0 W/m 6,1 C 3,4 C 16,1 km/h (3 Bft) 97,87 %
12.05.2019 22:24 6,7 C 13,9 C 6,7 C 96 % 1030,2 hPa 0,0 l/m 10,3 km/h (2 Bft) SW 229 0 min 0,000 mm 0,0 UV-I 0 W/m 6,1 C 3,8 C 16,1 km/h (3 Bft) 97,87 %
12.05.2019 22:26 6,7 C 13,9 C 6,7 C 96 % 1030,2 hPa 0,2 l/m 8,6 km/h (2 Bft) SW 215 0 min 0,000 mm 0,0 UV-I 0 W/m 6,1 C 4,9 C 14,5 km/h (3 Bft) 97,87 %
12.05.2019 22:29 6,7 C 13,9 C 6,7 C 96 % 1030,2 hPa 0,0 l/m 9,8 km/h (2 Bft) W-SW 248 0 min 0,000 mm 0,0 UV-I 0 W/m 6,1 C 4,1 C 17,7 km/h (3 Bft) 95,77 %
12.05.2019 22:30 6,7 C 13,9 C 6,7 C 96 % 1030,2 hPa 0,0 l/m 13,3 km/h (3 Bft) S-SW 197 0 min 0,000 mm 0,0 UV-I 0 W/m 6,1 C 2,0 C 17,7 km/h (3 Bft) 95,65 %
12.05.2019 22:32 6,7 C 13,9 C 6,7 C 96 % 1030,2 hPa 0,0 l/m 9,9 km/h (2 Bft) SW 231 0 min 0,000 mm 0,0 UV-I 0 W/m 6,1 C 4,0 C 12,9 km/h (3 Bft) 100,00 %
12.05.2019 22:34 6,7 C 13,9 C 6,7 C 96 % 1030,2 hPa 0,0 l/m 14,7 km/h (3 Bft) SW 232 0 min 0,000 mm 0,0 UV-I 0 W/m 6,1 C 1,3 C 22,5 km/h (4 Bft) 94,00 %
12.05.2019 22:36 6,7 C 13,9 C 6,7 C 96 % 1030,1 hPa 0,0 l/m 13,7 km/h (3 Bft) S-SW 209 0 min 0,000 mm 0,0 UV-I 0 W/m 6,1 C 1,8 C 19,3 km/h (3 Bft) 96,00 %
12.05.2019 22:38 6,7 C 13,9 C 6,7 C 96 % 1030,2 hPa 0,0 l/m 10,8 km/h (2 Bft) SW 236 0 min 0,000 mm 0,0 UV-I 0 W/m 6,1 C 3,4 C 16,1 km/h (3 Bft) 92,00 %
12.05.2019 22:40 6,6 C 13,9 C 6,7 C 96 % 1030,1 hPa 0,0 l/m 10,3 km/h (2 Bft) W-SW 242 0 min 0,000 mm 0,0 UV-I 0 W/m 6,0 C 3,6 C 14,5 km/h (3 Bft) 95,83 %
12.05.2019 22:42 6,7 C 13,9 C 6,7 C 96 % 1030,1 hPa 0,0 l/m 10,3 km/h (2 Bft) W-SW 250 0 min 0,000 mm 0,0 UV-I 0 W/m 6,1 C 3,8 C 16,1 km/h (3 Bft) 95,74 %
12.05.2019 22:44 6,7 C 13,9 C 6,7 C 96 % 1030,2 hPa 0,0 l/m 11,0 km/h (2 Bft) W-SW 258 0 min 0,000 mm 0,0 UV-I 0 W/m 6,1 C 3,3 C 16,1 km/h (3 Bft) 94,00 %
12.05.2019 22:46 6,7 C 13,9 C 6,7 C 96 % 1030,2 hPa 0,0 l/m 9,5 km/h (2 Bft) W-SW 246 0 min 0,000 mm 0,0 UV-I 0 W/m 6,1 C 4,3 C 12,9 km/h (3 Bft) 94,74 %
12.05.2019 22:48 6,6 C 13,9 C 6,7 C 96 % 1030,2 hPa 0,0 l/m 7,7 km/h (2 Bft) W-SW 251 0 min 0,000 mm 0,0 UV-I 0 W/m 6,0 C 5,5 C 12,9 km/h (3 Bft) 97,87 %
12.05.2019 22:50 6,7 C 13,9 C 6,7 C 96 % 1030,3 hPa 0,2 l/m 11,1 km/h (2 Bft) SW 229 0 min 0,000 mm 0,0 UV-I 0 W/m 6,1 C 3,2 C 17,7 km/h (3 Bft) 97,87 %
12.05.2019 22:52 6,6 C 13,9 C 6,7 C 96 % 1030,3 hPa 0,0 l/m 12,5 km/h (3 Bft) W 262 0 min 0,000 mm 0,0 UV-I 0 W/m 6,0 C 2,3 C 20,9 km/h (4 Bft) 97,87 %
12.05.2019 22:54 6,7 C 13,9 C 6,7 C 96 % 1030,2 hPa 0,0 l/m 12,2 km/h (2 Bft) W 259 0 min 0,000 mm 0,0 UV-I 0 W/m 6,1 C 2,6 C 17,7 km/h (3 Bft) 97,87 %
12.05.2019 22:56 6,7 C 13,9 C 6,7 C 96 % 1030,3 hPa 0,0 l/m 11,6 km/h (2 Bft) W-SW 250 0 min 0,000 mm 0,0 UV-I 0 W/m 6,1 C 2,9 C 17,7 km/h (3 Bft) 100,00 %
12.05.2019 22:58 6,7 C 13,9 C 6,7 C 96 % 1030,3 hPa 0,0 l/m 11,1 km/h (2 Bft) W-SW 244 0 min 0,000 mm 0,0 UV-I 0 W/m 6,1 C 3,2 C 17,7 km/h (3 Bft) 98,00 %
12.05.2019 23:00 6,7 C 13,9 C 6,7 C 96 % 1030,3 hPa 0,0 l/m 11,8 km/h (2 Bft) W-SW 243 0 min 0,000 mm 0,0 UV-I 0 W/m 6,1 C 2,8 C 17,7 km/h (3 Bft) 97,87 %
12.05.2019 23:02 6,7 C 13,9 C 6,7 C 96 % 1030,3 hPa 0,2 l/m 10,7 km/h (2 Bft) S-SW 210 0 min 0,000 mm 0,0 UV-I 0 W/m 6,1 C 3,5 C 17,7 km/h (3 Bft) 97,87 %
12.05.2019 23:04 6,7 C 13,9 C 6,7 C 96 % 1030,4 hPa 0,0 l/m 11,9 km/h (2 Bft) W-SW 253 0 min 0,000 mm 0,0 UV-I 0 W/m 6,1 C 2,8 C 17,7 km/h (3 Bft) 100,00 %
12.05.2019 23:06 6,7 C 13,9 C 6,7 C 96 % 1030,4 hPa 0,0 l/m 10,3 km/h (2 Bft) SW 222 0 min 0,000 mm 0,0 UV-I 0 W/m 6,1 C 3,8 C 14,5 km/h (3 Bft) 93,62 %
12.05.2019 23:08 6,7 C 13,9 C 6,7 C 96 % 1030,4 hPa 0,0 l/m 9,7 km/h (2 Bft) W-SW 246 0 min 0,000 mm 0,0 UV-I 0 W/m 6,1 C 4,2 C 16,1 km/h (3 Bft) 95,74 %
12.05.2019 23:10 6,6 C 13,9 C 6,7 C 96 % 1030,4 hPa 0,0 l/m 10,1 km/h (2 Bft) W-SW 242 0 min 0,000 mm 0,0 UV-I 0 W/m 6,0 C 3,8 C 16,1 km/h (3 Bft) 97,87 %
12.05.2019 23:12 6,6 C 13,9 C 6,7 C 96 % 1030,4 hPa 0,0 l/m 9,9 km/h (2 Bft) W-SW 252 0 min 0,000 mm 0,0 UV-I 0 W/m 6,0 C 3,9 C 16,1 km/h (3 Bft) 97,14 %
12.05.2019 23:14 6,7 C 13,9 C 6,7 C 96 % 1030,4 hPa 0,0 l/m 10,4 km/h (2 Bft) W-SW 239 0 min 0,000 mm 0,0 UV-I 0 W/m 6,1 C 3,7 C 17,7 km/h (3 Bft) 97,92 %
12.05.2019 23:16 6,6 C 13,9 C 6,7 C 96 % 1030,4 hPa 0,0 l/m 12,3 km/h (3 Bft) SW 217 0 min 0,000 mm 0,0 UV-I 0 W/m 6,0 C 2,4 C 19,3 km/h (3 Bft) 93,62 %
12.05.2019 23:18 6,6 C 13,9 C 6,7 C 96 % 1030,4 hPa 0,0 l/m 10,0 km/h (2 Bft) SW 226 0 min 0,000 mm 0,0 UV-I 0 W/m 6,0 C 3,8 C 14,5 km/h (3 Bft) 97,87 %
12.05.2019 23:20 6,6 C 13,9 C 6,7 C 96 % 1030,4 hPa 0,0 l/m 10,0 km/h (2 Bft) SW 223 0 min 0,000 mm 0,0 UV-I 0 W/m 6,0 C 3,8 C 14,5 km/h (3 Bft) 97,87 %
12.05.2019 23:22 6,6 C 13,9 C 6,7 C 96 % 1030,3 hPa 0,0 l/m 9,8 km/h (2 Bft) SW 224 0 min 0,000 mm 0,0 UV-I 0 W/m 6,0 C 4,0 C 16,1 km/h (3 Bft) 97,87 %
12.05.2019 23:24 6,6 C 13,3 C 6,7 C 96 % 1030,3 hPa 0,2 l/m 8,9 km/h (2 Bft) W-SW 249 0 min 0,000 mm 0,0 UV-I 0 W/m 6,0 C 4,6 C 17,7 km/h (3 Bft) 95,74 %
12.05.2019 23:26 6,6 C 13,9 C 6,7 C 96 % 1030,4 hPa 0,0 l/m 10,8 km/h (2 Bft) SW 228 0 min 0,000 mm 0,0 UV-I 0 W/m 6,0 C 3,3 C 17,7 km/h (3 Bft) 97,87 %
12.05.2019 23:28 6,6 C 13,9 C 6,7 C 96 % 1030,4 hPa 0,0 l/m 9,8 km/h (2 Bft) SW 226 0 min 0,000 mm 0,0 UV-I 0 W/m 6,0 C 4,0 C 17,7 km/h (3 Bft) 97,87 %
12.05.2019 23:30 6,6 C 13,9 C 6,7 C 96 % 1030,4 hPa 0,0 l/m 11,1 km/h (2 Bft) W-SW 252 0 min 0,000 mm 0,0 UV-I 0 W/m 6,0 C 3,1 C 16,1 km/h (3 Bft) 97,87 %
12.05.2019 23:32 6,6 C 13,9 C 6,7 C 96 % 1030,4 hPa 0,0 l/m 12,9 km/h (3 Bft) W-SW 248 0 min 0,000 mm 0,0 UV-I 0 W/m 6,0 C 2,1 C 19,3 km/h (3 Bft) 96,23 %
12.05.2019 23:34 6,6 C 13,9 C 6,7 C 96 % 1030,4 hPa 0,0 l/m 9,3 km/h (2 Bft) SW 235 0 min 0,000 mm 0,0 UV-I 0 W/m 6,0 C 4,3 C 16,1 km/h (3 Bft) 97,87 %
12.05.2019 23:36 6,6 C 13,9 C 6,7 C 96 % 1030,3 hPa 0,0 l/m 14,4 km/h (3 Bft) W 260 0 min 0,000 mm 0,0 UV-I 0 W/m 6,0 C 1,3 C 20,9 km/h (4 Bft) 97,87 %
12.05.2019 23:38 6,6 C 13,9 C 6,7 C 96 % 1030,3 hPa 0,2 l/m 13,0 km/h (3 Bft) W-SW 243 0 min 0,000 mm 0,0 UV-I 0 W/m 6,0 C 2,0 C 17,7 km/h (3 Bft) 97,87 %
12.05.2019 23:40 6,6 C 13,9 C 6,7 C 96 % 1030,2 hPa 0,0 l/m 13,5 km/h (3 Bft) W-SW 246 0 min 0,000 mm 0,0 UV-I 0 W/m 6,0 C 1,8 C 20,9 km/h (4 Bft) 97,87 %
12.05.2019 23:42 6,6 C 13,9 C 6,7 C 96 % 1030,3 hPa 0,0 l/m 12,4 km/h (3 Bft) SW 236 0 min 0,000 mm 0,0 UV-I 0 W/m 6,0 C 2,4 C 17,7 km/h (3 Bft) 97,87 %
12.05.2019 23:44 6,6 C 13,9 C 6,7 C 96 % 1030,2 hPa 0,0 l/m 12,7 km/h (3 Bft) W-SW 252 0 min 0,000 mm 0,0 UV-I 0 W/m 6,0 C 2,2 C 19,3 km/h (3 Bft) 97,87 %
12.05.2019 23:46 6,6 C 13,9 C 6,7 C 96 % 1030,2 hPa 0,0 l/m 13,6 km/h (3 Bft) SW 223 0 min 0,000 mm 0,0 UV-I 0 W/m 6,0 C 1,7 C 22,5 km/h (4 Bft) 93,62 %
12.05.2019 23:48 6,6 C 13,9 C 6,7 C 96 % 1030,2 hPa 0,0 l/m 12,1 km/h (2 Bft) SW 236 0 min 0,000 mm 0,0 UV-I 0 W/m 6,0 C 2,5 C 17,7 km/h (3 Bft) 100,00 %
12.05.2019 23:50 6,6 C 13,9 C 6,7 C 96 % 1030,3 hPa 0,0 l/m 15,2 km/h (3 Bft) SW 223 0 min 0,000 mm 0,0 UV-I 0 W/m 6,0 C 0,9 C 20,9 km/h (4 Bft) 100,00 %
12.05.2019 23:52 6,6 C 13,9 C 6,7 C 96 % 1030,3 hPa 0,0 l/m 13,8 km/h (3 Bft) W-SW 240 0 min 0,000 mm 0,0 UV-I 0 W/m 6,0 C 1,6 C 20,9 km/h (4 Bft) 100,00 %
12.05.2019 23:54 6,6 C 13,9 C 6,7 C 96 % 1030,3 hPa 0,0 l/m 11,2 km/h (2 Bft) W-SW 246 0 min 0,000 mm 0,0 UV-I 0 W/m 6,0 C 3,1 C 16,1 km/h (3 Bft) 97,87 %
12.05.2019 23:56 6,6 C 13,9 C 6,7 C 96 % 1030,3 hPa 0,0 l/m 12,9 km/h (3 Bft) SW 222 0 min 0,000 mm 0,0 UV-I 0 W/m 6,0 C 2,1 C 17,7 km/h (3 Bft) 95,83 %
12.05.2019 23:58 6,6 C 13,3 C 6,7 C 96 % 1030,3 hPa 0,0 l/m 12,9 km/h (3 Bft) S-SW 205 0 min 0,000 mm 0,0 UV-I 0 W/m 6,0 C 2,1 C 19,3 km/h (3 Bft) 97,87 %
_ Min-Zeit 22:40 23:24 22:16 16:26 02:50 - 15:44 - - - - - - 16:26 09:12 01:50 07:24
Minimum _ 6,6 C 13,3 C 6,7 C 90 % 1015,3 hPa - 1,5 km/h (1 Bft) - - - - - - 5,8 C -0,4 C 3,2 km/h (1 Bft) 89,36 %
_ Max-Zeit 04:24 00:00 13:40 00:16 23:04 00:04 09:58 - - 00:00 14:00 12:22 13:48 00:20 05:00 08:48 00:00
Maximum _ 8,6 C 15,0 C 11,1 C 96 % 1030,4 hPa 0,2 l/m 23,8 km/h
W-SW (4 Bft)
- - 0 min 0,102 mm 1,4 UV-I 248 W/m 7,7 C 8,4 C 38,6 km/h
W-SW (5 Bft)
100,00 %
Durchschnitt _ 7,8 C 14,2 C 8,5 C 94 % 1022,6 hPa #19,6 l/m 9,4 km/h (2 Bft) W-SW - #0 min. #0,787 mm 0,9 UV-I 104 W/m 6,9 C 5,4 C 14,8 km/h (3 Bft) 97,07 %